[[{"header":{"parameterUnit":"m.s-1","parameterCategory":1,"la1":30.6,"la2":29.2853,"lo1":-89.7004,"lo2":-87.6739,"dy":0.0162,"dx":0.0183,"nx":112,"ny":82,"refTime":"2026-03-28T00:00:00:Z","depth":0,"parameterNumber":2,"parameterNumberName":"U-component_of_WINDS"},"data":[0.0,0.0,0.0,0.0,0.0,0.0,0.0,0.0,0.0,0.0,0.0,0.0,0.0,0.0,0.0,0.0,0.0,0.0,0.0,0.0,0.0,0.0,0.0,0.0,0.0,0.0,0.0,0.0,0.0,0.0,0.0,0.0,0.0,0.0,0.0,0.0,0.0,0.0,0.0,0.0,0.0,0.0,0.0,0.0,0.0,0.0,0.0,0.0,0.0,0.0,0.0,0.0,0.0,0.0,0.0,0.0,0.0,0.0,0.0,0.0,0.0,0.0,0.0,0.0,0.0,0.0,0.0,0.0,0.0,0.0,0.0,0.0,0.0,0.0,0.0,0.0,0.0,0.0,0.0,0.0,0.0,0.0,0.0,0.0,0.0,0.0,0.0,0.0,0.0,0.0,-2.8213,-3.2386,-3.7055,-3.9216,-3.7612,-3.5483,-3.2505,-2.8528,0.0,0.0,0.0,0.0,0.0,0.0,0.0,0.0,0.0,0.0,0.0,0.0,0.0,0.0,0.0,0.0,0.0,0.0,0.0,0.0,0.0,0.0,0.0,0.0,0.0,0.0,0.0,0.0,0.0,0.0,0.0,0.0,0.0,0.0,0.0,0.0,0.0,0.0,0.0,0.0,0.0,0.0,0.0,0.0,0.0,0.0,0.0,0.0,0.0,0.0,0.0,0.0,0.0,0.0,0.0,0.0,0.0,0.0,0.0,0.0,0.0,0.0,0.0,0.0,0.0,0.0,0.0,0.0,0.0,0.0,0.0,0.0,0.0,0.0,0.0,0.0,0.0,0.0,0.0,0.0,0.0,0.0,0.0,0.0,0.0,0.0,0.0,0.0,0.0,0.0,0.0,0.0,0.0,0.0,0.0,0.0,0.0,0.0,0.0,0.0,0.0,0.0,0.0,0.0,-3.1179,-3.6939,-3.9365,-3.9914,-3.8368,-3.6666,-3.3796,-2.9313,0.0,0.0,0.0,0.0,0.0,0.0,0.0,0.0,0.0,0.0,0.0,0.0,0.0,0.0,0.0,0.0,0.0,0.0,0.0,0.0,0.0,0.0,0.0,0.0,0.0,0.0,0.0,0.0,0.0,0.0,0.0,0.0,0.0,0.0,0.0,0.0,0.0,0.0,0.0,0.0,0.0,0.0,0.0,0.0,0.0,0.0,0.0,0.0,0.0,0.0,0.0,0.0,0.0,0.0,0.0,0.0,0.0,0.0,0.0,0.0,0.0,0.0,0.0,0.0,0.0,0.0,0.0,0.0,0.0,0.0,0.0,0.0,0.0,0.0,0.0,0.0,0.0,0.0,0.0,0.0,0.0,0.0,0.0,0.0,0.0,0.0,0.0,0.0,0.0,0.0,0.0,0.0,0.0,0.0,0.0,0.0,0.0,0.0,0.0,0.0,0.0,0.0,0.0,-3.1041,-3.5387,-3.941,-4.1168,-4.1247,-3.9284,-3.7313,-3.4212,-2.9626,-2.5815,0.0,0.0,0.0,0.0,0.0,0.0,0.0,0.0,0.0,0.0,0.0,0.0,0.0,0.0,0.0,0.0,0.0,0.0,0.0,0.0,0.0,0.0,0.0,0.0,0.0,0.0,0.0,0.0,0.0,0.0,0.0,0.0,0.0,0.0,0.0,0.0,0.0,0.0,0.0,0.0,0.0,0.0,0.0,0.0,0.0,0.0,0.0,0.0,0.0,0.0,0.0,0.0,0.0,0.0,0.0,0.0,0.0,0.0,0.0,0.0,0.0,0.0,0.0,0.0,0.0,0.0,0.0,0.0,0.0,0.0,0.0,0.0,0.0,0.0,0.0,0.0,0.0,0.0,0.0,0.0,0.0,0.0,0.0,0.0,0.0,0.0,0.0,0.0,0.0,0.0,0.0,0.0,0.0,0.0,0.0,0.0,0.0,0.0,0.0,0.0,0.0,0.0,-3.5663,-3.8824,-4.0929,-4.2378,-4.2171,-3.9629,-3.7353,-3.4007,-2.9282,-2.5542,0.0,0.0,0.0,0.0,0.0,0.0,0.0,0.0,0.0,0.0,0.0,0.0,0.0,0.0,0.0,0.0,0.0,0.0,0.0,0.0,0.0,0.0,0.0,0.0,0.0,0.0,0.0,0.0,0.0,0.0,0.0,0.0,0.0,0.0,0.0,0.0,0.0,0.0,0.0,0.0,0.0,0.0,0.0,0.0,0.0,0.0,0.0,0.0,0.0,0.0,0.0,0.0,0.0,0.0,0.0,0.0,0.0,0.0,0.0,0.0,0.0,0.0,0.0,0.0,0.0,0.0,0.0,0.0,0.0,0.0,0.0,0.0,0.0,0.0,0.0,0.0,0.0,0.0,0.0,0.0,0.0,0.0,0.0,0.0,0.0,0.0,0.0,0.0,0.0,0.0,0.0,0.0,0.0,0.0,0.0,0.0,0.0,0.0,0.0,0.0,0.0,0.0,-3.7215,-4.0146,-4.1733,-4.2689,-4.1964,-3.8939,-3.6594,-3.3041,-2.7799,-2.4445,0.0,0.0,0.0,0.0,0.0,0.0,0.0,0.0,0.0,0.0,0.0,0.0,0.0,0.0,0.0,0.0,0.0,0.0,0.0,0.0,0.0,0.0,0.0,0.0,0.0,0.0,0.0,0.0,0.0,0.0,0.0,0.0,0.0,0.0,0.0,0.0,0.0,0.0,0.0,0.0,0.0,0.0,0.0,0.0,0.0,0.0,0.0,0.0,0.0,0.0,0.0,0.0,0.0,0.0,0.0,0.0,0.0,0.0,0.0,0.0,0.0,0.0,0.0,0.0,0.0,0.0,0.0,0.0,0.0,0.0,0.0,0.0,0.0,0.0,0.0,0.0,0.0,0.0,0.0,0.0,0.0,0.0,0.0,0.0,0.0,0.0,0.0,0.0,0.0,0.0,0.0,0.0,0.0,0.0,0.0,0.0,0.0,0.0,0.0,0.0,0.0,0.0,-3.8237,-4.155,-4.262,-4.3837,-4.3354,-4.0308,-3.7456,-3.3835,-2.8972,0.0,0.0,0.0,0.0,0.0,0.0,0.0,0.0,0.0,0.0,0.0,0.0,0.0,0.0,0.0,0.0,0.0,0.0,0.0,0.0,0.0,0.0,0.0,0.0,0.0,0.0,0.0,0.0,0.0,0.0,0.0,0.0,0.0,0.0,0.0,0.0,0.0,0.0,0.0,0.0,0.0,0.0,0.0,0.0,0.0,0.0,0.0,0.0,0.0,0.0,0.0,0.0,0.0,0.0,0.0,0.0,0.0,0.0,0.0,0.0,0.0,0.0,0.0,0.0,0.0,0.0,0.0,0.0,0.0,0.0,0.0,0.0,0.0,0.0,0.0,0.0,0.0,0.0,0.0,0.0,0.0,0.0,0.0,0.0,0.0,0.0,0.0,0.0,0.0,0.0,0.0,0.0,0.0,0.0,0.0,0.0,0.0,0.0,0.0,0.0,0.0,0.0,-3.4249,-3.9008,-4.2413,-4.3448,-4.4458,-4.3837,-4.0791,-3.7939,-3.4249,-2.9455,0.0,0.0,0.0,0.0,0.0,0.0,0.0,0.0,0.0,0.0,0.0,0.0,0.0,0.0,0.0,0.0,0.0,0.0,0.0,0.0,0.0,0.0,0.0,0.0,0.0,0.0,0.0,0.0,0.0,0.0,0.0,0.0,0.0,0.0,0.0,0.0,0.0,0.0,0.0,0.0,0.0,0.0,0.0,0.0,0.0,0.0,0.0,0.0,0.0,0.0,0.0,0.0,0.0,0.0,0.0,0.0,0.0,0.0,0.0,0.0,0.0,0.0,0.0,0.0,0.0,0.0,0.0,0.0,0.0,0.0,0.0,0.0,0.0,0.0,0.0,0.0,0.0,0.0,0.0,0.0,0.0,0.0,0.0,0.0,0.0,0.0,0.0,0.0,0.0,0.0,0.0,0.0,0.0,0.0,0.0,0.0,0.0,0.0,0.0,0.0,0.0,0.0,-3.5628,-3.9629,-4.262,-4.4138,-4.4311,-4.3069,-3.9974,-3.7629,-3.4042,0.0,0.0,0.0,0.0,0.0,0.0,0.0,0.0,0.0,0.0,0.0,0.0,0.0,0.0,0.0,0.0,0.0,0.0,0.0,0.0,0.0,0.0,0.0,0.0,0.0,0.0,0.0,0.0,0.0,0.0,0.0,0.0,0.0,0.0,0.0,0.0,0.0,0.0,0.0,0.0,0.0,0.0,0.0,0.0,0.0,0.0,0.0,0.0,0.0,0.0,0.0,0.0,0.0,0.0,0.0,0.0,0.0,0.0,0.0,0.0,0.0,0.0,0.0,0.0,0.0,0.0,0.0,0.0,0.0,0.0,0.0,0.0,0.0,0.0,0.0,0.0,0.0,0.0,0.0,0.0,0.0,0.0,0.0,0.0,0.0,0.0,0.0,0.0,0.0,0.0,0.0,0.0,0.0,0.0,0.0,0.0,0.0,0.0,0.0,0.0,0.0,0.0,0.0,-3.5697,-4.0135,-4.3207,-4.4207,-4.4311,-4.3483,-4.1516,-3.8249,-3.4731,-3.1041,0.0,0.0,0.0,0.0,0.0,0.0,0.0,0.0,0.0,0.0,0.0,0.0,0.0,0.0,0.0,0.0,0.0,0.0,0.0,0.0,0.0,0.0,0.0,0.0,0.0,0.0,0.0,0.0,0.0,0.0,0.0,0.0,0.0,0.0,0.0,0.0,0.0,0.0,0.0,0.0,0.0,0.0,0.0,0.0,0.0,0.0,0.0,0.0,0.0,0.0,0.0,0.0,0.0,0.0,0.0,0.0,0.0,0.0,0.0,0.0,0.0,0.0,0.0,0.0,0.0,0.0,0.0,0.0,0.0,0.0,0.0,0.0,0.0,0.0,0.0,0.0,0.0,0.0,0.0,0.0,0.0,0.0,0.0,0.0,0.0,0.0,0.0,0.0,0.0,0.0,0.0,0.0,0.0,0.0,0.0,0.0,0.0,0.0,0.0,0.0,0.0,0.0,-3.6559,-4.0722,-4.3586,-4.463,-4.4483,-4.369,-4.2137,-3.9043,-3.5801,-3.2455,0.0,0.0,0.0,0.0,0.0,0.0,0.0,0.0,0.0,0.0,0.0,0.0,0.0,0.0,0.0,0.0,0.0,0.0,0.0,0.0,0.0,0.0,0.0,0.0,0.0,0.0,0.0,0.0,0.0,0.0,0.0,0.0,0.0,0.0,0.0,0.0,0.0,0.0,0.0,0.0,0.0,0.0,0.0,0.0,0.0,0.0,0.0,0.0,0.0,0.0,0.0,0.0,0.0,0.0,0.0,0.0,0.0,0.0,0.0,0.0,0.0,0.0,0.0,0.0,0.0,0.0,0.0,0.0,0.0,0.0,0.0,0.0,0.0,0.0,0.0,0.0,0.0,0.0,0.0,0.0,0.0,0.0,0.0,0.0,0.0,0.0,0.0,0.0,0.0,0.0,0.0,0.0,0.0,0.0,0.0,0.0,0.0,0.0,0.0,0.0,0.0,0.0,-3.7801,-4.1309,-4.3793,-4.5225,-4.4734,-4.3724,-4.224,-3.9939,-3.7008,-3.3352,0.0,0.0,0.0,0.0,0.0,0.0,0.0,0.0,0.0,0.0,0.0,0.0,0.0,0.0,0.0,0.0,0.0,0.0,0.0,0.0,0.0,0.0,0.0,0.0,0.0,0.0,0.0,0.0,0.0,0.0,0.0,0.0,0.0,0.0,0.0,0.0,0.0,0.0,0.0,0.0,0.0,0.0,0.0,0.0,0.0,0.0,0.0,0.0,0.0,0.0,0.0,0.0,0.0,0.0,0.0,0.0,0.0,0.0,0.0,0.0,-2.6269,0.0,0.0,0.0,0.0,0.0,0.0,0.0,0.0,0.0,0.0,0.0,0.0,0.0,0.0,0.0,0.0,0.0,0.0,0.0,0.0,0.0,0.0,0.0,0.0,0.0,0.0,0.0,0.0,0.0,0.0,0.0,0.0,0.0,0.0,0.0,0.0,0.0,0.0,0.0,0.0,0.0,-3.7801,-4.1309,-4.3793,-4.5225,-4.4734,-4.3931,-4.3034,-4.0273,-3.7491,-3.4869,-3.042,0.0,0.0,0.0,0.0,0.0,0.0,0.0,0.0,0.0,0.0,0.0,0.0,0.0,0.0,0.0,0.0,0.0,0.0,0.0,0.0,0.0,0.0,0.0,0.0,0.0,0.0,0.0,0.0,0.0,0.0,0.0,0.0,0.0,0.0,0.0,0.0,0.0,0.0,0.0,0.0,0.0,0.0,0.0,0.0,0.0,0.0,0.0,0.0,0.0,0.0,0.0,0.0,0.0,0.0,0.0,0.0,0.0,0.0,0.0,0.0,-2.879,0.0,0.0,0.0,0.0,0.0,0.0,0.0,0.0,0.0,0.0,0.0,0.0,0.0,0.0,0.0,0.0,0.0,0.0,0.0,0.0,0.0,0.0,0.0,0.0,0.0,0.0,0.0,0.0,0.0,0.0,0.0,0.0,0.0,0.0,0.0,0.0,0.0,0.0,0.0,0.0,-3.7353,-4.1067,-4.3621,-4.4734,-4.4837,-4.4389,-4.3276,-4.0722,-3.8146,-3.587,-3.1455,0.0,0.0,0.0,0.0,0.0,0.0,0.0,0.0,0.0,0.0,0.0,0.0,0.0,0.0,0.0,0.0,0.0,0.0,0.0,0.0,0.0,0.0,0.0,0.0,0.0,0.0,0.0,0.0,0.0,0.0,0.0,0.0,0.0,0.0,0.0,0.0,0.0,0.0,0.0,0.0,0.0,0.0,0.0,0.0,0.0,0.0,0.0,0.0,0.0,0.0,0.0,0.0,0.0,-3.7713,-3.8851,-3.8998,-3.9643,-4.0256,-4.065,-3.7064,-3.4207,-3.2133,-3.2349,0.0,0.0,0.0,0.0,0.0,0.0,0.0,0.0,0.0,0.0,0.0,0.0,0.0,0.0,0.0,0.0,0.0,0.0,0.0,0.0,0.0,0.0,0.0,0.0,-3.4697,-3.4268,-3.0489,0.0,0.0,0.0,0.0,0.0,0.0,0.0,0.0,0.0,0.0,0.0,-3.7305,-4.0998,-4.3517,-4.4414,-4.5044,-4.4803,-4.331,-4.1309,-3.9077,-3.6663,-3.2731,-2.9696,0.0,0.0,0.0,0.0,0.0,0.0,0.0,0.0,0.0,0.0,0.0,0.0,0.0,0.0,0.0,0.0,0.0,0.0,0.0,0.0,0.0,0.0,0.0,0.0,0.0,0.0,0.0,0.0,0.0,0.0,0.0,0.0,-2.2639,-2.3456,0.0,0.0,0.0,0.0,0.0,0.0,0.0,0.0,0.0,0.0,0.0,0.0,0.0,-3.5041,-3.7404,-3.9224,-4.0855,-4.2229,-4.3277,-4.4121,-4.4782,-4.4892,-4.4949,-4.5004,-4.4984,0.0,-3.8087,-3.7269,0.0,0.0,0.0,0.0,0.0,0.0,0.0,0.0,0.0,0.0,0.0,0.0,0.0,0.0,0.0,0.0,0.0,0.0,0.0,0.0,0.0,0.0,-3.787,-3.8629,-3.9445,-3.9859,0.0,-3.6063,-3.2835,-3.1214,-2.9144,0.0,0.0,0.0,0.0,0.0,0.0,0.0,-3.8732,-4.1619,-4.3724,-4.5087,-4.5328,-4.4803,-4.331,-4.2275,-4.0422,-3.7547,-3.5525,-3.3179,-3.0369,-2.7888,0.0,0.0,0.0,0.0,0.0,0.0,0.0,0.0,0.0,0.0,0.0,0.0,0.0,0.0,0.0,0.0,0.0,0.0,0.0,0.0,0.0,0.0,0.0,0.0,0.0,0.0,0.0,0.0,0.0,-2.341,-2.5658,-2.5548,-2.5952,-2.5915,0.0,0.0,0.0,0.0,0.0,0.0,0.0,0.0,0.0,-3.6134,-3.8505,-4.0744,-4.2727,-4.5296,-4.6911,-4.7609,-4.9334,-5.0325,-5.0692,-5.1132,-5.1332,-5.1328,-5.1616,-5.0236,-4.7451,-4.3175,-3.9914,-3.7306,0.0,0.0,0.0,0.0,-3.2904,-3.4111,-3.6042,-3.6008,-3.5062,-3.4683,0.0,0.0,0.0,0.0,0.0,0.0,0.0,0.0,0.0,0.0,-4.0595,-4.0905,-4.1619,-4.2171,-4.2171,-4.0618,-3.8375,0.0,-3.3835,-3.1972,-2.9179,0.0,0.0,0.0,0.0,-3.5007,-3.8629,-4.1861,-4.4069,-4.4699,-4.5121,-4.4975,-4.3897,-4.3138,-4.1757,-3.9549,-3.7581,-3.549,-3.3317,-3.0574,-2.8027,0.0,0.0,0.0,0.0,0.0,0.0,0.0,0.0,0.0,0.0,0.0,0.0,0.0,0.0,0.0,0.0,0.0,0.0,0.0,0.0,0.0,0.0,0.0,0.0,0.0,0.0,0.0,0.0,-2.6686,-2.8741,-2.873,-2.9475,-2.9549,0.0,0.0,0.0,0.0,0.0,0.0,-3.4124,-3.6707,-3.9056,-4.1075,-4.3461,-4.5406,-4.6838,-4.9884,-5.1426,-5.1463,-5.3665,-5.4693,-5.473,-5.5317,-5.5596,-5.5596,-5.5596,-5.5244,-5.4268,-4.8762,-4.5103,-4.2663,-3.9797,-3.8257,-3.7752,-3.7567,-3.8112,-3.925,-4.1319,-4.1423,-4.056,-4.0008,-3.8249,-3.6042,-3.4352,0.0,0.0,0.0,0.0,-3.7284,-3.8858,-4.1181,-4.3182,-4.3182,-4.3768,-4.4345,-4.4345,-4.4207,-4.3,0.0,-3.7698,-3.5939,-3.2938,0.0,0.0,0.0,0.0,-3.6663,-3.9146,-4.2309,-4.438,-4.4561,-4.5079,-4.5113,-4.438,-4.3793,-4.2758,-4.0998,-3.9134,-3.7305,-3.5559,-3.2934,-3.0418,-2.8113,0.0,0.0,0.0,0.0,0.0,0.0,0.0,0.0,0.0,0.0,0.0,0.0,0.0,0.0,0.0,0.0,0.0,0.0,0.0,0.0,0.0,0.0,0.0,0.0,0.0,0.0,0.0,0.0,0.0,-3.4307,-3.5349,0.0,0.0,0.0,0.0,-3.3476,-3.6486,-3.8358,-3.8395,-4.1405,-4.3534,-4.4434,-4.6801,-4.8489,-4.9427,-5.1867,-5.3078,-5.3093,-5.473,-5.5559,-5.5559,-5.5596,-5.5596,-5.5596,-5.5596,-5.5596,-5.539,-5.3534,-5.1611,-4.9607,-4.6493,-4.5588,-4.5823,-4.4371,-4.4768,-4.632,-4.781,-4.7396,-4.6182,-4.6148,-4.3113,-3.9457,-3.9353,-3.8249,0.0,0.0,-4.1032,-4.2033,-4.3552,-4.5147,-4.6389,-4.6389,-4.6941,-4.7493,-4.7493,-4.6941,-4.5527,0.0,-3.9974,-3.818,-3.7305,0.0,-3.3421,-3.5663,-3.6822,-3.8479,-4.1447,-4.3276,-4.4561,-4.5259,-4.5363,-4.5113,-4.438,-4.4276,-4.3276,-4.1032,-4.0101,-3.8594,-3.6353,-3.4731,-3.2815,-3.0469,-2.8131,0.0,0.0,0.0,0.0,0.0,0.0,0.0,0.0,0.0,0.0,0.0,0.0,0.0,0.0,0.0,0.0,0.0,0.0,0.0,0.0,0.0,0.0,0.0,0.0,0.0,0.0,0.0,0.0,-3.7169,-3.8579,0.0,-3.8563,-3.849,-3.8946,-3.9974,-4.258,-4.4324,-4.4856,-4.7462,-4.9334,-5.0141,-5.2013,-5.3151,-5.3466,-5.484,-5.5537,-5.5537,-5.6638,-5.7152,-5.7152,-5.7152,-5.7152,-5.7152,-5.7152,-5.7152,-5.7079,-5.6528,-5.4561,-5.1763,-4.9839,-4.8803,-4.8318,-4.7422,-4.7361,-4.7961,-4.9347,-4.8785,-4.7353,-4.6796,-4.4803,-4.2654,-4.2654,-4.1964,-4.1447,-4.2723,-4.363,-4.4458,-4.5492,-4.6562,-4.7293,-4.7293,-4.75,-4.7569,-4.7113,-4.6362,-4.55,-4.4397,-4.3147,-4.1861,-4.0618,-3.91,-3.8318,-3.9134,-3.9928,-4.0963,-4.2585,-4.4078,-4.5113,-4.5363,-4.5397,-4.5294,-4.5044,-4.501,-4.4251,-4.2482,-4.117,-3.9664,-3.7836,-3.6318,-3.4456,-3.2142,-3.0315,-2.7736,0.0,0.0,0.0,0.0,0.0,0.0,0.0,0.0,0.0,0.0,0.0,0.0,0.0,0.0,0.0,0.0,0.0,0.0,0.0,0.0,0.0,0.0,0.0,0.0,0.0,-3.4431,-3.8212,-4.0084,-4.1735,-4.2599,-4.2343,-4.2563,-4.3167,-4.4232,-4.6581,-4.8196,-4.871,-5.0545,-5.1977,-5.2784,-5.4106,-5.4913,-5.517,-5.6271,-5.6822,-5.6822,-5.7629,-5.7997,-5.7997,-5.7997,-5.7997,-5.7997,-5.7997,-5.7997,-5.7997,-5.7997,-5.6598,-5.4383,-5.3362,-5.2546,-5.1835,-5.1047,-5.0717,-5.0637,-5.0802,-5.0209,-4.9186,-4.8107,-4.7044,-4.6217,-4.6217,-4.5898,-4.5622,-4.6105,-4.6596,-4.7052,-4.7631,-4.8114,-4.8493,-4.8493,-4.8493,-4.8286,-4.7527,-4.6535,-4.5707,-4.5466,-4.4596,-4.369,-4.293,-4.1964,-4.1378,-4.1654,-4.2102,-4.2689,-4.3483,-4.463,-4.5397,-4.5397,-4.5397,-4.5294,-4.5044,-4.5044,-4.4285,-4.2516,-4.1205,-3.9802,-3.8306,-3.6973,-3.5352,-3.3352,-3.1021,-2.832,-2.5232,0.0,0.0,0.0,0.0,0.0,0.0,0.0,0.0,0.0,0.0,0.0,0.0,0.0,0.0,0.0,0.0,0.0,0.0,0.0,0.0,0.0,0.0,0.0,-3.2509,-3.6964,-4.0928,-4.3331,-4.5039,-4.5736,-4.4966,-4.5626,-4.6104,-4.6104,-4.8362,-4.9721,-4.9684,-5.0435,-5.1206,-5.1977,-5.2821,-5.3628,-5.4436,-5.6051,-5.6859,-5.6859,-5.7629,-5.7997,-5.7997,-5.7997,-5.7997,-5.7997,-5.7997,-5.7997,-5.7997,-5.7997,-5.7927,-5.775,-5.7302,-5.704,-5.6753,-5.558,-5.5026,-5.4595,-5.2488,-5.1975,-5.2011,-5.0592,-5.0109,-5.0109,-5.0074,-5.0074,-5.0074,-5.004,-5.0005,-5.0005,-5.0005,-4.9976,-4.9976,-5.0011,-5.0011,-4.9804,-4.8947,-4.7638,-4.6389,-4.5569,-4.4251,-4.3483,-4.4173,-4.3103,-4.2378,-4.3138,-4.3276,0.0,-4.4242,-4.4975,-4.5397,-4.5397,-4.5397,-4.5113,-4.438,-4.4311,-4.3345,-4.1032,-4.0112,-3.9008,-3.7512,-3.6697,-3.5594,-3.413,-3.0333,-2.755,-2.5913,0.0,0.0,0.0,0.0,0.0,0.0,0.0,0.0,0.0,0.0,0.0,0.0,0.0,0.0,0.0,0.0,0.0,0.0,0.0,0.0,0.0,-3.2742,-3.5656,-3.6097,-4.0304,-4.4085,-4.5883,-4.8086,-4.937,-4.915,-4.9848,-5.0325,-5.0325,-5.205,-5.2564,-5.1389,-5.2087,-5.238,-5.2013,-5.3335,-5.4473,-5.5244,-5.6859,-5.7666,-5.7666,-5.7886,-5.7997,-5.7997,-5.7997,-5.7997,-5.7997,-5.7997,-5.7997,-5.7997,-5.7997,-5.7973,-5.7927,-5.7583,-5.7388,-5.7155,-5.6133,-5.5486,-5.4892,-5.3537,-5.3352,-5.3556,-5.2641,-5.2326,-5.2221,-5.1633,-5.1459,-5.1354,-5.0732,-5.0208,-4.9901,-5.0314,-4.9924,-4.9541,-5.0039,-5.0063,-4.9804,-4.8947,-4.7638,-4.6527,-4.6293,-4.5466,-4.4699,-4.438,-4.4389,-4.4535,-4.4768,-4.4803,0.0,-4.5079,-4.5259,-4.5397,-4.5397,-4.5397,-4.5113,-4.438,-4.4311,-4.3345,-4.1032,-3.9629,-3.8215,-3.6697,-3.6422,-3.5594,-3.413,-3.0851,-2.8355,0.0,0.0,0.0,0.0,0.0,0.0,0.0,0.0,0.0,0.0,0.0,0.0,0.0,0.0,0.0,0.0,0.0,0.0,0.0,0.0,0.0,0.0,-3.7052,-4.0393,-4.1368,-4.3938,-4.6159,-4.7443,-4.9517,-5.0802,-5.0802,-5.1536,-5.1977,-5.1977,-5.3482,-5.3849,-5.2564,-5.2637,-5.2637,-5.2527,-5.3408,-5.4436,-5.5574,-5.7189,-5.7997,-5.7997,-5.7997,-5.7997,-5.7997,-5.7997,-5.7997,-5.7997,-5.7997,-5.7997,-5.7997,-5.7997,-5.7997,0.0,0.0,0.0,0.0,0.0,-5.5944,-5.5343,-5.4373,-5.4296,-5.4528,-5.3776,-5.3529,-5.3387,-5.2581,-5.2095,-5.1644,-5.0866,-4.9816,-4.9094,-4.974,-4.9398,-4.9052,-4.9708,-4.9935,-4.9804,-4.8947,-4.7879,-4.6975,-4.6665,-4.6224,0.0,-4.532,-4.563,-4.588,-4.588,-4.5604,-4.5397,-4.5397,-4.5397,-4.5397,-4.5397,-4.5397,-4.5113,-4.438,-4.4035,0.0,0.0,0.0,-3.7905,-3.6353,-3.6008,0.0,0.0,0.0,0.0,0.0,0.0,0.0,0.0,-2.7844,-2.863,0.0,0.0,0.0,0.0,0.0,0.0,0.0,0.0,0.0,0.0,0.0,0.0,0.0,0.0,0.0,0.0,-4.1201,-4.4562,-4.6892,-4.748,-4.792,-4.8636,-5.0178,-5.1206,-5.1206,-5.194,-5.2417,-5.2417,-5.3812,-5.4289,-5.3408,0.0,0.0,0.0,0.0,-5.4069,-5.5574,-5.7189,-5.7997,-5.7997,-5.7997,-5.7997,-5.7997,-5.7997,-5.7997,-5.7997,-5.7997,-5.7997,-5.7997,-5.7997,-5.7997,-5.7997,-5.7997,-5.7997,-5.7923,-5.7075,-5.6465,-5.5981,-5.5195,0.0,0.0,-5.4542,-5.4353,-5.421,-5.3396,-5.2595,-5.1783,-5.0997,-4.9579,-4.8473,-4.9172,-4.8978,-4.8758,-4.9415,-4.9827,-4.9861,-4.9108,-4.8383,-4.7658,-4.7003,-4.6872,-4.6872,-4.6872,-4.6734,-4.6596,-4.6596,-4.5914,-4.5397,-4.5397,-4.5397,-4.5397,-4.5397,-4.5397,0.0,-4.438,-4.369,-4.2654,-4.1136,-3.9514,-3.7939,-3.649,-3.5732,-3.5352,-3.5456,-3.4042,-3.3279,-3.3304,-3.3427,-3.3874,-3.461,-3.2307,-3.2361,0.0,0.0,0.0,0.0,0.0,0.0,0.0,0.0,0.0,0.0,0.0,0.0,0.0,0.0,0.0,-3.9827,-4.324,-4.6067,-4.7829,-4.9774,-5.1096,-5.1279,-5.2711,-5.3702,-5.3702,-5.4436,-5.4876,-5.4876,-5.5794,-5.5721,-5.4252,-5.4032,-5.3702,-5.3225,-5.3849,-5.462,-5.5574,-5.7189,-5.7997,-5.7997,0.0,0.0,-5.7997,-5.7997,-5.7997,-5.7997,-5.7997,-5.7997,-5.7997,-5.7997,-5.7997,-5.7997,-5.7997,-5.7997,-5.796,-5.7674,-5.7436,-5.7231,-5.6927,-5.6851,-5.6747,-5.6628,-5.6592,-5.6447,-5.5652,-5.4821,0.0,-5.3231,-5.1834,-5.0754,-5.1371,-5.0585,-4.987,-5.0541,-5.0507,-5.0278,-5.0139,-4.9514,-4.8931,-4.8682,-4.8473,-4.8361,-4.8361,-4.7389,-4.6596,-4.6596,-4.5914,-4.5397,-4.5397,-4.5397,-4.5397,-4.5397,-4.5397,-4.5113,-4.438,-4.4173,-4.3448,-4.1895,-3.979,-3.8203,-3.7305,-3.649,-3.6387,-3.7064,-3.6111,-3.5897,-3.641,-3.7115,-3.8148,-3.9318,-3.6466,-3.5752,0.0,0.0,0.0,0.0,0.0,0.0,0.0,0.0,0.0,0.0,0.0,-3.2045,-3.4077,0.0,-4.0084,-4.2489,-4.5626,-4.8159,-4.937,-5.1646,-5.2894,-5.2087,-5.3408,-5.4399,-5.4399,-5.5133,-5.5596,-5.5596,-5.6345,-5.6271,-5.506,-5.4987,-5.4803,-5.4399,-5.4803,-5.539,-5.6198,-5.7409,-5.7997,-5.7997,-5.7997,-5.7997,-5.7997,-5.7997,-5.7997,-5.7997,-5.7997,-5.7997,-5.7997,-5.7997,-5.7997,-5.7997,-5.7997,-5.7997,-5.7997,-5.7927,-5.7857,-5.781,-5.7703,-5.7667,-5.7583,-5.7583,-5.7583,-5.7437,-5.6635,-5.5832,-5.503,-5.425,-5.2864,-5.1777,-5.2331,-5.1323,-5.0388,-5.1118,-5.0937,-5.0647,-5.0667,-5.036,-5.0033,-4.9896,-4.9589,-4.9424,-4.9424,-4.8459,-4.7672,-4.7672,-4.6707,-4.5983,-4.5983,-4.5638,-4.5535,-4.5949,-4.5983,-4.5872,-4.5458,-4.476,-4.3655,-4.2102,-4.0929,-3.9963,-3.9238,-3.8824,-3.8767,-3.9203,-3.8824,-3.8779,-3.9112,-3.9882,-4.064,-4.1316,-4.0214,-3.9951,0.0,0.0,0.0,0.0,0.0,0.0,0.0,-2.8962,-2.9707,-3.2278,-3.4504,-3.6523,-3.8337,-4.0891,-4.3277,-4.4911,-4.7645,-4.9867,-5.0692,-5.2747,-5.3702,-5.238,-5.3775,-5.4876,-5.4876,-5.5574,-5.6073,-5.6073,-5.6675,-5.6748,-5.6088,-5.6073,-5.6073,-5.6073,-5.6073,-5.6381,-5.7042,-5.7666,-5.7997,-5.7997,-5.7997,-5.7997,-5.7997,-5.7997,-5.7997,-5.7997,-5.7997,-5.7997,-5.7997,-5.7997,-5.7997,-5.7997,-5.7997,-5.7997,-5.7997,-5.7997,-5.7997,-5.7997,-5.7997,-5.7997,-5.7997,-5.7997,-5.7997,-5.7886,-5.7226,-5.6455,-5.5684,-5.506,-5.3812,-5.2779,-5.3164,-5.2232,-5.1354,-5.1997,-5.1757,-5.1405,-5.137,-5.1229,-5.1005,-5.0702,-5.0285,-5.0011,-5.0011,-4.9459,-4.8982,-4.881,-4.7534,-4.6596,-4.6596,-4.588,-4.5638,-4.632,-4.6527,-4.6596,-4.6596,-4.5458,-4.4104,-4.2551,-4.2447,-4.2137,-4.1378,-4.1343,-4.1343,-4.1343,-4.1343,-4.1412,-4.155,-4.2171,-4.2492,-4.2664,-4.3345,-4.3483,-2.24,-2.3749,-2.6649,-2.9072,-3.021,-3.114,0.0,-3.3109,-3.4027,-3.7221,-3.8652,-4.0047,-4.2413,-4.3718,-4.4948,-4.6562,-4.8343,-4.9811,-5.0692,-5.227,-5.3298,-5.3115,-5.5133,-5.6528,-5.6528,-5.7262,-5.774,-5.774,-5.7813,-5.7813,-5.774,-5.774,-5.774,-5.774,-5.774,-5.7776,-5.785,-5.796,-5.7997,-5.7997,-5.7997,-5.7997,-5.7997,-5.7997,-5.7997,-5.7997,-5.7997,-5.7997,-5.7997,-5.7997,-5.7997,-5.7997,-5.7997,-5.7997,-5.7997,-5.7997,-5.7997,-5.7997,-5.7997,-5.7997,-5.7997,-5.7997,-5.7997,-5.796,-5.7886,-5.7299,-5.6638,-5.6565,-5.5904,-5.5163,-5.4989,-5.4436,-5.3983,-5.4162,-5.3897,-5.345,-5.2834,-5.2439,-5.1927,-5.097,-5.0376,-5.0011,-5.0011,-4.9942,-4.9631,-4.8913,-4.7534,-4.6596,-4.6596,-4.588,-4.5432,-4.55,-4.6155,-4.6596,-4.6596,-4.6458,-4.5665,-4.4138,-4.4035,-4.3724,-4.2965,-4.293,-4.293,-4.293,-4.293,-4.3276,-4.3931,-4.4,-4.4389,-4.5018,-4.5087,-4.4458,-2.7053,-2.8007,-3.0099,-3.2999,-3.4724,-3.6083,-3.7698,-3.8395,-3.9386,-4.1735,-4.3571,-4.4966,-4.5516,-4.6654,-4.7755,-4.8453,-4.9921,-5.1059,-5.1463,-5.3298,-5.4252,-5.3314,-5.4106,-5.4913,-5.5354,-5.6124,-5.6785,-5.7262,-5.774,-5.7997,-5.7997,-5.7997,-5.7997,-5.7997,-5.7997,-5.7997,-5.7997,-5.7997,-5.7997,-5.7997,-5.7997,-5.7997,-5.7997,-5.7997,-5.7997,-5.7997,-5.7997,-5.7997,-5.7997,-5.7997,-5.7997,-5.7997,-5.7997,-5.7997,-5.7997,-5.7997,-5.7997,-5.7997,-5.7997,-5.7997,-5.7997,-5.7997,-5.7997,-5.7997,-5.7997,-5.7776,-5.7483,-5.7483,-5.7262,-5.6946,-5.6762,-5.6043,-5.5388,-5.5473,-5.4952,-5.4395,-5.4143,-5.3314,-5.2465,-5.1865,-5.0795,-5.0011,-5.0011,-5.0011,-4.9907,-4.9562,-4.8596,-4.7879,-4.7879,-4.7189,-4.6879,-4.7327,-4.7672,-4.7879,-4.7879,-4.7113,-4.632,-4.5665,-4.5216,-4.4803,-4.4492,-4.4492,-4.4492,-4.4492,-4.4492,-4.463,-4.4941,-4.4941,-4.5113,-4.5397,-4.5397,-4.5052,-3.0283,-3.1458,-3.3146,-3.6193,-3.8358,-4.0047,-4.1442,-4.2396,-4.3351,-4.4745,-4.6434,-4.7535,-4.7186,-4.8086,-4.904,-4.9537,-5.0969,-5.1977,-5.1977,-5.3885,-5.4656,-5.3078,-5.2674,-5.2784,-5.3335,-5.4546,-5.5611,-5.6418,-5.7409,-5.7997,-5.7997,-5.7997,-5.7997,-5.7997,-5.7997,-5.7997,-5.7997,-5.7997,-5.7997,-5.7997,-5.7997,-5.7997,-5.7997,-5.7997,-5.7997,-5.7997,-5.7997,-5.8143,-5.8327,-5.8327,-5.8474,-5.8657,-5.8657,-5.8657,-5.8657,-5.8657,-5.8364,-5.7997,-5.7997,-5.7997,-5.7997,-5.7997,-5.7997,-5.7997,-5.7997,-5.7997,-5.7997,-5.7997,-5.7997,-5.7973,-5.7857,-5.7121,-5.6467,-5.6515,-5.5995,-5.5426,-5.5123,-5.4184,-5.3174,-5.244,-5.1207,-5.0252,-5.0045,-5.0011,-5.0011,-5.0011,-4.9528,-4.9051,-4.881,-4.8155,-4.7982,-4.8706,-4.881,-4.881,-4.881,-4.7603,-4.6837,-4.6631,-4.5845,-4.5397,-4.5397,-4.5397,-4.5397,-4.5397,-4.5397,-4.5397,-4.5397,-4.5397,-4.5397,-4.5397,-4.5397,-4.5397,-3.0503,-3.3146,-3.5555,-3.8028,-4.0414,-4.2396,-4.3258,-4.4048,-4.4856,-4.57,-4.592,-4.6214,-4.6966,-4.7149,-4.7719,-4.9353,-5.0969,-5.1977,-5.1977,-5.3408,-5.3849,-5.2234,-5.1353,-5.0875,-5.0912,-5.3041,-5.4766,-5.5596,-5.7079,-5.7997,-5.7997,-5.7997,-5.7997,-5.7997,-5.7997,-5.7997,-5.7997,-5.7997,-5.7997,-5.7997,-5.7997,-5.7997,-5.7997,-5.7997,-5.7997,-5.7997,-5.7997,-5.8437,-5.9148,-5.9148,-5.9625,-6.0346,-6.0346,-6.0346,-6.0346,-6.0346,-5.9355,-5.7997,-5.7997,-5.7997,-5.7997,-5.7997,-5.7997,-5.7997,-5.7997,-5.7997,-5.7997,-5.7997,-5.7997,-5.7973,-5.7857,-5.7679,-5.7498,-5.7376,-5.7351,-5.6998,-5.5836,-5.5195,-5.4267,-5.238,-5.1483,-5.0838,-5.0114,-5.0011,-5.0011,-5.0011,-4.9976,-4.97,-4.8879,-4.8155,-4.7982,-4.8706,-4.881,-4.881,-4.881,-4.8086,-4.7362,-4.6665,-4.5845,-4.5397,-4.5397,-4.5397,-4.5397,-4.5397,-4.5397,-4.5397,-4.5397,-4.5397,-4.5397,-4.5397,-4.5397,-4.5397,-3.2913,-3.5591,-3.8065,-4.0487,-4.291,-4.4892,-4.57,-4.6507,-4.7003,-4.6746,-4.6287,-4.614,-4.6966,-4.7113,-4.781,-5.0031,-5.2197,-5.3592,-5.3592,-5.4987,-5.5207,-5.3041,-5.2087,-5.1169,-5.0105,-5.1206,-5.2564,-5.3922,-5.55,-5.6638,-5.7189,-5.7703,-5.7997,-5.7997,-5.7997,-5.7997,-5.7997,-5.7997,-5.7997,-5.7997,-5.7997,-5.7997,-5.7997,-5.7997,-5.7997,-5.7997,-5.7997,-5.8474,-5.9184,-5.9184,-5.9661,-6.0419,-6.0419,-6.0419,-6.0419,-6.0419,-6.0052,-5.9612,-5.9612,-5.9612,-5.9501,-5.8988,-5.8804,-5.8694,-5.8143,-5.7997,-5.7997,-5.7997,-5.7997,-5.7997,-5.795,-5.7904,-5.7834,-5.7715,-5.7437,-5.7054,-5.6433,-5.5319,-5.4204,-5.3526,-5.2155,-5.1045,-5.0769,-5.0321,-5.0011,-5.0011,-5.0011,-4.9907,-4.9631,-4.939,-4.9321,-4.9597,-4.9597,-4.9597,-4.9597,-4.8879,-4.8327,-4.8051,-4.7327,-4.6914,-4.6914,-4.6914,-4.6914,-4.6914,-4.6914,-4.6914,-4.6914,-4.6914,-4.6914,-4.6914,-4.6914,-4.6914,-3.5371,-3.8123,-4.0487,-4.2616,-4.4745,-4.6452,-4.6966,-4.748,-4.7553,-4.6452,-4.5149,-4.4452,-4.5241,-4.5388,-4.6269,-4.904,-5.1756,-5.3555,-5.3555,-5.495,-5.517,-5.3041,-5.2307,-5.1463,-5.0141,-5.0251,-5.1022,-5.2637,-5.4252,-5.5647,-5.6748,-5.7556,-5.7997,-5.7997,-5.7997,-5.7997,-5.7997,-5.7997,-5.7997,-5.7997,-5.7997,-5.7997,-5.7997,-5.7997,-5.7997,-5.7997,-5.7997,-5.8621,-5.9648,-5.9648,-6.0272,-6.1263,-6.1263,-6.1263,-6.1263,-6.1263,-6.1263,-6.119,-6.0603,-6.0419,-6.0309,-5.9795,-5.9404,-5.9074,-5.8584,-5.8217,-5.7997,-5.7997,-5.7997,-5.7997,-5.795,-5.7927,-5.7881,-5.7559,-5.7227,-5.6835,-5.6447,-5.5412,-5.4414,-5.3997,-5.2835,-5.1839,-5.1563,-5.0907,-5.039,-5.039,-5.0183,-5.0011,-5.0011,-5.0011,-5.0011,-5.0011,-5.0011,-5.0011,-5.0011,-4.9258,-4.881,-4.881,-4.8086,-4.7672,-4.7672,-4.7672,-4.7672,-4.7672,-4.7672,-4.7672,-4.7672,-4.7672,-4.7672,-4.7672,-4.7672,-4.7672,-3.7808,-4.0671,-4.291,-4.4452,-4.6012,-4.7149,-4.7113,-4.7113,-4.6636,-4.4929,-4.2599,-4.1168,-4.2029,-4.2139,-4.3204,-4.6489,-4.9848,-5.2013,-5.205,-5.3445,-5.3885,-5.2307,-5.2123,-5.1793,-5.0949,-5.0105,-5.0345,-5.194,0.0,-5.506,-5.6638,-5.7556,-5.7997,-5.7997,-5.7997,-5.7997,-5.7997,-5.7997,-5.7997,-5.7997,-5.7997,-5.7997,-5.7997,-5.7997,-5.7997,-5.7997,-5.7997,-5.8914,-6.0419,-6.0419,-6.1374,-6.278,-6.278,-6.278,-6.278,-6.278,-6.278,-6.256,-6.1043,-6.0529,-6.0529,-6.0493,-5.9942,-5.9294,-5.9258,-5.8731,-5.8107,-5.8107,-5.8107,-5.8084,-5.793,-5.7847,-5.7704,-5.7112,-5.6793,-5.6474,-5.5786,-5.5413,-5.4869,-5.3836,-5.3483,-5.3149,-5.2326,-5.1632,-5.1149,-5.1114,-5.0528,-5.0045,-5.0011,-5.0011,-5.0011,-5.0011,-5.0011,-5.0011,-5.0011,-4.9292,-4.8844,-4.8844,-4.8189,-4.781,-4.781,-4.781,-4.781,-4.781,-4.781,-4.781,-4.781,-4.781,-4.781,-4.781,-4.781,-4.781,-4.0598,-4.3553,-4.5975,-4.6379,-4.7259,-4.7846,-4.7223,-4.7113,-4.6305,-4.3497,-4.0524,-3.8836,-4.023,-4.001,-4.1075,-4.548,-4.9481,-5.2197,-5.2821,-5.4289,-5.4913,-5.3922,-5.3775,-5.3225,-5.183,-5.0949,-5.1169,-5.2784,-5.3298,-5.4216,-5.5831,-5.7226,-5.7997,-5.7997,-5.7997,-5.7997,-5.7997,-5.7997,-5.7997,-5.7997,-5.7997,-5.7997,-5.7997,-5.7997,-5.7997,-5.7997,-5.7997,-5.8914,-6.0419,-6.0419,-6.1374,-6.278,-6.278,-6.278,-6.278,-6.278,-6.278,-6.2743,-6.2328,-6.2218,-6.2108,-6.1484,-6.1153,-6.0896,-6.0272,-5.9942,-5.9795,-5.9795,-5.9795,-5.9625,-5.8895,-5.8434,-5.7953,-5.6979,-5.6248,-5.5665,-5.5408,-5.4987,-5.4582,-5.4316,-5.3801,-5.3149,-5.2326,-5.2015,-5.1705,-5.1154,-5.0942,-5.0631,-5.008,-5.0011,-5.0011,-5.0011,-5.0011,-5.0011,-5.0011,-4.9804,-4.97,-4.97,-4.9528,-4.9424,-4.9424,-4.9424,-4.9424,-4.9424,-4.9424,-4.9424,-4.9424,-4.9424,-4.9424,-4.9424,-4.9424,-4.9424,-4.269,-4.5168,-4.7186,-4.7553,-4.77,-4.7553,-4.6746,-4.5755,-4.4177,-4.1332,-3.7845,-3.5826,-3.7441,-3.7698,-3.9019,-4.313,-4.7498,-5.0545,-5.0986,-5.2454,-5.3445,-5.3371,-5.3335,-5.3115,-5.2564,-5.1793,-5.1977,-5.3628,-5.3387,-5.4069,-5.6014,-5.7299,-5.7997,-5.7997,-5.7997,-5.7997,-5.7997,-5.7997,-5.7997,-5.7997,-5.7997,-5.7997,-5.7997,-5.7997,-5.7997,-5.7997,-5.7997,-5.8914,-6.0419,-6.0419,-6.1374,-6.278,-6.278,-6.278,-6.278,-6.278,-6.278,-6.278,-6.278,-6.278,-6.2732,-6.2291,-6.1887,-6.152,-6.1043,-6.0676,-6.0419,-6.0419,-6.0419,-6.0261,-5.9591,-5.883,-5.8021,-5.7164,-5.6142,-5.5254,-5.5083,-5.4745,-5.4494,-5.4494,-5.4184,-5.3736,-5.3322,-5.2942,-5.2597,-5.2183,-5.1839,-5.1459,-5.1045,-5.0424,-5.0011,-5.0011,-5.0011,-5.0011,-5.0011,-5.0011,-5.0011,-5.0011,-5.0011,-5.0011,-5.0011,-5.0011,-5.0011,-5.0011,-5.0011,-5.0011,-5.0011,-5.0011,-5.0011,-5.0011,-5.0011,-5.0011,-4.4397,-4.6122,-4.7406,-4.7993,-4.7626,-4.6819,-4.5663,-4.3644,-4.1222,-3.8579,-3.4908,-3.2656,-3.438,-3.5385,-3.7074,-4.0545,-4.5058,-4.8196,-4.8269,-4.9664,-5.0949,-5.1756,-5.183,-5.216,-5.2968,-5.2527,-5.2821,-5.4436,-5.3922,-5.4473,-5.6675,-5.7556,-5.7997,-5.7997,-5.7997,-5.7997,-5.7997,-5.7997,-5.7997,-5.7997,-5.7997,-5.7997,-5.7997,-5.7997,-5.7997,-5.7997,-5.7997,-5.8914,-6.0419,-6.0419,-6.1374,-6.278,-6.278,-6.278,-6.278,-6.278,-6.278,-6.278,-6.278,-6.278,-6.278,-6.278,-6.2328,-6.1741,-6.1741,-6.1263,-6.0713,-6.0713,-6.0713,-6.064,-6.0247,-5.9294,-5.8206,-5.7448,-5.6247,-5.5157,-5.4811,-5.4623,-5.4494,-5.4494,-5.4494,-5.4494,-5.4494,-5.3977,-5.3529,-5.3425,-5.2804,-5.2291,-5.2188,-5.108,-5.0287,-5.0287,-5.0287,-5.0287,-5.0287,-5.0287,-5.0252,-5.0149,-5.0149,-5.0114,-5.0011,-5.0011,-5.0011,-5.0011,-5.0011,-5.0011,-5.0011,-5.0011,-5.0011,-5.0011,-5.0011,-5.0011,-4.6195,-4.7369,-4.7957,-4.7443,-4.7186,-4.6379,-4.3571,-4.1552,-3.9239,-3.5422,-3.1959,-3.0308,-3.2583,-3.3683,-3.5752,-4.0361,-4.4581,-4.7553,-4.8233,-4.915,-5.0105,-5.0912,-5.1022,-5.1316,-5.2123,-5.2674,-5.3665,-5.5244,-5.5244,-5.5647,-5.6748,-5.7556,-5.7997,-5.7997,-5.7997,-5.7997,-5.7997,-5.7997,-5.7997,-5.7997,-5.7997,-5.7997,-5.7997,-5.7997,-5.7997,-5.7997,-5.7997,0.0,-6.0419,-6.0419,-6.1374,-6.278,-6.278,-6.278,-6.278,-6.278,-6.278,-6.278,-6.278,-6.278,-6.278,-6.278,-6.2732,-6.2585,-6.2585,-6.2511,-6.2401,-6.2401,-6.2401,-6.218,-6.1233,-6.0278,-5.9116,-5.7526,-5.6304,-5.5349,-5.4695,-5.4494,-5.4494,-5.4494,-5.4494,-5.4494,-5.4494,-5.4391,-5.4115,-5.3494,-5.3287,-5.2977,-5.2291,-5.1981,-5.1808,-5.1808,-5.1808,-5.1808,-5.1808,-5.1808,-5.1563,-5.0976,-5.0907,-5.0666,-5.0045,-5.0011,-5.0011,-5.0011,-5.0011,-5.0011,-5.0011,-5.0011,-5.0011,-5.0011,-5.0011,-5.0011,-4.6782,-4.77,-4.8122,-4.7296,-4.6452,-4.5021,-4.1772,-3.9129,-3.634,-3.2669,-2.9684,-2.8363,-3.0344,-3.1751,-3.388,-3.7955,-4.1992,-4.4892,-4.57,-4.6874,-4.8122,-4.937,-4.9884,-5.0618,-5.1867,-5.2747,-5.3885,-5.5464,-5.5596,-5.6124,-5.7373,-5.7776,-5.7997,-5.7997,-5.7997,-5.7997,-5.7997,-5.7997,-5.7997,-5.7997,-5.7997,-5.7997,-5.7997,-5.7997,-5.7997,-5.7997,-5.7997,-5.8914,-6.0419,-6.0419,-6.1374,-6.278,-6.278,-6.278,-6.278,-6.278,-6.278,-6.278,-6.278,-6.278,-6.278,-6.278,-6.278,-6.278,-6.278,-6.278,-6.278,-6.2705,-6.2705,-6.253,-6.1686,-6.0588,-5.9419,-5.8295,-5.6788,-5.5426,-5.4667,-5.4494,-5.4494,-5.4494,-5.4494,-5.4494,-5.4494,-5.4494,-5.4391,-5.4046,-5.3977,-5.3839,-5.346,-5.3425,-5.3115,-5.2291,-5.2188,-5.2188,-5.2188,-5.2188,-5.1877,-5.1149,-5.1114,-5.0769,-5.0045,-5.0011,-5.0011,-5.0011,-5.0011,-5.0011,-5.0011,-5.0011,-5.0011,-5.0011,-5.0011,-5.0011,-4.7076,-4.781,-4.8012,-4.6856,-4.5388,-4.324,-3.968,-3.634,-3.3096,-3.0051,-2.764,-2.6565,-2.818,-2.9659,-3.1764,-3.5202,-3.9019,-4.1919,-4.3057,-4.4635,-4.625,-4.7865,-4.8746,-4.9884,-5.1573,-5.2637,-5.3812,-5.5207,-5.5647,-5.6492,-5.7923,-5.7997,-5.7997,-5.7997,-5.7997,-5.7997,-5.7997,-5.7997,-5.7997,-5.7997,-5.7997,-5.7997,-5.7997,-5.7997,-5.7997,-5.7997,-5.7973,-5.8757,-6.0114,-6.0274,-6.119,-6.2535,-6.2682,-6.278,-6.278,-6.278,-6.278,-6.278,-6.278,-6.278,-6.278,-6.278,-6.278,-6.278,-6.278,-6.278,-6.2755,-6.2629,-6.2552,-6.2308,-6.1795,-6.0668,-5.9517,-5.885,-5.7091,-5.546,-5.4874,-5.4632,-5.4494,-5.4494,-5.4494,-5.4494,-5.4494,-5.4494,-5.4494,-5.4494,-5.4494,-5.4494,-5.4494,-5.4494,-5.4046,-5.2839,-5.267,-5.267,-5.267,-5.267,-5.236,-5.1666,-5.1597,-5.1287,-5.0493,-5.0493,-5.0493,-5.0493,-5.0493,-5.0493,-5.0493,-5.0493,-5.0493,-5.0493,-5.0493,-5.0493,-4.7792,-4.8233,-4.7755,-4.5498,-4.3718,-4.1295,-3.6597,-3.2999,-2.9953,-2.7446,-2.5585,-2.4924,-2.6528,-2.753,-2.945,-3.3403,-3.6853,-3.9827,-4.2103,-4.3791,-4.5388,-4.7003,-4.7939,-4.9077,-5.0765,-5.2307,-5.3555,-5.4436,-5.5868,-5.7079,-5.796,-5.7997,-5.7997,-5.7997,-5.7997,-5.7997,-5.7997,-5.7997,-5.7997,-5.7997,-5.7997,-5.7997,-5.7997,-5.7997,-5.7997,-5.7997,-5.7881,-5.8346,0.0,-5.9797,-6.0626,-6.1604,-6.2336,-6.2679,-6.278,-6.278,-6.278,-6.278,-6.278,-6.278,-6.278,-6.278,-6.278,-6.278,-6.278,-6.278,-6.2755,-6.2629,-6.2308,-6.1897,-6.16,-6.0741,-5.9625,-5.8314,-5.6769,-5.5598,-5.5529,-5.4977,-5.4494,-5.4494,-5.4494,-5.4494,-5.4494,-5.4494,-5.4494,-5.4494,-5.4494,-5.4494,-5.4494,-5.4494,-5.446,-5.4322,-5.4287,-5.4287,-5.4287,-5.4287,-5.3977,-5.3253,-5.3184,-5.2839,-5.2015,-5.1981,-5.1981,-5.1981,-5.1981,-5.1981,-5.1981,-5.1981,-5.1981,-5.1981,-5.1981,-5.1981,-4.7003,-4.792,-4.7719,-4.5278,-4.313,-4.0304,-3.5422,-3.1812,-2.8803,-2.6392,-2.4961,-2.452,-2.5668,-2.6539,-2.8081,-3.1127,-3.3954,-3.6597,-3.9071,-4.1222,-4.3113,-4.4745,-4.6507,-4.803,-4.9187,-5.1242,-5.3004,-5.4289,-5.5904,-5.6932,-5.7262,-5.774,-5.7997,-5.7997,-5.7997,-5.7997,-5.7997,-5.7997,-5.7997,-5.7997,-5.7997,-5.7997,-5.7997,-5.7997,-5.7997,-5.7997,-5.7881,-5.8093,0.0,-5.899,-5.99,-6.109,-6.1573,-6.2189,-6.278,-6.278,-6.278,-6.278,-6.278,-6.278,-6.278,-6.278,-6.278,-6.278,-6.278,-6.278,-6.2755,-6.2526,-6.2149,-6.1676,-6.1198,-6.0321,-5.9276,-5.8182,-5.7426,-5.6736,-5.5805,-5.5391,-5.5046,-5.4598,-5.4494,-5.4494,-5.4494,-5.4494,-5.4494,-5.4494,-5.4494,-5.4494,-5.4494,-5.4494,-5.4494,-5.4494,-5.4494,-5.4494,-5.4494,-5.4494,-5.4184,-5.346,-5.3391,-5.3046,-5.2222,-5.2188,-5.2188,-5.2188,-5.2188,-5.2188,-5.2188,-5.2188,-5.2188,-5.2188,-5.2188,-5.2188,-4.5369,-4.6801,-4.6948,-4.4305,-4.1645,-3.8469,-3.3807,-3.0246,-2.7383,-2.5448,-2.4603,-2.4373,-2.4934,-2.5511,-2.6686,-2.9108,-3.1311,-3.366,-3.6376,-3.8872,-4.1001,-4.2616,-4.4709,-4.6526,-4.781,-5.0398,-5.2564,-5.3959,-5.5537,-5.6455,-5.6455,-5.7446,-5.7997,-5.7997,-5.7997,-5.7997,-5.7997,-5.7997,-5.7997,-5.7997,-5.7997,-5.7997,-5.7997,-5.7973,-5.795,-5.7927,-5.7655,-5.7654,0.0,-5.8172,-5.8957,-6.0033,-6.0742,-6.1547,-6.235,-6.2606,-6.2705,-6.273,-6.273,-6.2755,-6.278,-6.278,-6.278,-6.278,-6.278,-6.278,-6.273,-6.2485,-6.1906,-6.1192,-6.0477,-5.9714,-5.9045,-5.8391,-5.8081,-5.7598,-5.6529,-5.6115,-5.5805,-5.5288,-5.5012,-5.4839,-5.4839,-5.4667,-5.4494,-5.4494,-5.4494,-5.4494,-5.4494,-5.4494,-5.4494,-5.4494,-5.4494,-5.4494,-5.4494,-5.4494,-5.4287,-5.377,-5.3736,-5.3494,-5.2877,-5.2908,-5.2908,-5.2908,-5.2908,-5.2908,-5.2908,-5.2908,-5.2908,-5.2908,-5.2908,-5.2908,-4.289,-4.4709,-4.5149,-4.1939,-3.8726,-3.5275,-3.1164,-2.7761,-2.5191,-2.4373,-2.419,-2.419,-2.419,-2.4226,-2.5034,-2.742,-2.9182,-3.1347,-3.4564,-3.7169,-3.9313,-4.0912,-4.2543,-4.4488,-4.6892,-5.0068,-5.2344,-5.313,-5.4693,0.0,-5.5611,-5.7116,-5.7997,-5.7997,-5.7997,-5.7997,-5.7997,-5.7997,-5.7997,-5.7997,-5.7997,-5.7997,-5.7997,-5.7881,-5.781,-5.7786,-5.7239,-5.6907,0.0,-5.7342,-5.7782,-5.8196,-5.9944,-6.0854,-6.1303,-6.2105,-6.2475,-6.2603,-6.2603,-6.2679,-6.278,-6.278,-6.278,-6.278,-6.278,-6.278,-6.273,-6.2485,-6.1479,-6.0286,-5.9283,-5.9012,-5.9012,-5.9012,-5.8426,-5.7909,-5.7874,-5.7288,-5.6771,-5.6771,-5.615,-5.5598,-5.5598,-5.4977,-5.4494,-5.4494,-5.4494,-5.4494,-5.4494,-5.4494,-5.4494,-5.4494,-5.4494,-5.4494,-5.4494,-5.4494,-5.4494,-5.4494,-5.4494,-5.4494,-5.4494,-5.4494,-5.4494,-5.4494,-5.4494,-5.4494,-5.4494,-5.4494,-5.4494,-5.4494,-5.4494,-5.4494,-3.957,-4.1405,-4.1992,-3.9313,-3.6597,-3.3697,-3.0161,-2.731,-2.5154,-2.4373,-2.419,-2.419,-2.419,-2.419,-2.4814,-2.6686,-2.786,-2.9879,-3.366,-3.6303,-3.8689,-4.0838,-4.3497,-4.6324,-4.9334,0.0,-5.1977,-5.3885,-5.4987,-5.5831,-5.6381,-5.7409,-5.7997,-5.7997,-5.7997,-5.7997,-5.7997,-5.7997,-5.7997,-5.7997,-5.7997,-5.7997,-5.7997,-5.7881,-5.7631,-5.7327,-5.6948,-5.6412,-5.5837,-5.6155,-5.6573,-5.7127,-5.7918,-5.9051,-6.0292,-6.0774,-6.1462,-6.2176,-6.2397,-6.2603,-6.278,-6.278,-6.278,-6.278,-6.278,-6.278,-6.2592,-6.164,-6.095,-6.0286,-5.9249,-5.9012,-5.9012,-5.9012,-5.884,-5.853,-5.8012,-5.7736,-5.7391,-5.6909,-5.6598,-5.6253,-5.5669,-5.5426,-5.5081,-5.4598,-5.4494,-5.4494,-5.4494,-5.4494,-5.4494,-5.4494,-5.4494,-5.4494,-5.4494,-5.4494,-5.4494,-5.4494,-5.4494,-5.4494,-5.4494,-5.4494,-5.4494,-5.4494,-5.4494,-5.4494,-5.4494,-5.4494,-5.4494,-5.4494,-5.4494,-5.4494,-3.5018,-3.711,-3.7845,-3.573,-3.3587,-3.1311,-2.8693,-2.6465,-2.4824,-2.43,-2.419,-2.419,-2.419,-2.419,-2.463,-2.5952,-2.6833,-2.8631,-3.2375,-3.5289,-3.8395,-4.2012,-4.5039,-4.7719,0.0,-5.0875,-5.2123,-5.4252,-5.5133,-5.5941,-5.6748,-5.7556,-5.7997,-5.7997,-5.7997,-5.7997,-5.7997,-5.7997,-5.7997,-5.7997,-5.7997,-5.7997,-5.7997,-5.781,-5.7449,-5.7015,-5.6625,-5.6063,0.0,-5.5413,-5.5694,-5.6145,-5.6694,-5.7836,-5.9293,-5.9903,-6.0852,-6.1869,-6.2212,-6.2526,-6.278,-6.278,-6.278,-6.278,-6.278,-6.273,-6.2386,-6.1236,-6.0711,-6.0286,-5.9249,-5.9012,-5.9012,-5.9012,-5.9012,-5.8875,-5.8426,-5.8323,-5.8185,-5.7736,-5.7426,-5.7081,-5.6564,-5.6253,-5.5908,-5.546,-5.5115,-5.4943,-5.4943,-5.4667,-5.4494,-5.4494,-5.4494,-5.4494,-5.4494,-5.4494,-5.4494,-5.4494,-5.4494,-5.4494,-5.4494,-5.4494,-5.4494,-5.4494,-5.4494,-5.4494,-5.4494,-5.4494,-5.4494,-5.4494,-5.4494,-5.4494,0.0,-3.2045,-3.2999,-3.1544,-2.9989,-2.8436,-2.6859,-2.5328,0.0,-2.419,-2.419,-2.419,-2.419,-2.419,-2.4483,-2.5338,-2.6172,-2.786,-3.1213,-3.4688,-3.8909,-4.4287,-4.6985,-4.8746,-4.9591,-5.1096,-5.2674,-5.4289,-5.5097,-5.5868,-5.6675,-5.7409,-5.785,-5.7923,-5.7923,-5.7923,-5.7997,-5.7997,-5.7997,-5.7997,-5.7997,-5.7997,-5.7997,-5.7703,-5.7327,0.0,-5.6311,-5.5758,-5.5139,-5.5022,-5.5053,-5.5239,-5.612,-5.7133,-5.8213,-5.9313,-6.0533,-6.1704,-6.2078,-6.2449,-6.278,-6.278,-6.278,-6.278,-6.278,-6.2603,-6.2212,-6.1207,-6.0741,-6.0286,-5.9283,-5.9047,-5.9012,-5.9012,-5.9012,-5.9012,-5.9012,-5.9012,-5.9012,-5.9012,-5.8461,-5.7978,-5.7909,-5.7322,-5.6874,-5.6805,-5.6184,-5.5667,-5.5632,-5.5012,-5.4598,-5.4598,-5.4529,-5.4529,-5.4563,-5.4529,-5.4494,-5.4494,-5.4494,-5.4494,-5.4494,-5.4494,-5.4494,-5.4494,-5.4494,-5.4494,-5.4494,-5.4494,-5.4494,-5.4494,-5.4494,-5.4494,-2.452,0.0,-2.912,-2.8753,-2.7897,-2.6906,0.0,-2.4897,-2.419,-2.419,-2.419,-2.419,-2.419,-2.419,-2.4667,-2.6098,-2.6979,-2.9072,-3.3537,-3.9077,-4.3901,-4.7095,-4.8526,-4.9867,-5.1279,-5.1756,-5.2674,-5.4289,-5.4583,-5.5023,-5.5831,-5.6051,-5.6455,-5.7079,-5.7079,-5.7373,-5.7997,-5.7997,-5.7997,-5.7997,-5.7997,-5.7997,-5.7997,-5.7703,-5.7177,-5.6412,-5.6063,-5.5467,-5.4652,-5.462,-5.462,-5.4717,-5.4922,-5.5851,-5.7225,-5.8027,-5.9485,-6.1178,-6.1823,-6.237,-6.278,-6.278,-6.278,-6.278,-6.278,-6.2603,-6.2238,-6.1572,-6.1081,-6.0538,-5.9683,-5.9318,-5.9183,-5.9047,-5.9012,-5.9012,-5.9012,-5.9012,-5.9012,-5.9012,-5.8875,-5.8564,-5.8012,-5.7771,-5.746,-5.6874,-5.6633,-5.6322,-5.5701,-5.546,-5.5357,-5.5357,-5.4839,-5.4736,-5.5288,-5.4839,-5.4494,-5.4494,-5.4494,-5.4494,-5.4494,-5.4494,-5.4494,-5.4494,-5.4494,-5.4494,-5.4494,-5.4494,-5.4494,-5.4494,-5.4494,-5.4494,-2.2134,-2.4006,-2.5695,-2.6062,-2.5805,-2.5364,-2.497,-2.453,-2.419,-2.419,-2.419,-2.419,-2.419,-2.4493,-2.5154,-2.6392,-2.7897,-3.098,-3.6949,-4.2416,-4.6709,-4.915,-5.0508,-5.1573,0.0,-5.2564,-5.3078,-5.4326,-5.4399,-5.473,-5.5537,-5.5596,-5.5978,-5.6785,-5.6822,-5.7189,-5.7997,-5.7997,-5.7997,-5.7997,-5.795,-5.7904,-5.7904,-5.7486,-5.6897,-5.6201,-5.5808,-5.5229,-5.4494,-5.4494,-5.4494,-5.4494,-5.4494,-5.5219,-5.6385,-5.7433,-5.8915,-6.0568,-6.1632,-6.2344,-6.278,-6.278,-6.278,-6.278,-6.278,-6.2654,-6.237,-6.1851,-6.143,-6.0903,-6.0005,-5.965,-5.9451,-5.9081,-5.9012,-5.9012,-5.9012,-5.9012,-5.9012,-5.9012,-5.9012,-5.8875,-5.8495,-5.8426,-5.8288,-5.7874,-5.7529,-5.715,-5.6736,-5.6357,-5.615,-5.615,-5.5805,-5.5563,-5.5598,-5.5253,-5.4874,-5.4529,-5.4494,-5.4494,-5.4494,-5.4494,-5.4494,-5.4494,-5.4494,-5.4494,-5.4494,-5.4494,-5.4494,-5.4494,-5.4494,-5.4494,-2.1335,-2.2391,-2.3226,-2.4153,-2.4483,-2.4557,-2.4557,-2.4557,-2.4557,-2.4557,-2.4483,-2.4447,-2.4704,-2.5301,-2.6146,-2.7346,-2.9953,-3.41,-4.0545,-4.4911,-4.8287,-5.0545,-5.2234,0.0,-5.3203,-5.3203,-5.3482,-5.4179,-5.4216,-5.4509,-5.5207,-5.5207,-5.5611,-5.6418,-5.6455,-5.6822,-5.7629,-5.7886,-5.7997,-5.7997,-5.7881,-5.775,-5.7679,-5.7188,-5.6582,-5.595,-5.5549,0.0,-5.4494,-5.4494,-5.4494,-5.4494,-5.4494,-5.4977,-5.5766,-5.7118,-5.8526,-6.0024,-6.1561,-6.2423,-6.278,-6.278,-6.278,-6.278,-6.278,-6.2705,-6.2552,-6.2139,-6.1795,-6.1315,-6.0379,-6.0036,-5.9714,-5.9217,-5.9081,-5.9047,-5.9012,-5.9012,-5.9012,-5.9012,-5.9012,-5.9012,-5.9012,-5.9012,-5.9012,-5.9012,-5.8495,-5.8047,-5.7909,-5.7357,-5.6978,-5.6978,-5.6874,-5.6529,-5.5839,-5.5669,-5.5357,-5.4701,-5.4563,-5.4494,-5.4494,-5.4494,-5.4494,-5.4494,-5.4494,-5.4494,-5.4494,-5.4494,-5.4494,-5.4494,-5.4494,-5.4494,-2.1335,-2.2391,-2.3373,-2.4824,-2.5731,-2.6245,-2.6245,-2.6245,-2.6245,-2.6245,-2.5695,-2.5631,-2.699,-2.7357,-2.8374,-3.1225,-3.6032,-4.0288,-4.2763,0.0,-4.9554,-5.0655,0.0,-5.3203,-5.3203,-5.3203,-5.324,-5.335,-5.3408,-5.3445,-5.3555,-5.3592,-5.3959,-5.473,-5.4766,-5.5133,-5.5941,-5.7299,-5.7997,-5.7997,-5.7881,-5.7607,-5.7191,-5.6887,-5.6276,-5.549,0.0,-5.4957,-5.4494,-5.4494,-5.4494,-5.4494,-5.4494,-5.4977,-5.5697,-5.6493,-5.8066,-6.0082,-6.2016,-6.273,-6.278,-6.278,-6.278,-6.278,-6.278,-6.278,-6.2755,-6.2679,-6.2176,-6.1544,-6.0992,-6.0538,-6.0104,-5.9617,-5.9386,-5.9217,-5.9047,-5.9012,-5.9012,-5.9012,-5.9012,-5.9012,-5.9012,-5.9012,-5.9012,-5.9012,-5.8909,-5.8633,-5.7978,-5.7805,-5.7736,-5.7736,-5.7185,-5.6736,-5.6633,-5.6012,-5.5563,-5.546,-5.4874,-5.4494,-5.4494,-5.4494,-5.4494,-5.4494,-5.4494,-5.4494,-5.4494,-5.4494,-5.4494,-5.4494,-5.4494,-5.4494,-2.1335,-2.2391,-2.3483,-2.5548,-2.6649,-2.7236,-2.7236,-2.7934,-2.8411,-2.7996,-2.7603,-2.7714,-2.8888,-2.945,-3.125,-3.5789,-3.9827,-4.2947,-4.4562,-4.7535,-4.9848,0.0,0.0,-5.3203,-5.3203,-5.3203,-5.3203,-5.3203,-5.3203,-5.3203,-5.3203,-5.3203,-5.3592,-5.4363,-5.4399,-5.4803,-5.5574,-5.6308,-5.6932,-5.7373,-5.7128,-5.7025,-5.6989,-5.6546,-5.6007,-5.5254,0.0,-5.4807,-5.4494,-5.4494,-5.4494,-5.4494,-5.4494,-5.4701,-5.5242,-5.6967,-5.8672,-6.038,-6.2068,-6.2679,-6.2705,-6.278,-6.278,-6.278,-6.278,-6.278,-6.278,-6.278,-6.2526,-6.2068,-6.1592,-6.1192,-6.0752,-6.0005,-5.9716,-5.9451,-5.9081,-5.9012,-5.9012,-5.9012,-5.9012,-5.9012,-5.9012,-5.9012,-5.9012,-5.9012,-5.9012,-5.8875,-5.8564,-5.8495,-5.8495,-5.8495,-5.8185,-5.784,-5.7426,-5.7081,-5.6322,-5.5081,-5.5081,-5.4943,-5.4529,-5.4494,-5.4494,-5.4494,-5.4494,-5.4494,-5.4494,-5.4494,-5.4494,-5.4529,-5.4908,-5.5115,-2.1151,-2.2244,-2.3483,-2.5548,-2.6943,-2.7897,-2.8264,-2.9622,-3.0613,-2.9977,-2.9977,-3.0381,-3.1188,-3.2449,-3.4959,-3.968,-4.247,-4.4562,-4.5993,-4.8306,-5.0105,-5.0729,-5.2234,-5.3203,-5.3203,-5.3203,-5.3203,-5.3203,-5.3203,-5.3203,-5.3203,-5.3203,-5.3482,-5.4106,-5.4106,-5.4399,-5.5023,-5.5023,-5.5537,-5.6528,-5.646,-5.6442,-5.6479,-5.6185,-5.57,-5.5018,-5.4807,-5.4655,-5.4494,-5.4494,-5.4494,-5.4494,-5.4494,-5.4526,-5.4918,-5.7399,-5.903,-6.0248,-6.1875,-6.25,-6.2578,-6.273,-6.278,-6.278,-6.278,-6.278,-6.278,-6.278,-6.2705,-6.2526,-6.2095,-6.1684,-6.1169,-6.0254,-5.9908,-5.9617,-5.9115,-5.9012,-5.9012,-5.9012,-5.9012,-5.9012,-5.9012,-5.9012,-5.9012,-5.9012,-5.9012,-5.9012,-5.9012,-5.9012,-5.9012,-5.9012,-5.9012,-5.8702,-5.7978,-5.7909,-5.7081,-5.5184,-5.5563,-5.5632,-5.5081,-5.5046,-5.4943,-5.477,-5.477,-5.4667,-5.4494,-5.4494,-5.4598,-5.477,-5.5357,-5.5701,-2.0548,-2.1758,-2.3226,-2.4153,-2.6098,-2.8191,-2.9696,-3.1274,-3.2399,-3.2362,-3.2926,-3.3697,-3.4527,-3.7184,-3.99,-4.1809,-4.4158,-4.603,-4.6892,0.0,-5.0729,-5.0802,-5.2234,-5.3203,-5.3203,-5.3203,-5.3203,-5.3203,-5.3203,-5.3203,-5.3203,-5.3203,-5.3203,-5.3277,-5.3277,-5.3314,-5.335,-5.335,-5.4142,-5.5684,-5.6168,-5.6005,-5.5268,-5.5687,-5.5408,-5.4557,-5.4526,-5.4494,-5.4494,-5.4494,-5.4494,-5.4494,-5.4494,-5.4683,-5.5196,-5.7062,-5.8202,-5.9123,-6.1217,-6.2149,-6.2449,-6.2705,-6.278,-6.278,-6.278,-6.278,-6.278,-6.278,-6.2705,-6.2526,-6.2238,-6.1636,-6.1004,-6.0419,-5.9911,-5.9486,-5.9081,-5.9012,-5.9012,-5.9012,-5.9012,-5.9012,-5.9012,-5.9012,-5.9012,-5.9012,-5.9012,-5.9012,-5.9012,-5.9012,-5.9012,-5.9012,-5.9012,-5.8702,-5.7978,-5.7909,-5.7529,-5.6702,-5.6667,-5.6702,-5.6633,-5.6633,-5.6288,-5.5563,-5.5497,-5.5184,-5.4494,-5.4494,-5.4874,-5.5497,-5.5598,-5.6012,-2.0503,-2.1355,-2.2694,-2.4493,-2.6366,-2.8349,-3.0479,-3.2999,-3.5165,-3.6193,-3.7037,-3.7367,-3.667,-3.9203,-4.1772,-4.2873,-4.5076,-4.6948,-4.7736,-4.9114,-5.0031,-5.0031,-5.1022,-5.172,-5.172,-5.216,-5.2454,-5.2454,-5.2931,-5.3203,-5.3203,-5.3203,-5.3203,-5.3203,-5.3203,-5.3203,-5.3203,-5.3203,-5.3518,-5.4106,-5.4647,-5.4967,-5.5107,-5.5127,-5.4922,-5.4494,-5.4494,-5.4494,-5.4494,-5.4494,-5.4494,-5.4494,-5.4494,-5.462,-5.5039,-5.6388,-5.754,-5.8701,-6.0483,-6.1615,-6.2318,-6.2679,-6.278,-6.278,-6.278,-6.278,-6.278,-6.278,-6.2629,-6.2397,-6.2095,-6.1684,-6.111,-6.0321,-5.9908,-5.9584,-5.9115,-5.9012,-5.9012,-5.9012,-5.9012,-5.9012,-5.9012,-5.9012,-5.9012,-5.9012,-5.9012,-5.9012,-5.9012,-5.9012,-5.9012,-5.9012,-5.9012,-5.8909,-5.8633,-5.8599,-5.8495,-5.8185,-5.7736,-5.7288,-5.6805,-5.6805,-5.6667,-5.6357,-5.5874,-5.5428,-5.5184,-5.5184,-5.5357,-5.5632,-5.6598,-5.7185,-2.0988,-2.1547,-2.2657,-2.4566,-2.6439,-2.8569,-3.1507,-3.4688,-3.7441,-3.8799,-3.99,-4.023,-3.8888,-4.0634,-4.2543,0.0,-4.5296,-4.7076,-4.8159,-4.904,-4.961,-4.961,-5.0288,-5.0802,-5.0802,-5.1536,-5.1977,-5.1977,-5.2747,-5.3203,-5.3203,-5.3203,-5.3203,-5.3203,-5.3203,-5.3203,-5.3203,-5.3203,-5.3203,-5.3203,-5.3478,-5.3881,-5.4331,-5.4595,-5.4472,-5.4184,-5.4391,-5.4494,-5.4494,-5.4494,-5.4494,-5.4494,-5.4494,-5.4592,-5.4818,-5.5796,-5.6856,-5.8025,-5.9773,-6.0964,-6.1885,-6.2581,-6.278,-6.278,-6.278,-6.278,-6.278,-6.278,-6.2603,-6.2265,-6.1759,-6.1422,-6.1051,-6.0129,-5.9779,-5.9518,-5.9081,-5.9012,-5.9012,-5.9012,-5.9012,-5.9012,-5.9012,-5.9012,-5.9012,-5.9012,-5.9012,-5.9012,-5.9012,-5.9012,-5.9012,-5.9012,-5.9012,-5.9012,-5.9012,-5.9012,-5.9012,-5.9012,-5.853,-5.8012,-5.7529,-5.7495,-5.7391,-5.715,-5.6633,-5.6219,-5.5977,-5.5977,-5.6115,-5.6357,-5.7426,-5.8012,-2.1996,-2.2391,-2.3189,-2.4006,-2.6025,-2.8888,-3.2889,-3.6376,-3.8946,-3.979,-4.1222,-4.2103,-4.1242,-4.1772,-4.258,-4.3351,-4.4856,-4.6471,-4.8086,-4.904,-4.961,-4.961,-5.0288,-5.0765,-5.0765,-5.1499,-5.1977,-5.1977,-5.2711,-5.3167,-5.3167,-5.3167,-5.3167,-5.3167,-5.3203,-5.3203,-5.3203,-5.3203,-5.3203,-5.3203,-5.2952,-5.2759,-5.2763,-5.4071,-5.4221,-5.3425,-5.4184,-5.4494,-5.4494,-5.4494,-5.4494,-5.4494,-5.4494,-5.4494,-5.4598,-5.5322,-5.6012,-5.6897,-5.9028,-6.02,-6.1026,-6.2372,-6.278,-6.278,-6.278,-6.278,-6.278,-6.278,-6.2603,-6.2149,-6.1149,-6.0867,-6.06,-5.994,-5.9551,-5.9251,-5.9047,-5.9012,-5.9012,-5.9012,-5.9012,-5.9012,-5.9012,-5.9012,-5.9012,-5.9012,-5.9012,-5.9012,-5.9012,-5.9012,-5.9012,-5.9012,-5.9012,-5.9012,-5.9012,-5.9012,-5.9012,-5.9012,-5.9012,-5.9012,-5.9012,-5.9012,-5.8668,-5.7909,-5.7909,-5.7529,-5.6805,-5.6805,-5.7185,-5.7909,-5.7909,-5.8323,-2.1106,-2.2318,-2.419,-2.5548,-2.8117,-3.125,-3.4761,-3.7624,-4.0598,-4.4232,-4.4892,-4.4232,-4.2323,-4.3057,-4.3864,-4.3534,-4.5333,-4.7113,-4.8159,-4.8526,-4.8673,-4.8673,-4.8893,-4.904,-4.904,-4.9811,-5.0308,-5.0308,-5.1059,-5.1499,-5.1499,-5.205,-5.2344,-5.2344,-5.2894,-5.3203,-5.3203,-5.3203,-5.3203,-5.3203,-5.2952,-5.2759,-5.2727,-5.2999,-5.2895,-5.2597,-5.3391,-5.3736,-5.377,-5.4287,-5.4494,-5.4494,-5.4494,-5.4494,-5.4529,-5.477,-5.5532,-5.6606,-5.7681,-5.9143,-6.0648,-6.1433,-6.2062,-6.2526,-6.2629,-6.2578,-6.2526,-6.2629,-6.2318,-6.174,-6.098,-6.0534,-6.0135,-5.9418,-5.9149,-5.9081,-5.9012,-5.9012,-5.9012,-5.9012,-5.9012,-5.9012,-5.9012,-5.9012,-5.9012,-5.9012,-5.9012,-5.9012,-5.9012,-5.9012,-5.9012,-5.9012,-5.9012,-5.9012,-5.9012,-5.9012,-5.9012,-5.9012,-5.9012,-5.9012,-5.9012,-5.9012,-5.8909,-5.8702,-5.815,-5.7805,-5.7564,-5.7564,-5.7702,-5.7909,-5.8426,-5.8806,-2.2024,-2.3529,-2.5621,-2.7567,-3.0467,-3.4027,-3.8615,-4.0744,-4.291,-4.6782,-4.6948,-4.5847,-4.4048,-4.4525,0.0,-4.4525,-4.5957,-4.7369,-4.8196,-4.8306,-4.8306,-4.8306,-4.8306,-4.8306,-4.8306,-4.9077,-4.961,-4.961,-5.0362,-5.0802,-5.0802,-5.1573,-5.1977,-5.1977,-5.2742,-5.3124,-5.3124,-5.306,-5.306,-5.3103,-5.285,-5.2568,-5.2264,-5.236,-5.2187,-5.1808,-5.2942,-5.3391,-5.346,-5.4218,-5.4494,-5.4494,-5.4494,-5.4494,-5.4494,-5.4494,-5.5088,-5.5968,-5.6752,-5.7932,-5.9251,-6.0305,-6.1064,-6.1669,-6.2146,-6.2344,-6.2318,-6.2308,-6.1987,-6.1458,-6.062,-6.0227,-5.9814,-5.9149,-5.9012,-5.9012,-5.9012,-5.9012,-5.9012,-5.9012,-5.9012,-5.9012,-5.9012,-5.9012,-5.9012,-5.9012,-5.9012,-5.9012,-5.9012,-5.9012,-5.9012,-5.9012,-5.9012,-5.9012,-5.9012,-5.9012,-5.9012,-5.9012,-5.9012,-5.9012,-5.9012,-5.9012,-5.9012,-5.9012,-5.8564,-5.8357,-5.8357,-5.8357,-5.8357,-5.8357,-5.8806,-5.9012,-2.3859,-2.5364,-2.731,-2.9696,-3.2913,-3.7059,-4.3187,-4.4654,-4.5388,-4.7792,-4.77,-4.6966,-4.6177,-4.6067,-4.6104,-4.603,-4.6672,-4.7443,-4.8196,-4.8306,-4.8306,-4.8306,-4.8306,-4.8306,-4.8306,-4.9003,-4.95,-4.95,-5.0141,-5.0582,-5.0582,-5.1353,-5.1756,-5.1756,-5.2495,-5.2871,-5.2827,-5.2791,-5.2828,-5.2937,-5.268,-5.2244,-5.1612,-5.2076,-5.1871,-5.1183,-5.2597,-5.3287,-5.346,-5.4115,-5.446,-5.4494,-5.4494,-5.4494,-5.4494,-5.4494,-5.4683,-5.5127,-5.6155,-5.6699,-5.7339,-5.9008,-5.9867,-6.0436,-6.1462,-6.1924,-6.2078,-6.1933,-6.1656,-6.1169,-6.0223,-5.9876,-5.965,-5.9115,-5.9012,-5.9012,-5.9012,-5.9012,-5.9012,-5.9012,-5.9012,-5.9012,-5.9012,-5.9012,-5.9012,-5.9012,-5.9012,-5.9012,-5.9012,-5.9012,-5.9012,-5.9012,-5.9012,-5.9012,-5.9012,-5.9012,-5.9012,-5.9012,-5.9012,-5.9012,-5.9012,-5.9012,-5.9012,-5.9012,-5.9012,-5.9012,-5.9012,-5.9012,-5.9012,-5.9012,-5.9012,-5.9012,-2.3052,-2.5364,-2.8117,-3.054,-3.5018,-3.9717,-4.302,-4.4268,-4.5388,-4.7792,-4.8159,-4.7773,-4.6966,-4.7352,-4.7572,-4.6929,-4.7516,-4.8122,-4.8269,-4.8306,-4.8306,-4.8306,-4.8306,-4.8306,-4.8306,-4.8489,-4.86,-4.86,-4.8746,-4.8857,-4.8857,-4.9627,-5.0124,-5.0124,-5.1396,-5.1901,-5.1578,-5.23,-5.259,-5.2522,-5.2513,-5.2209,-5.1576,-5.1473,-5.1345,-5.1149,-5.1459,-5.2287,-5.3425,-5.3563,-5.3977,-5.4494,-5.4494,-5.4494,-5.4494,-5.4494,-5.4655,-5.4938,-5.5348,-5.6039,-5.684,-5.7481,-5.8643,-5.9909,-6.048,-6.0991,-6.135,-6.1515,-6.1081,-6.0446,-5.9972,-5.9617,-5.9318,-5.9047,-5.9012,-5.9012,-5.9012,-5.9012,-5.9012,-5.9012,-5.9012,-5.9012,-5.9012,-5.9012,-5.9012,-5.9012,-5.9012,-5.9012,-5.9012,-5.9012,-5.9012,-5.9012,-5.9012,-5.9012,-5.9012,-5.9012,-5.9012,-5.9012,-5.9012,-5.9012,-5.9012,-5.9012,-5.9012,-5.9012,-5.9012,-5.9012,-5.9012,-5.9012,-5.9012,-5.9012,-5.9012,-5.9012,-2.3235,-2.5915,-2.9439,-3.3807,-3.7698,-4.1111,-4.3534,-4.4415,-4.5168,-4.6801,-4.7168,-4.7131,-4.7113,-4.7443,-4.77,-4.7663,-4.8049,-4.8306,-4.8306,-4.8306,-4.8306,-4.8306,-4.8306,-4.8306,-4.8306,-4.8306,-4.8306,-4.8306,-4.8306,-4.8306,-4.8306,-4.9133,-4.961,-4.961,-5.0968,-5.1515,-5.1122,-5.1917,-5.2291,-5.2221,-5.2138,-5.1822,-5.1192,-5.0803,-5.0606,-5.0597,-5.0976,-5.1563,-5.2356,-5.3115,-5.3632,-5.4011,-5.4356,-5.4494,-5.4494,-5.4494,-5.4592,-5.4686,-5.4838,-5.5205,-5.568,-5.6213,-5.7158,-5.824,-5.9301,-5.9894,-6.0266,-6.0676,-6.0446,-5.994,-5.9516,-5.9284,-5.9115,-5.9012,-5.9012,-5.9012,-5.9012,-5.9012,-5.9012,-5.9012,-5.9012,-5.9012,-5.9012,-5.9012,-5.9012,-5.9012,-5.9012,-5.9012,-5.9012,-5.9012,-5.9012,-5.9012,-5.9012,-5.9012,-5.9012,-5.9012,-5.9012,-5.9012,-5.9012,-5.9012,-5.9012,-5.9012,-5.9012,-5.9012,-5.9012,-5.9012,-5.9012,-5.9012,-5.9012,-5.9012,-5.9012,-5.8944,-2.3712,-2.6943,-3.1225,-3.7037,-3.9827,-4.1645,-4.3774,-4.4415,-4.4672,-4.5333,-4.57,-4.614,-4.6966,-4.7113,-4.7369,-4.8196,-4.8306,-4.8287,-4.8287,-4.8267,-4.8267,-4.8267,-4.8267,-4.8287,-4.8306,-4.8306,-4.8306,-4.8306,-4.8306,-4.8306,-4.8306,-4.8967,-4.939,-4.939,-5.0561,-5.0969,-5.0482,-5.1359,-5.1729,-5.1596,-5.1576,-5.1289,-5.0749,-5.0235,-5.0011,-5.0045,-5.0666,-5.1011,-5.1218,-5.2632,-5.3287,-5.346,-5.4218,-5.4494,-5.4494,-5.4494,-5.4494,-5.4494,-5.4494,-5.4494,-5.4598,-5.5219,-5.5753,-5.6446,-5.8156,-5.8839,-5.9183,-5.9794,-5.9844,-5.9617,-5.9115,-5.9012,-5.9012,-5.9012,-5.9012,-5.9012,-5.9012,-5.9012,-5.9012,-5.9012,-5.9012,-5.9012,-5.9012,-5.9012,-5.9012,-5.9012,-5.9012,-5.9012,-5.9012,-5.9012,-5.9012,-5.9012,-5.9012,-5.9012,-5.9012,-5.9012,-5.9012,-5.9012,-5.9012,-5.9012,-5.9012,-5.9012,-5.9012,-5.9012,-5.9012,-5.9012,-5.9012,-5.9012,-5.9012,-5.9012,-5.9012,-5.8944,-2.3566,-2.8594,-3.388,-3.6905,-3.9386,-4.1352,-4.2396,-4.3167,-4.3681,-4.3808,-4.4929,-4.614,-4.6966,-4.7113,-4.7369,-4.8196,-4.8306,-4.8267,-4.8226,-4.8207,-4.8207,-4.8207,-4.8207,-4.8246,-4.8287,-4.8306,-4.8306,-4.8306,-4.8306,-4.8306,-4.8306,-4.8416,-4.8489,-4.8489,-4.9151,-4.917,-4.84,-4.9936,-5.0464,-4.9907,-5.062,-5.0803,-5.0612,-5.0206,-5.0011,-5.0011,-5.0114,-5.0528,-5.1183,-5.2011,-5.277,-5.346,-5.4218,-5.4494,-5.4494,-5.4494,-5.4494,-5.4494,-5.4494,-5.4494,-5.4529,-5.4632,-5.5242,-5.6157,-5.7335,-5.8069,-5.8706,-5.9569,-5.9617,-5.9284,-5.9047,-5.9012,-5.9012,-5.9012,-5.9012,-5.9012,-5.9012,-5.9012,-5.9012,-5.9012,-5.9012,-5.9012,-5.9012,-5.9012,-5.9012,-5.9012,-5.9012,-5.9012,-5.9012,-5.9012,-5.9012,-5.9012,-5.9012,-5.9012,-5.9012,-5.9012,-5.9012,-5.9012,-5.9012,-5.9012,-5.9012,-5.9012,-5.9012,-5.9012,-5.9012,-5.9012,-5.9012,-5.9012,-5.9012,-5.9012,-5.9012,-5.8944,-2.5181,-2.9916,-3.4394,-3.6868,-3.8998,-4.0744,-4.2029,-4.258,-4.2947,-4.3404,-4.4048,-4.4782,-4.5608,-4.5755,-4.6159,-4.7406,-4.7626,-4.7754,-4.8134,-4.8187,-4.8187,-4.8187,-4.8187,-4.8226,-4.8287,-4.8306,-4.8306,-4.8306,-4.8306,-4.8306,-4.8306,-4.8306,-4.8306,-4.8306,-4.8895,-4.8886,-4.823,-4.9293,-4.971,-4.9546,-5.0317,-5.0557,-5.0369,-5.0092,-5.0011,-5.0011,-5.0011,-5.0183,-5.0562,-5.1735,-5.2425,-5.2873,-5.4046,-5.4494,-5.4494,-5.4494,-5.4494,-5.4494,-5.4494,-5.4494,-5.4494,-5.4494,-5.4767,-5.5346,-5.6683,-5.7272,-5.7761,-5.9004,-5.925,-5.9115,-5.9012,-5.9012,-5.9012,-5.9012,-5.9012,-5.9012,-5.9012,-5.9012,-5.9012,-5.9012,-5.9012,-5.9012,-5.9012,-5.9012,-5.9012,-5.9012,-5.9012,-5.9012,-5.9012,-5.9012,-5.9012,-5.9012,-5.9012,-5.9012,-5.9012,-5.9012,-5.9012,-5.9012,-5.9012,-5.9012,-5.9012,-5.9012,-5.9012,-5.9012,-5.9012,-5.9012,-5.9012,-5.9012,-5.9012,-5.9012,-5.9012,-5.8944,-2.6098,-2.9989,-3.344,-3.5679,-3.7639,-3.935,-4.0744,-4.1552,-4.2213,0.0,-4.3368,-4.3681,-4.4268,-4.4562,-4.5241,-4.6856,-4.7113,-4.7368,-4.8058,-4.8148,-4.8148,-4.8108,-4.8108,-4.8094,-4.7992,-4.7974,-4.7901,-4.7719,-4.7902,-4.8012,-4.8012,-4.8196,-4.8306,-4.8306,-4.8716,-4.8701,-4.8191,-4.8568,-4.9003,-4.9474,-4.9951,-5.0133,-5.0149,-5.0068,-5.0011,-5.0011,-5.0011,-5.0011,-5.0114,-5.139,-5.2015,-5.2326,-5.3701,-5.4356,-5.4494,-5.4494,-5.4494,-5.4494,-5.4494,-5.4494,-5.4494,-5.4494,-5.4494,-5.4805,-5.6322,-5.6805,-5.7116,-5.8599,-5.9012,-5.9012,-5.9012,-5.9012,-5.9012,-5.9012,-5.9012,-5.9012,-5.9012,-5.9012,-5.9012,-5.9012,-5.9012,-5.9012,-5.9012,-5.9012,-5.9012,-5.9012,-5.9012,-5.9012,-5.9012,-5.9012,-5.9012,-5.9012,-5.9012,-5.9012,-5.9012,-5.9012,-5.9012,-5.9012,-5.9012,-5.9012,-5.9012,-5.9012,-5.9012,-5.9012,-5.9012,-5.9012,-5.9012,-5.9012,-5.9012,-5.9012,-5.9012,-5.8909,-2.5044,-2.7897,-3.0797,-3.2436,-3.4688,-3.6707,-3.7566,-3.9533,-4.1389,-4.2213,-4.2947,-4.3497,-4.3551,-4.4195,-4.5241,-4.6856,-4.7113,-4.7313,-4.7922,-4.8012,-4.8008,-4.7922,-4.7902,-4.7692,-4.7107,-4.7053,-4.6762,-4.6104,-4.6709,-4.7149,-4.7149,-4.7902,-4.8306,-4.8306,-4.8283,-4.8065,-4.7663,-4.7477,-4.8083,-4.9404,-4.9063,-4.9315,-5.0011,-5.0011,-5.0011,-5.0011,-5.0011,-5.0011,-5.008,-5.0838,-5.1567,-5.2257,-5.3149,-5.3873,-5.4494,-5.4494,-5.4494,-5.4494,-5.4494,-5.4494,-5.4494,-5.4494,-5.4494,-5.4805,-5.6322,-5.6805,-5.7116,-5.8599,-5.9012,-5.9012,-5.9012,-5.9012,-5.9012,-5.9012,-5.9012,-5.9012,-5.9012,-5.9012,-5.9012,-5.9012,-5.9012,-5.9012,-5.9012,-5.9012,-5.9012,-5.9012,-5.9012,-5.9012,-5.9012,-5.9012,-5.9012,-5.9012,-5.9012,-5.9012,-5.9012,-5.9012,-5.9012,-5.9012,-5.9012,-5.9012,-5.9012,-5.9012,-5.9012,-5.9012,-5.9012,-5.9012,-5.9012,-5.9012,-5.9012,-5.9012,-5.9012,-5.8806,-2.3566,-2.5841,-2.8301,-2.9904,-3.1751,-3.3784,-3.617,-3.7808,-3.9444,-4.1762,-4.2458,-4.2807,-4.3212,-4.3648,-4.4305,-4.5388,-4.5517,-4.5919,-4.7063,-4.7203,-4.7361,-4.7829,-4.7466,-4.711,-4.7034,-4.6541,-4.6139,-4.592,-4.6636,-4.7113,-4.7113,-4.7846,-4.8306,-4.8306,-4.8246,-4.8008,-4.7557,-4.7571,-4.7734,-4.8067,-4.8543,-4.8947,-4.9252,-4.9769,-5.0011,-5.0011,-5.0011,-5.0011,-5.008,-5.0804,-5.1287,-5.1632,-5.2908,-5.3563,-5.3873,-5.4322,-5.4494,-5.4494,-5.4494,-5.4494,-5.4494,-5.4494,-5.4494,-5.4805,-5.6322,-5.6805,-5.7116,-5.8599,-5.9012,-5.9012,-5.9012,-5.9012,-5.9012,-5.9012,-5.9012,-5.9012,-5.9012,-5.9012,-5.9012,-5.9012,-5.9012,-5.9012,-5.9012,-5.9012,-5.9012,-5.9012,-5.9012,-5.9012,-5.9012,-5.9012,-5.9012,-5.9012,-5.9012,-5.9012,-5.9012,-5.9012,-5.9012,-5.9012,-5.9012,-5.9012,-5.9012,-5.9012,-5.9012,-5.9012,-5.9012,-5.9012,-5.9012,-5.9012,-5.9012,-5.9012,-5.8909,-5.8806,-2.2354,-2.396,-2.5721,-2.7042,-2.8594,-3.0503,-3.322,-3.5092,-3.7096,-3.9971,-4.0999,-4.1677,-4.2612,-4.292,-4.3337,-4.4436,-4.4565,-4.5058,-4.6567,-4.6743,-4.6864,-4.7368,-4.6969,-4.6504,-4.6134,-4.5605,-4.5223,-4.5059,-4.6048,-4.669,-4.6709,-4.7719,-4.8306,-4.8306,-4.8285,-4.8032,-4.7663,-4.7495,-4.7415,-4.7452,-4.7862,-4.8327,-4.881,-4.9327,-4.9735,-5.0011,-5.0011,-5.0011,-5.0045,-5.0528,-5.0907,-5.1252,-5.2494,-5.3149,-5.3494,-5.4253,-5.4494,-5.4494,-5.4494,-5.4494,-5.4494,-5.4494,-5.4494,-5.4805,-5.6322,-5.6805,-5.7116,-5.8599,-5.9012,-5.9012,-5.9012,-5.9012,-5.9012,-5.9012,-5.9012,-5.9012,-5.9012,-5.9012,-5.9012,-5.9012,-5.9012,-5.9012,-5.9012,-5.9012,-5.9012,-5.9012,-5.9012,-5.9012,-5.9012,-5.9012,-5.9012,-5.9012,-5.9012,-5.9012,-5.9012,-5.9012,-5.9012,-5.9012,-5.9012,-5.9012,-5.9012,-5.9012,-5.9012,-5.9012,-5.8944,-5.8909,-5.8909,-5.8978,-5.8978,-5.8909,-5.884,-5.8701,0.0,0.0,0.0,-2.3933,-2.5291,-2.6895,-2.8546,0.0,-3.433,-3.6772,-3.8585,-4.0178,-4.17,-4.1975,-4.2485,-4.4053,-4.4345,-4.4891,-4.6432,-4.663,-4.659,-4.6468,-4.6432,-4.5856,-4.4449,-4.4286,-4.4034,-4.3431,-4.4894,-4.5828,-4.5883,-4.7425,-4.8306,-4.8306,-4.8306,-4.8209,-4.8012,-4.7284,-4.7144,-4.7663,-4.696,-4.7355,-4.8803,-4.8803,-4.9252,-5.0011,-5.0011,-5.0011,-5.0011,-5.0011,-5.0424,-5.1149,-5.1877,-5.2701,-5.346,-5.4218,-5.4494,-5.4494,-5.4494,-5.4494,-5.4494,-5.4494,-5.4494,-5.4805,-5.6322,-5.6805,-5.7116,-5.8599,-5.9012,-5.9012,-5.9012,-5.9012,-5.9012,-5.9012,-5.9012,-5.9012,-5.9012,-5.9012,-5.9012,-5.9012,-5.9012,-5.9012,-5.9012,-5.9012,-5.9012,-5.9012,-5.9012,-5.9012,-5.9012,-5.9012,-5.9012,-5.9012,-5.9012,-5.9012,-5.9012,-5.9012,-5.9012,-5.9012,-5.9012,-5.9012,-5.9012,-5.9012,-5.9012,-5.9012,-5.8875,-5.8771,-5.8805,-5.8909,-5.8944,-5.8771,-5.8805,-5.8561,-2.0629,0.0,0.0,0.0,0.0,0.0,0.0,0.0,-3.1481,-3.5513,-3.7176,-3.853,-4.0562,-4.1397,-4.1941,-4.2377,-4.3032,-4.3832,-4.4832,-4.4863,-4.5022,-4.5562,-4.5128,-4.4624,-4.434,-4.3759,-4.3397,0.0,-4.4894,-4.5828,-4.5883,-4.7425,-4.8306,-4.8306,-4.8306,-4.8209,-4.8012,-4.7284,-4.6941,-4.7027,-4.694,-4.7403,-4.8313,-4.8841,-4.9507,-5.0149,-5.0034,-5.0011,-5.0011,-5.0011,-5.0114,-5.0424,-5.1671,-5.2326,-5.2701,-5.4011,-5.4494,-5.4494,-5.4494,-5.4494,-5.4494,-5.4494,-5.4494,-5.4805,-5.6322,-5.6805,-5.7116,-5.8599,-5.9012,-5.9012,-5.9012,-5.9012,-5.9012,-5.9012,-5.9012,-5.9012,-5.9012,-5.9012,-5.9012,-5.9012,-5.9012,-5.9012,-5.9012,-5.9012,-5.9012,-5.9012,-5.9012,-5.9012,-5.9012,-5.9012,-5.9012,-5.9012,-5.9012,-5.9012,-5.9012,-5.9012,-5.9012,-5.9012,-5.9012,-5.9012,-5.9012,-5.9012,-5.9012,-5.9012,-5.8944,-5.8909,-5.8805,-5.8701,-5.8631,-5.8561,-5.8455,-5.8241,-2.0923,-2.0703,-2.049,-2.1106,0.0,0.0,-2.4153,-2.6078,-2.8526,0.0,-3.3887,-3.5357,-3.7611,-3.87,-3.9352,-3.9695,-4.0763,-4.2177,-4.3956,-4.4152,-4.4258,-4.4729,-4.4367,-4.4007,-4.3738,-4.3303,-4.3068,-4.3269,-4.4455,-4.5497,-4.6305,-4.7296,-4.7976,-4.8306,-4.8306,-4.8209,-4.8012,-4.7284,-4.688,-4.6883,-4.6734,-4.7264,-4.8365,-4.8714,-4.9435,-5.0341,-5.0092,-5.0011,-5.0011,-5.0011,-5.0011,-5.0149,-5.1602,-5.2188,-5.2394,-5.3942,-5.4494,-5.4494,-5.4494,-5.4494,-5.4494,-5.4494,-5.4494,-5.4805,-5.6322,-5.6805,-5.7116,-5.8599,-5.9012,-5.9012,-5.9012,-5.9012,-5.9012,-5.9012,-5.9012,-5.9012,-5.9012,-5.9012,-5.9012,-5.9012,-5.9012,-5.9012,-5.9012,-5.9012,-5.9012,-5.9012,-5.9012,-5.9012,-5.9012,-5.9012,-5.9012,-5.9012,-5.9012,-5.9012,-5.9012,-5.9012,-5.9012,-5.9012,-5.9012,-5.9012,-5.9012,-5.9012,-5.9012,-5.9012,-5.8978,-5.8806,-5.8561,-5.8596,-5.8525,-5.8384,-5.8171,-5.7991,-2.1923,-2.1886,-2.1629,-2.0951,-2.1216,0.0,-2.1767,-2.3391,-2.5602,0.0,-2.9659,-3.1424,-3.377,-3.4863,-3.5639,-3.6343,-3.7901,-4.0093,-4.3244,-4.3788,-4.386,-4.3969,-4.3969,-4.3679,-4.2973,-4.2901,-4.2975,-4.3086,-4.385,-4.5092,-4.6889,-4.7075,-4.748,-4.8269,-4.8306,-4.8209,-4.8012,-4.7284,-4.6926,-4.702,-4.6495,-4.7135,-4.8741,-4.8528,-4.9241,-5.0585,-5.0178,-5.0011,-5.0011,-5.0011,-5.0011,-5.0149,-5.1602,-5.2188,-5.2394,-5.3942,-5.4494,-5.4494,-5.4494,-5.4494,-5.4494,-5.4494,-5.4494,-5.4805,-5.6322,-5.6805,-5.7116,-5.8599,-5.9012,-5.9012,-5.9012,-5.9012,-5.9012,-5.9012,-5.9012,-5.9012,-5.9012,-5.9012,-5.9012,-5.9012,-5.9012,-5.9012,-5.9012,-5.9012,-5.9012,-5.9012,-5.9012,-5.9012,-5.9012,-5.9012,-5.9012,-5.9012,-5.9012,-5.9012,-5.9012,-5.9012,-5.9012,-5.9012,-5.9012,-5.9012,-5.9012,-5.9012,-5.9012,-5.9012,-5.8875,-5.8596,-5.8207,-5.8561,-5.8525,-5.8135,-5.7991,-5.7881,-2.2575,-2.2281,-2.1923,-2.2382,-2.1612,0.0,-2.1577,-2.2072,-2.3242,0.0,-2.7524,-2.8918,-3.127,-3.2343,-3.2958,-3.3103,-3.5023,-3.7578,-4.0782,-4.1741,-4.2411,-4.3082,-4.3136,-4.3082,-4.2937,-4.2901,-4.2975,-4.3086,-4.4017,-4.526,-4.6926,-4.7075,-4.748,-4.8269,-4.8306,-4.8209,-4.8012,-4.7284,-4.6972,-4.7156,-4.6672,-4.7369,-4.9025,-4.8806,-4.9449,-5.0721,-5.0235,-5.0011,-5.0011,-5.0011,-5.0011,-5.0149,-5.1602,-5.2188,-5.2394,-5.3942,-5.4494,-5.4494,-5.4494,-5.4494,-5.4494,-5.4494,-5.4494,-5.4805,-5.6322,-5.6805,-5.7116,-5.8599,-5.9012,-5.9012,-5.9012,-5.9012,-5.9012,-5.9012,-5.9012,-5.9012,-5.9012,-5.9012,-5.9012,-5.9012,-5.9012,-5.9012,-5.9012,-5.9012,-5.9012,-5.9012,-5.9012,-5.9012,-5.9012,-5.9012,-5.9012,-5.9012,-5.9012,-5.9012,-5.9012,-5.9012,-5.9012,-5.9012,-5.9012,-5.9012,-5.9012,-5.9012,-5.9012,-5.9012,-5.8875,-5.8666,-5.8455,-5.8384,-5.8171,-5.7954,-5.7918,-5.7881,-2.4694,-2.419,-2.3612,-2.3602,-2.2354,0.0,0.0,-2.1094,-2.1698,-2.4024,-2.5129,-2.6268,-2.8263,-2.9264,-2.9807,-2.9807,-3.1836,-3.4226,-3.66,-3.9352,-4.1542,-4.2737,-4.2901,-4.2901,-4.2901,-4.2901,-4.2975,-4.3086,-4.3597,-4.4419,-4.5643,-4.5791,-4.6396,-4.7606,-4.7681,-4.7806,-4.8012,-4.7284,-4.7017,-4.7267,-4.688,-4.7654,-4.9389,-4.9137,-4.9741,-5.0964,-5.0291,-5.0011,-5.0011,-5.0011,-5.0011,-5.0149,-5.1602,-5.2188,-5.2394,-5.3942,-5.4494,-5.4494,-5.4494,-5.4494,-5.4494,-5.4494,-5.477,-5.5288,-5.646,-5.7322,-5.8047,-5.8806,-5.9012,-5.9012,-5.9012,-5.9012,-5.9012,-5.9012,-5.9012,-5.9012,-5.9012,-5.9012,-5.9012,-5.9012,-5.9012,-5.9012,-5.9012,-5.9012,-5.9012,-5.9012,-5.9012,-5.9012,-5.9012,-5.9012,-5.9012,-5.9012,-5.9012,-5.9012,-5.9012,-5.9012,-5.9012,-5.9012,-5.9012,-5.9012,-5.9012,-5.9012,-5.9012,-5.9012,-5.8909,-5.8771,-5.849,-5.8419,-5.8171,-5.7881,-5.7808,-5.7735,-2.6602,-2.5988,-2.5227,-2.4603,-2.3208,-2.184,0.0,0.0,0.0,0.0,0.0,0.0,0.0,0.0,0.0,-2.6717,0.0,0.0,0.0,-3.6057,0.0,-4.1742,-4.214,-4.2249,-4.2249,-4.2376,-4.2595,-4.2832,-4.2923,-4.3397,-4.4364,-4.451,-4.5333,-4.6962,-4.7075,-4.7384,-4.8012,-4.7327,-4.7107,-4.7341,-4.7084,-4.7931,-4.9716,-4.9424,-5.0015,-5.1192,-5.0397,-5.0068,-5.004,-5.0011,-5.0011,-5.0149,-5.1602,-5.2188,-5.2394,-5.3942,-5.4494,-5.4494,-5.4494,-5.4494,-5.4529,-5.4667,-5.5322,-5.6184,-5.6805,-5.7943,-5.9012,-5.9012,-5.9012,-5.9012,-5.9012,-5.9012,-5.9012,-5.9012,-5.9012,-5.9012,-5.9012,-5.9012,-5.9012,-5.9012,-5.9012,-5.9012,-5.9012,-5.9012,-5.9012,-5.9012,-5.9012,-5.9012,-5.9012,-5.9012,-5.9012,-5.9012,-5.9012,-5.9012,-5.9012,-5.9012,-5.9012,-5.9012,-5.9012,-5.9012,-5.9012,-5.915,-5.9254,-5.9254,-5.9254,-5.9081,-5.8695,-5.8558,-5.8278,-5.7881,-5.7698,-5.7551,-2.6602,-2.5988,-2.5374,-2.5301,-2.4043,-2.2813,-2.2676,0.0,-2.1771,-2.2526,0.0,0.0,0.0,0.0,0.0,0.0,0.0,0.0,-2.8925,-3.0858,-3.3719,-3.8191,-3.9369,-3.9804,-3.9804,-4.0508,-4.1251,-4.1978,-4.2086,-4.2795,-4.4327,-4.451,-4.5333,-4.6962,-4.7075,-4.7384,-4.8012,-4.7478,-4.7341,-4.7472,-4.7341,-4.8191,-4.9875,-4.9657,-5.0235,-5.1347,-5.064,-5.0291,-5.0178,-5.0068,-5.0011,-5.0149,-5.1602,-5.2188,-5.2394,-5.3942,-5.4494,-5.4494,-5.4494,-5.4494,-5.4632,-5.5288,-5.646,-5.7667,-5.7771,-5.8357,-5.9012,-5.9012,-5.9012,-5.9012,-5.9012,-5.9012,-5.9012,-5.9012,-5.9012,-5.9012,-5.9012,-5.9012,-5.9012,-5.9012,-5.9012,-5.9012,-5.9012,-5.9012,-5.9012,-5.9012,-5.9012,-5.9012,-5.9012,-5.9012,-5.9012,-5.9012,-5.9012,-5.9012,-5.9012,-5.9012,-5.9012,-5.9012,-5.9012,-5.9012,-5.9012,-5.9668,-6.0047,-6.0047,-6.0047,-5.9872,-5.9447,-5.8798,-5.8278,-5.7881,-5.7698,-5.7256,-2.8815,-2.775,-2.6696,-2.6209,-2.4557,-2.2997,-2.2932,-2.2292,-2.1899,0.0,0.0,0.0,0.0,0.0,0.0,0.0,-2.4773,0.0,0.0,0.0,-3.0532,0.0,0.0,0.0,-3.8608,-3.9107,-3.9683,-4.0501,-4.0642,-4.1387,-4.3048,-4.3542,-4.451,-4.6136,-4.6304,-4.687,-4.8012,-4.7648,-4.7542,-4.7648,-4.7542,-4.8374,-5.0075,-4.9906,-5.0543,-5.1701,-5.0964,-5.0564,-5.0425,-5.012,-5.0011,-5.0149,-5.1602,-5.2188,-5.2394,-5.3942,-5.4494,-5.4494,-5.4494,-5.4494,-5.4701,-5.5908,-5.7012,-5.7978,-5.8426,-5.8771,-5.9012,-5.9012,-5.9012,-5.9012,-5.9012,-5.9012,-5.9012,-5.9012,-5.9012,-5.9012,-5.9012,-5.9012,-5.9012,-5.9012,-5.9012,-5.9012,-5.9012,-5.9012,-5.9012,-5.9012,-5.9012,-5.9012,-5.9012,-5.9012,-5.9012,-5.9012,-5.9012,-5.9012,-5.9012,-5.9012,-5.9012,-5.9012,-5.9012,-5.9012,-5.9012,-5.9771,-6.0185,-6.0185,-6.0634,-6.0663,-6.0232,-5.9925,-5.957,-5.9133,-5.7992,-5.7067,-3.043,-2.9182,-2.7897,-2.6869,-2.5107,-2.3593,-2.3318,-2.2786,0.0,0.0,0.0,0.0,0.0,0.0,0.0,0.0,0.0,-2.4882,0.0,-2.6029,0.0,0.0,0.0,0.0,0.0,-3.7164,-3.7681,-3.8498,-3.8818,-3.9816,-4.1714,-4.2484,-4.3725,-4.5586,-4.5735,-4.6522,-4.8052,-4.7834,-4.7772,-4.7854,-4.7772,-4.8608,-5.0249,-5.0163,-5.0819,-5.1994,-5.1218,-5.0803,-5.0612,-5.0178,-5.0011,-5.0149,-5.1602,-5.2188,-5.2394,-5.3942,-5.4494,-5.4494,-5.4494,-5.477,-5.5322,-5.6426,-5.746,-5.8323,-5.884,-5.9012,-5.9012,-5.9012,-5.9012,-5.9012,-5.9012,-5.9012,-5.9012,-5.9012,-5.9012,-5.9012,-5.9012,-5.9012,-5.9012,-5.9012,-5.9012,-5.9012,-5.9012,-5.9012,-5.9012,-5.9012,-5.9012,-5.9012,-5.9012,-5.9012,-5.9081,-5.9323,-5.9323,-5.9426,-5.9633,-5.9633,-5.9564,-5.9357,-5.953,-5.9564,-5.9357,-6.0289,-6.084,-6.084,-6.1358,-6.1454,-6.1052,-6.0813,-6.0489,-6.008,-5.8383,-5.7138,-3.043,-2.9574,-2.8583,-2.7005,-2.5952,-2.5117,-2.4337,0.0,-2.4327,0.0,0.0,0.0,0.0,0.0,0.0,0.0,0.0,0.0,0.0,0.0,0.0,0.0,0.0,0.0,0.0,-3.4211,-3.5069,0.0,-3.6708,-3.8243,-4.0715,-4.161,-4.3214,-4.5699,-4.5809,-4.6577,-4.8187,-4.8052,-4.7992,-4.7992,-4.7992,-4.8831,-5.0378,-5.0378,-5.1056,-5.2161,-5.1475,-5.1044,-5.0749,-5.0206,-5.0011,-5.0149,-5.1602,-5.2188,-5.2394,-5.3942,-5.4494,-5.4494,-5.4494,-5.5495,-5.6736,-5.6771,-5.7771,-5.8978,-5.9012,-5.9012,-5.9012,-5.9012,-5.9012,-5.9012,-5.9012,-5.9012,-5.9012,-5.9012,-5.9012,-5.9012,-5.9012,-5.9012,-5.9012,-5.9012,-5.9012,-5.9012,-5.9012,-5.9012,-5.9012,-5.9012,-5.9012,-5.9012,-5.9012,-5.9012,-5.9323,-6.0082,-6.0151,-6.0461,-6.1185,-6.122,-6.0909,-6.022,-6.084,-6.0909,-6.0185,-6.1599,-6.2427,-6.2427,-6.2427,-6.2245,-6.1872,-6.1087,-6.0489,-6.008,-5.8921,-5.7674,-3.2816,-3.2008,-3.1005,-2.9402,-2.797,0.0,0.0,0.0,0.0,0.0,0.0,0.0,0.0,0.0,0.0,0.0,0.0,0.0,0.0,0.0,0.0,0.0,0.0,0.0,0.0,0.0,-3.1008,-3.2306,-3.3321,-3.5181,-3.8186,-4.0185,-4.2408,-4.4931,-4.5516,-4.6577,-4.8187,-4.819,-4.8209,-4.8209,-4.8209,-4.9069,-5.0643,-5.0643,-5.1375,-5.2545,-5.1775,-5.1296,-5.1017,-5.0291,-5.0011,-5.0149,-5.1602,-5.2188,-5.2394,-5.3942,-5.4494,-5.4494,-5.4494,-5.5529,-5.6805,-5.6805,-5.7805,-5.9012,-5.9012,-5.9012,-5.9012,-5.9012,-5.9012,-5.9012,-5.9012,-5.9012,-5.9012,-5.9012,-5.9012,-5.9012,-5.9012,-5.9012,-5.9012,-5.9012,-5.9012,-5.9012,-5.9012,-5.9012,-5.9012,-5.9012,-5.9012,-5.9012,-5.9012,-5.9012,-5.9323,-6.0116,-6.0185,-6.0496,-6.1254,-6.1289,-6.0978,-6.0254,-6.0875,-6.0978,-6.022,-6.1668,-6.2496,-6.2496,-6.2979,-6.3036,-6.2624,-6.2351,-6.2025,-6.1569,-5.9895,-5.8171,-3.4468,-3.383,-3.306,-3.1445,-3.0063,0.0,-2.7703,0.0,-2.7435,0.0,0.0,0.0,0.0,0.0,0.0,0.0,0.0,0.0,0.0,-2.3827,0.0,0.0,0.0,0.0,0.0,-2.7919,-2.8631,-2.9697,-3.0944,-3.314,-3.6448,-3.8814,-4.1455,-4.4528,-4.5388,-4.656,-4.8209,-4.8267,-4.8453,-4.8746,-4.8746,-4.9627,-5.1242,-5.1242,-5.1815,-5.2761,-5.2078,-5.1551,-5.1228,-5.0732,-5.0506,-5.0616,-5.2046,-5.2632,-5.2804,-5.4046,-5.4494,-5.4494,-5.4494,-5.5529,-5.6805,-5.6805,-5.7805,-5.9012,-5.9012,-5.9012,-5.9012,-5.9012,-5.9012,-5.9012,-5.9012,-5.9012,-5.9012,-5.9012,-5.9012,-5.9012,-5.9012,-5.9012,-5.9012,-5.9012,-5.9012,-5.9012,-5.9012,-5.9012,-5.9012,-5.9012,-5.9012,-5.9012,-5.9012,-5.9012,-5.9426,-6.0496,-6.0599,-6.1013,-6.2013,-6.2117,-6.1806,-6.1047,-6.1703,-6.1772,-6.1047,-6.222,-6.2875,-6.2875,-6.3358,-6.3414,-6.3,-6.2726,-6.24,-6.1975,-5.9996,-5.825]},{"header":{"parameterUnit":"m.s-1","parameterCategory":1,"la1":30.6,"la2":29.2853,"lo1":-89.7004,"lo2":-87.6739,"dy":0.0162,"dx":0.0183,"nx":112,"ny":82,"refTime":"2026-03-28T00:00:00:Z","depth":0,"parameterNumber":3,"parameterNumberName":"V-component_of_WINDS"},"data":[0.0,0.0,0.0,0.0,0.0,0.0,0.0,0.0,0.0,0.0,0.0,0.0,0.0,0.0,0.0,0.0,0.0,0.0,0.0,0.0,0.0,0.0,0.0,0.0,0.0,0.0,0.0,0.0,0.0,0.0,0.0,0.0,0.0,0.0,0.0,0.0,0.0,0.0,0.0,0.0,0.0,0.0,0.0,0.0,0.0,0.0,0.0,0.0,0.0,0.0,0.0,0.0,0.0,0.0,0.0,0.0,0.0,0.0,0.0,0.0,0.0,0.0,0.0,0.0,0.0,0.0,0.0,0.0,0.0,0.0,0.0,0.0,0.0,0.0,0.0,0.0,0.0,0.0,0.0,0.0,0.0,0.0,0.0,0.0,0.0,0.0,0.0,0.0,0.0,0.0,1.5001,1.722,1.9755,2.1016,2.0369,1.9215,1.7741,1.5813,0.0,0.0,0.0,0.0,0.0,0.0,0.0,0.0,0.0,0.0,0.0,0.0,0.0,0.0,0.0,0.0,0.0,0.0,0.0,0.0,0.0,0.0,0.0,0.0,0.0,0.0,0.0,0.0,0.0,0.0,0.0,0.0,0.0,0.0,0.0,0.0,0.0,0.0,0.0,0.0,0.0,0.0,0.0,0.0,0.0,0.0,0.0,0.0,0.0,0.0,0.0,0.0,0.0,0.0,0.0,0.0,0.0,0.0,0.0,0.0,0.0,0.0,0.0,0.0,0.0,0.0,0.0,0.0,0.0,0.0,0.0,0.0,0.0,0.0,0.0,0.0,0.0,0.0,0.0,0.0,0.0,0.0,0.0,0.0,0.0,0.0,0.0,0.0,0.0,0.0,0.0,0.0,0.0,0.0,0.0,0.0,0.0,0.0,0.0,0.0,0.0,0.0,0.0,0.0,1.6578,1.9641,2.1151,2.1615,2.0778,2.0064,1.8637,1.6249,0.0,0.0,0.0,0.0,0.0,0.0,0.0,0.0,0.0,0.0,0.0,0.0,0.0,0.0,0.0,0.0,0.0,0.0,0.0,0.0,0.0,0.0,0.0,0.0,0.0,0.0,0.0,0.0,0.0,0.0,0.0,0.0,0.0,0.0,0.0,0.0,0.0,0.0,0.0,0.0,0.0,0.0,0.0,0.0,0.0,0.0,0.0,0.0,0.0,0.0,0.0,0.0,0.0,0.0,0.0,0.0,0.0,0.0,0.0,0.0,0.0,0.0,0.0,0.0,0.0,0.0,0.0,0.0,0.0,0.0,0.0,0.0,0.0,0.0,0.0,0.0,0.0,0.0,0.0,0.0,0.0,0.0,0.0,0.0,0.0,0.0,0.0,0.0,0.0,0.0,0.0,0.0,0.0,0.0,0.0,0.0,0.0,0.0,0.0,0.0,0.0,0.0,0.0,1.6505,1.8815,2.09,2.2005,2.2105,2.1053,2.0101,1.8527,1.6085,1.4017,0.0,0.0,0.0,0.0,0.0,0.0,0.0,0.0,0.0,0.0,0.0,0.0,0.0,0.0,0.0,0.0,0.0,0.0,0.0,0.0,0.0,0.0,0.0,0.0,0.0,0.0,0.0,0.0,0.0,0.0,0.0,0.0,0.0,0.0,0.0,0.0,0.0,0.0,0.0,0.0,0.0,0.0,0.0,0.0,0.0,0.0,0.0,0.0,0.0,0.0,0.0,0.0,0.0,0.0,0.0,0.0,0.0,0.0,0.0,0.0,0.0,0.0,0.0,0.0,0.0,0.0,0.0,0.0,0.0,0.0,0.0,0.0,0.0,0.0,0.0,0.0,0.0,0.0,0.0,0.0,0.0,0.0,0.0,0.0,0.0,0.0,0.0,0.0,0.0,0.0,0.0,0.0,0.0,0.0,0.0,0.0,0.0,0.0,0.0,0.0,0.0,0.0,1.8962,2.0589,2.1705,2.2474,2.2364,2.1071,1.9861,1.8082,1.557,1.3617,0.0,0.0,0.0,0.0,0.0,0.0,0.0,0.0,0.0,0.0,0.0,0.0,0.0,0.0,0.0,0.0,0.0,0.0,0.0,0.0,0.0,0.0,0.0,0.0,0.0,0.0,0.0,0.0,0.0,0.0,0.0,0.0,0.0,0.0,0.0,0.0,0.0,0.0,0.0,0.0,0.0,0.0,0.0,0.0,0.0,0.0,0.0,0.0,0.0,0.0,0.0,0.0,0.0,0.0,0.0,0.0,0.0,0.0,0.0,0.0,0.0,0.0,0.0,0.0,0.0,0.0,0.0,0.0,0.0,0.0,0.0,0.0,0.0,0.0,0.0,0.0,0.0,0.0,0.0,0.0,0.0,0.0,0.0,0.0,0.0,0.0,0.0,0.0,0.0,0.0,0.0,0.0,0.0,0.0,0.0,0.0,0.0,0.0,0.0,0.0,0.0,0.0,1.9787,2.1346,2.219,2.2638,2.2254,2.0704,1.9457,1.7568,1.4781,1.3101,0.0,0.0,0.0,0.0,0.0,0.0,0.0,0.0,0.0,0.0,0.0,0.0,0.0,0.0,0.0,0.0,0.0,0.0,0.0,0.0,0.0,0.0,0.0,0.0,0.0,0.0,0.0,0.0,0.0,0.0,0.0,0.0,0.0,0.0,0.0,0.0,0.0,0.0,0.0,0.0,0.0,0.0,0.0,0.0,0.0,0.0,0.0,0.0,0.0,0.0,0.0,0.0,0.0,0.0,0.0,0.0,0.0,0.0,0.0,0.0,0.0,0.0,0.0,0.0,0.0,0.0,0.0,0.0,0.0,0.0,0.0,0.0,0.0,0.0,0.0,0.0,0.0,0.0,0.0,0.0,0.0,0.0,0.0,0.0,0.0,0.0,0.0,0.0,0.0,0.0,0.0,0.0,0.0,0.0,0.0,0.0,0.0,0.0,0.0,0.0,0.0,0.0,2.0278,2.2034,2.2602,2.3308,2.3052,2.1376,1.9916,1.799,1.5404,0.0,0.0,0.0,0.0,0.0,0.0,0.0,0.0,0.0,0.0,0.0,0.0,0.0,0.0,0.0,0.0,0.0,0.0,0.0,0.0,0.0,0.0,0.0,0.0,0.0,0.0,0.0,0.0,0.0,0.0,0.0,0.0,0.0,0.0,0.0,0.0,0.0,0.0,0.0,0.0,0.0,0.0,0.0,0.0,0.0,0.0,0.0,0.0,0.0,0.0,0.0,0.0,0.0,0.0,0.0,0.0,0.0,0.0,0.0,0.0,0.0,0.0,0.0,0.0,0.0,0.0,0.0,0.0,0.0,0.0,0.0,0.0,0.0,0.0,0.0,0.0,0.0,0.0,0.0,0.0,0.0,0.0,0.0,0.0,0.0,0.0,0.0,0.0,0.0,0.0,0.0,0.0,0.0,0.0,0.0,0.0,0.0,0.0,0.0,0.0,0.0,0.0,1.821,2.0741,2.2492,2.3041,2.3639,2.3308,2.1632,2.0173,1.821,1.5661,0.0,0.0,0.0,0.0,0.0,0.0,0.0,0.0,0.0,0.0,0.0,0.0,0.0,0.0,0.0,0.0,0.0,0.0,0.0,0.0,0.0,0.0,0.0,0.0,0.0,0.0,0.0,0.0,0.0,0.0,0.0,0.0,0.0,0.0,0.0,0.0,0.0,0.0,0.0,0.0,0.0,0.0,0.0,0.0,0.0,0.0,0.0,0.0,0.0,0.0,0.0,0.0,0.0,0.0,0.0,0.0,0.0,0.0,0.0,0.0,0.0,0.0,0.0,0.0,0.0,0.0,0.0,0.0,0.0,0.0,0.0,0.0,0.0,0.0,0.0,0.0,0.0,0.0,0.0,0.0,0.0,0.0,0.0,0.0,0.0,0.0,0.0,0.0,0.0,0.0,0.0,0.0,0.0,0.0,0.0,0.0,0.0,0.0,0.0,0.0,0.0,0.0,1.8944,2.1071,2.2602,2.3407,2.3499,2.284,2.1255,2.0008,1.81,0.0,0.0,0.0,0.0,0.0,0.0,0.0,0.0,0.0,0.0,0.0,0.0,0.0,0.0,0.0,0.0,0.0,0.0,0.0,0.0,0.0,0.0,0.0,0.0,0.0,0.0,0.0,0.0,0.0,0.0,0.0,0.0,0.0,0.0,0.0,0.0,0.0,0.0,0.0,0.0,0.0,0.0,0.0,0.0,0.0,0.0,0.0,0.0,0.0,0.0,0.0,0.0,0.0,0.0,0.0,0.0,0.0,0.0,0.0,0.0,0.0,0.0,0.0,0.0,0.0,0.0,0.0,0.0,0.0,0.0,0.0,0.0,0.0,0.0,0.0,0.0,0.0,0.0,0.0,0.0,0.0,0.0,0.0,0.0,0.0,0.0,0.0,0.0,0.0,0.0,0.0,0.0,0.0,0.0,0.0,0.0,0.0,0.0,0.0,0.0,0.0,0.0,0.0,1.8981,2.1284,2.2913,2.3444,2.3499,2.3059,2.2016,2.0338,1.8467,1.6505,0.0,0.0,0.0,0.0,0.0,0.0,0.0,0.0,0.0,0.0,0.0,0.0,0.0,0.0,0.0,0.0,0.0,0.0,0.0,0.0,0.0,0.0,0.0,0.0,0.0,0.0,0.0,0.0,0.0,0.0,0.0,0.0,0.0,0.0,0.0,0.0,0.0,0.0,0.0,0.0,0.0,0.0,0.0,0.0,0.0,0.0,0.0,0.0,0.0,0.0,0.0,0.0,0.0,0.0,0.0,0.0,0.0,0.0,0.0,0.0,0.0,0.0,0.0,0.0,0.0,0.0,0.0,0.0,0.0,0.0,0.0,0.0,0.0,0.0,0.0,0.0,0.0,0.0,0.0,0.0,0.0,0.0,0.0,0.0,0.0,0.0,0.0,0.0,0.0,0.0,0.0,0.0,0.0,0.0,0.0,0.0,0.0,0.0,0.0,0.0,0.0,0.0,1.9439,2.1595,2.3114,2.373,2.359,2.3169,2.2346,2.0759,1.9036,1.7257,0.0,0.0,0.0,0.0,0.0,0.0,0.0,0.0,0.0,0.0,0.0,0.0,0.0,0.0,0.0,0.0,0.0,0.0,0.0,0.0,0.0,0.0,0.0,0.0,0.0,0.0,0.0,0.0,0.0,0.0,0.0,0.0,0.0,0.0,0.0,0.0,0.0,0.0,0.0,0.0,0.0,0.0,0.0,0.0,0.0,0.0,0.0,0.0,0.0,0.0,0.0,0.0,0.0,0.0,0.0,0.0,0.0,0.0,0.0,0.0,0.0,0.0,0.0,0.0,0.0,0.0,0.0,0.0,0.0,0.0,0.0,0.0,0.0,0.0,0.0,0.0,0.0,0.0,0.0,0.0,0.0,0.0,0.0,0.0,0.0,0.0,0.0,0.0,0.0,0.0,0.0,0.0,0.0,0.0,0.0,0.0,0.0,0.0,0.0,0.0,0.0,0.0,2.0099,2.1906,2.3224,2.411,2.3785,2.3187,2.24,2.1236,1.9677,1.7734,0.0,0.0,0.0,0.0,0.0,0.0,0.0,0.0,0.0,0.0,0.0,0.0,0.0,0.0,0.0,0.0,0.0,0.0,0.0,0.0,0.0,0.0,0.0,0.0,0.0,0.0,0.0,0.0,0.0,0.0,0.0,0.0,0.0,0.0,0.0,0.0,0.0,0.0,0.0,0.0,0.0,0.0,0.0,0.0,0.0,0.0,0.0,0.0,0.0,0.0,0.0,0.0,0.0,0.0,0.0,0.0,0.0,0.0,0.0,0.0,1.149,0.0,0.0,0.0,0.0,0.0,0.0,0.0,0.0,0.0,0.0,0.0,0.0,0.0,0.0,0.0,0.0,0.0,0.0,0.0,0.0,0.0,0.0,0.0,0.0,0.0,0.0,0.0,0.0,0.0,0.0,0.0,0.0,0.0,0.0,0.0,0.0,0.0,0.0,0.0,0.0,0.0,2.0099,2.1906,2.3224,2.411,2.3785,2.3297,2.2821,2.1357,1.9934,1.854,1.6175,0.0,0.0,0.0,0.0,0.0,0.0,0.0,0.0,0.0,0.0,0.0,0.0,0.0,0.0,0.0,0.0,0.0,0.0,0.0,0.0,0.0,0.0,0.0,0.0,0.0,0.0,0.0,0.0,0.0,0.0,0.0,0.0,0.0,0.0,0.0,0.0,0.0,0.0,0.0,0.0,0.0,0.0,0.0,0.0,0.0,0.0,0.0,0.0,0.0,0.0,0.0,0.0,0.0,0.0,0.0,0.0,0.0,0.0,0.0,0.0,1.2743,0.0,0.0,0.0,0.0,0.0,0.0,0.0,0.0,0.0,0.0,0.0,0.0,0.0,0.0,0.0,0.0,0.0,0.0,0.0,0.0,0.0,0.0,0.0,0.0,0.0,0.0,0.0,0.0,0.0,0.0,0.0,0.0,0.0,0.0,0.0,0.0,0.0,0.0,0.0,0.0,1.9861,2.1778,2.3133,2.3785,2.384,2.3602,2.295,2.1595,2.0283,1.9072,1.6725,0.0,0.0,0.0,0.0,0.0,0.0,0.0,0.0,0.0,0.0,0.0,0.0,0.0,0.0,0.0,0.0,0.0,0.0,0.0,0.0,0.0,0.0,0.0,0.0,0.0,0.0,0.0,0.0,0.0,0.0,0.0,0.0,0.0,0.0,0.0,0.0,0.0,0.0,0.0,0.0,0.0,0.0,0.0,0.0,0.0,0.0,0.0,0.0,0.0,0.0,0.0,0.0,0.0,1.368,1.4093,1.4146,1.4429,1.4801,1.5198,1.4834,1.4388,1.3972,1.4828,0.0,0.0,0.0,0.0,0.0,0.0,0.0,0.0,0.0,0.0,0.0,0.0,0.0,0.0,0.0,0.0,0.0,0.0,0.0,0.0,0.0,0.0,0.0,0.0,1.8449,1.8173,1.6211,0.0,0.0,0.0,0.0,0.0,0.0,0.0,0.0,0.0,0.0,0.0,1.9783,2.1742,2.3078,2.3553,2.395,2.3822,2.2968,2.1906,2.0778,1.9494,1.7403,1.579,0.0,0.0,0.0,0.0,0.0,0.0,0.0,0.0,0.0,0.0,0.0,0.0,0.0,0.0,0.0,0.0,0.0,0.0,0.0,0.0,0.0,0.0,0.0,0.0,0.0,0.0,0.0,0.0,0.0,0.0,0.0,0.0,0.8268,0.8537,0.0,0.0,0.0,0.0,0.0,0.0,0.0,0.0,0.0,0.0,0.0,0.0,0.0,1.2797,1.3614,1.4325,1.487,1.5318,1.5752,1.6059,1.6299,1.6339,1.6527,1.6826,1.7211,0.0,1.5533,1.5772,0.0,0.0,0.0,0.0,0.0,0.0,0.0,0.0,0.0,0.0,0.0,0.0,0.0,0.0,0.0,0.0,0.0,0.0,0.0,0.0,0.0,0.0,2.0136,2.0539,2.0918,2.1138,0.0,1.9125,1.7458,1.6597,1.5496,0.0,0.0,0.0,0.0,0.0,0.0,0.0,2.0594,2.2071,2.3187,2.4036,2.4165,2.3822,2.2968,2.2419,2.1493,1.9912,1.8889,1.7642,1.6105,1.4946,0.0,0.0,0.0,0.0,0.0,0.0,0.0,0.0,0.0,0.0,0.0,0.0,0.0,0.0,0.0,0.0,0.0,0.0,0.0,0.0,0.0,0.0,0.0,0.0,0.0,0.0,0.0,0.0,0.0,0.8549,0.9339,0.9299,0.9446,0.9432,0.0,0.0,0.0,0.0,0.0,0.0,0.0,0.0,0.0,1.3107,1.4015,1.483,1.5551,1.6486,1.7074,1.7328,1.7956,1.8317,1.845,1.8611,1.8747,1.8872,1.9106,1.8783,1.7977,1.7225,1.6533,1.5884,0.0,0.0,0.0,0.0,1.7495,1.8137,1.9164,1.9146,1.8594,1.8393,0.0,0.0,0.0,0.0,0.0,0.0,0.0,0.0,0.0,0.0,2.1585,2.175,2.2071,2.2364,2.2364,2.154,2.0351,0.0,1.799,1.7,1.5515,0.0,0.0,0.0,0.0,1.8614,2.0539,2.2199,2.337,2.3767,2.4055,2.3914,2.3279,2.2876,2.2144,2.0973,1.993,1.8871,1.7715,1.6385,1.5099,0.0,0.0,0.0,0.0,0.0,0.0,0.0,0.0,0.0,0.0,0.0,0.0,0.0,0.0,0.0,0.0,0.0,0.0,0.0,0.0,0.0,0.0,0.0,0.0,0.0,0.0,0.0,0.0,0.9713,1.0461,1.0492,1.0728,1.0755,0.0,0.0,0.0,0.0,0.0,0.0,1.2462,1.336,1.4215,1.495,1.5818,1.6526,1.7048,1.8156,1.8718,1.8731,1.9533,1.9907,1.992,2.0134,2.0167,2.0167,2.0167,2.0107,1.9819,1.8596,1.7767,1.7345,1.7407,1.7688,1.8209,1.9452,2.0264,2.0869,2.197,2.2025,2.1566,2.1273,2.0338,1.9164,1.8265,0.0,0.0,0.0,0.0,1.9824,2.0607,2.1896,2.296,2.296,2.3272,2.3517,2.3517,2.3444,2.2803,0.0,2.0044,1.9109,1.7513,0.0,0.0,0.0,0.0,1.9494,2.0814,2.2437,2.3535,2.3694,2.3969,2.3987,2.3535,2.3224,2.2675,2.1742,2.0753,1.9783,1.8907,1.7604,1.6344,1.5106,0.0,0.0,0.0,0.0,0.0,0.0,0.0,0.0,0.0,0.0,0.0,0.0,0.0,0.0,0.0,0.0,0.0,0.0,0.0,0.0,0.0,0.0,0.0,0.0,0.0,0.0,0.0,0.0,0.0,1.2529,1.2866,0.0,0.0,0.0,0.0,1.2184,1.328,1.3961,1.3975,1.507,1.5845,1.6228,1.7034,1.7649,1.7929,1.8878,1.9319,1.939,1.992,2.0153,2.0153,2.0167,2.0167,2.0167,2.0167,2.0167,2.016,1.9551,1.9232,1.9229,1.9735,2.0536,2.1612,2.2792,2.3804,2.4629,2.5488,2.5267,2.4556,2.4537,2.2923,2.0979,2.0924,2.0338,0.0,0.0,2.176,2.2291,2.3096,2.4005,2.4666,2.4666,2.4959,2.5252,2.5252,2.4959,2.4207,0.0,2.1255,2.0301,1.9783,0.0,1.777,1.8962,1.9527,2.0406,2.198,2.295,2.3694,2.4128,2.4183,2.3987,2.3535,2.348,2.295,2.176,2.1266,2.0521,1.9329,1.8467,1.7494,1.6415,1.5155,0.0,0.0,0.0,0.0,0.0,0.0,0.0,0.0,0.0,0.0,0.0,0.0,0.0,0.0,0.0,0.0,0.0,0.0,0.0,0.0,0.0,0.0,0.0,0.0,0.0,0.0,0.0,0.0,1.3574,1.4041,0.0,1.4084,1.4057,1.4175,1.4549,1.5498,1.6187,1.6326,1.7275,1.7956,1.825,1.8931,1.9345,1.9394,1.996,2.0214,2.0214,2.0615,2.0802,2.0802,2.0802,2.0802,2.0802,2.0802,2.0802,2.0775,2.0575,2.0264,1.9935,2.0644,2.1283,2.1893,2.3065,2.3807,2.4437,2.5416,2.5396,2.4848,2.4816,2.3822,2.262,2.262,2.2254,2.198,2.2657,2.3198,2.3639,2.4189,2.4757,2.5212,2.5212,2.5323,2.5359,2.5051,2.4716,2.4257,2.3669,2.2942,2.2199,2.154,2.0735,2.0374,2.0753,2.1174,2.1723,2.2584,2.3437,2.3987,2.4183,2.4202,2.4146,2.395,2.3932,2.3529,2.2529,2.1833,2.1089,2.0118,1.9311,1.832,1.718,1.6289,1.4981,0.0,0.0,0.0,0.0,0.0,0.0,0.0,0.0,0.0,0.0,0.0,0.0,0.0,0.0,0.0,0.0,0.0,0.0,0.0,0.0,0.0,0.0,0.0,0.0,0.0,1.2532,1.3908,1.4589,1.519,1.5558,1.5464,1.5544,1.5712,1.6099,1.6954,1.7542,1.7729,1.8397,1.8918,1.9212,1.9693,1.9987,2.008,2.0481,2.0681,2.0681,2.0975,2.1109,2.1109,2.1109,2.1109,2.1109,2.1109,2.1109,2.1109,2.1109,2.095,2.0739,2.1627,2.2169,2.2539,2.3533,2.4055,2.4493,2.5398,2.579,2.581,2.5512,2.5014,2.4574,2.4574,2.434,2.4194,2.445,2.4776,2.5084,2.5326,2.5582,2.5784,2.5784,2.5784,2.5674,2.5271,2.4808,2.4367,2.4238,2.3712,2.3169,2.2767,2.2254,2.1943,2.2089,2.2327,2.2638,2.3059,2.373,2.4202,2.4202,2.4202,2.4146,2.395,2.395,2.3547,2.2547,2.1851,2.1163,2.0314,1.9659,1.8797,1.7734,1.6625,1.5297,1.37,0.0,0.0,0.0,0.0,0.0,0.0,0.0,0.0,0.0,0.0,0.0,0.0,0.0,0.0,0.0,0.0,0.0,0.0,0.0,0.0,0.0,0.0,0.0,1.1873,1.3454,1.4897,1.5718,1.6393,1.6647,1.6366,1.6607,1.678,1.678,1.7543,1.8035,1.8022,1.8357,1.8637,1.8918,1.9225,1.9519,1.9813,2.0401,2.0695,2.0695,2.0975,2.1109,2.1109,2.1109,2.1109,2.1109,2.1109,2.1109,2.1109,2.1109,2.1299,2.1664,2.2716,2.3263,2.3653,2.4311,2.4787,2.5169,2.56,2.6626,2.7655,2.6829,2.6573,2.6573,2.6555,2.6555,2.6555,2.6537,2.6518,2.6518,2.6518,2.6573,2.6573,2.6591,2.6591,2.6481,2.6094,2.5396,2.4666,2.4293,2.3529,2.3059,2.3425,2.2858,2.2474,2.2876,2.295,0.0,2.3462,2.3914,2.4202,2.4202,2.4202,2.3987,2.3535,2.3499,2.2986,2.176,2.1328,2.0741,1.9893,1.9512,1.8926,1.81,1.6256,1.4997,1.4327,0.0,0.0,0.0,0.0,0.0,0.0,0.0,0.0,0.0,0.0,0.0,0.0,0.0,0.0,0.0,0.0,0.0,0.0,0.0,0.0,0.0,1.1917,1.2934,1.3094,1.4669,1.6046,1.67,1.7502,1.7969,1.7889,1.8143,1.8317,1.8317,1.8945,1.9132,1.8704,1.8958,1.9065,1.8931,1.9412,1.9826,2.0107,2.0695,2.0989,2.0989,2.1069,2.1109,2.1109,2.1109,2.1109,2.1109,2.1109,2.1109,2.1109,2.1109,2.1172,2.1299,2.2104,2.2606,2.2875,2.3108,2.3839,2.4799,2.5036,2.5878,2.6702,2.6174,2.6018,2.5965,2.5743,2.5656,2.5604,2.5363,2.5101,2.5016,2.5498,2.5575,2.5721,2.6118,2.6409,2.6481,2.6094,2.5396,2.4739,2.4679,2.4238,2.3767,2.3535,2.3602,2.3742,2.3804,2.3822,0.0,2.3969,2.4128,2.4202,2.4202,2.4202,2.3987,2.3535,2.3499,2.2986,2.176,2.1071,2.0319,1.9512,1.9366,1.8926,1.81,1.6447,1.5315,0.0,0.0,0.0,0.0,0.0,0.0,0.0,0.0,0.0,0.0,0.0,0.0,0.0,0.0,0.0,0.0,0.0,0.0,0.0,0.0,0.0,0.0,1.344,1.4652,1.5057,1.5992,1.6857,1.7326,1.8023,1.849,1.849,1.8758,1.8918,1.8918,1.9466,1.9599,1.9132,1.9158,1.9158,1.9118,1.9439,1.9813,2.0227,2.0815,2.1109,2.1109,2.1109,2.1109,2.1109,2.1109,2.1109,2.1109,2.1109,2.1109,2.1109,2.1109,2.1109,0.0,0.0,0.0,0.0,0.0,2.2745,2.3777,2.3854,2.4601,2.5499,2.5076,2.4961,2.4895,2.4589,2.4431,2.4288,2.3922,2.3495,2.3285,2.3925,2.436,2.4791,2.5396,2.6064,2.6481,2.6094,2.5525,2.4977,2.4812,2.4643,0.0,2.4097,2.4262,2.4459,2.4459,2.4312,2.4202,2.4202,2.4202,2.4202,2.4202,2.4202,2.3987,2.3535,2.3352,0.0,0.0,0.0,2.0154,1.9329,1.9146,0.0,0.0,0.0,0.0,0.0,0.0,0.0,0.0,1.5355,1.5626,0.0,0.0,0.0,0.0,0.0,0.0,0.0,0.0,0.0,0.0,0.0,0.0,0.0,0.0,0.0,0.0,1.4945,1.6219,1.7125,1.734,1.7501,1.7702,1.8263,1.8637,1.8637,1.8905,1.9078,1.9078,1.9586,1.976,1.9439,0.0,0.0,0.0,0.0,1.9679,2.0227,2.0815,2.1109,2.1109,2.1109,2.1109,2.1109,2.1109,2.1109,2.1109,2.1109,2.1109,2.1109,2.1109,2.1109,2.1109,2.1109,2.1109,2.1082,2.1127,2.1746,2.2547,2.2511,0.0,0.0,2.3857,2.3704,2.3641,2.3356,2.3142,2.2853,2.2506,2.1945,2.1645,2.228,2.3165,2.3979,2.4503,2.5594,2.6372,2.6042,2.5658,2.5274,2.4926,2.4922,2.4922,2.4922,2.4849,2.4776,2.4776,2.4477,2.4202,2.4202,2.4202,2.4202,2.4202,2.4202,0.0,2.3535,2.3169,2.262,2.1815,2.0955,2.0173,1.9402,1.8999,1.8797,1.8852,1.81,1.7788,1.7989,1.8008,1.8249,1.8694,1.745,1.7433,0.0,0.0,0.0,0.0,0.0,0.0,0.0,0.0,0.0,0.0,0.0,0.0,0.0,0.0,0.0,1.4496,1.5738,1.6767,1.7408,1.8116,1.8597,1.8664,1.9185,1.9546,1.9546,1.9813,1.9973,1.9973,2.0307,2.0281,1.9746,1.9666,1.9546,1.9372,1.9599,1.988,2.0227,2.0815,2.1109,2.1109,0.0,0.0,2.1109,2.1109,2.1109,2.1109,2.1109,2.1109,2.1109,2.1109,2.1109,2.1109,2.1109,2.1109,2.1096,2.142,2.1832,2.2256,2.2496,2.2897,2.336,2.3239,2.3224,2.3165,2.2839,2.2498,0.0,2.1845,2.1338,2.1088,2.1938,2.2853,2.3653,2.4242,2.5113,2.5826,2.5754,2.5433,2.5201,2.5342,2.5571,2.5782,2.5782,2.5197,2.4776,2.4776,2.4477,2.4202,2.4202,2.4202,2.4202,2.4202,2.4202,2.3987,2.3535,2.3425,2.3041,2.2217,2.1101,2.0259,1.9783,1.9402,1.9347,1.9655,1.9201,1.9187,1.9718,1.9891,2.0444,2.1237,1.9696,1.921,0.0,0.0,0.0,0.0,0.0,0.0,0.0,0.0,0.0,0.0,0.0,1.1663,1.2361,0.0,1.4589,1.5517,1.6607,1.7528,1.7969,1.8798,1.9252,1.8958,1.9439,1.98,1.98,2.0067,2.0167,2.0167,2.0508,2.0481,2.004,2.0013,1.9947,1.98,1.9947,2.016,2.0454,2.0895,2.1109,2.1109,2.1109,2.1109,2.1109,2.1109,2.1109,2.1109,2.1109,2.1109,2.1109,2.1109,2.1109,2.1109,2.1109,2.1109,2.1109,2.1299,2.1488,2.1614,2.179,2.1992,2.2104,2.2104,2.2104,2.2048,2.174,2.1432,2.1124,2.0757,2.0226,2.0005,2.0944,2.205,2.3096,2.3566,2.4501,2.5183,2.5055,2.4971,2.5014,2.5286,2.5883,2.6279,2.6279,2.5766,2.5414,2.5414,2.49,2.4514,2.4514,2.433,2.4275,2.4496,2.4514,2.439,2.417,2.3736,2.3151,2.2327,2.1705,2.1193,2.0808,2.0589,2.0613,2.079,2.0589,2.0673,2.0961,2.1261,2.1666,2.2142,2.1551,2.1298,0.0,0.0,0.0,0.0,0.0,0.0,0.0,1.0541,1.0776,1.1708,1.2559,1.3293,1.3906,1.4883,1.5752,1.6402,1.7341,1.8089,1.845,1.9199,1.9546,1.9065,1.9573,1.9973,1.9973,2.0227,2.034,2.034,2.0628,2.0655,2.0414,2.034,2.034,2.034,2.034,2.0521,2.0762,2.0989,2.1109,2.1109,2.1109,2.1109,2.1109,2.1109,2.1109,2.1109,2.1109,2.1109,2.1109,2.1109,2.1109,2.1109,2.1109,2.1109,2.1109,2.1109,2.1109,2.1109,2.1109,2.1109,2.1109,2.1109,2.1109,2.1069,2.0828,2.0548,2.0267,2.004,1.9586,1.934,2.0208,2.1502,2.2663,2.2947,2.386,2.4519,2.4228,2.4435,2.4808,2.5072,2.5898,2.6591,2.6591,2.6298,2.6113,2.6021,2.5341,2.4776,2.4776,2.4459,2.433,2.4629,2.4739,2.4776,2.4776,2.417,2.3389,2.2565,2.251,2.2346,2.1943,2.1925,2.1925,2.1925,2.1925,2.1961,2.2034,2.2364,2.2593,2.2685,2.2986,2.3059,0.8125,0.8644,0.9699,1.0581,1.0995,1.1295,0.0,1.2051,1.2385,1.3547,1.4068,1.4576,1.5385,1.5912,1.6415,1.7005,1.7595,1.813,1.845,1.9025,1.9399,1.9332,2.0067,2.0575,2.0575,2.0842,2.1015,2.1015,2.1042,2.1042,2.1015,2.1015,2.1015,2.1015,2.1015,2.1029,2.1056,2.1096,2.1109,2.1109,2.1109,2.1109,2.1109,2.1109,2.1109,2.1109,2.1109,2.1109,2.1109,2.1109,2.1109,2.1109,2.1109,2.1109,2.1109,2.1109,2.1109,2.1109,2.1109,2.1109,2.1109,2.1109,2.1109,2.1096,2.1069,2.0855,2.0615,2.0588,2.0347,2.0214,2.0902,2.1993,2.2984,2.306,2.3575,2.4007,2.3662,2.3967,2.4421,2.4791,2.5806,2.6591,2.6591,2.6554,2.6389,2.6076,2.5341,2.4776,2.4776,2.4459,2.422,2.4257,2.4606,2.4776,2.4776,2.4702,2.428,2.3407,2.3352,2.3187,2.2785,2.2767,2.2767,2.2767,2.2767,2.295,2.3297,2.3334,2.3602,2.3999,2.4036,2.3639,0.9846,1.0194,1.0955,1.2011,1.2639,1.3133,1.3721,1.3975,1.4335,1.519,1.5858,1.6366,1.6567,1.6981,1.7382,1.7635,1.817,1.8584,1.8731,1.9399,1.9746,1.947,1.9693,1.9987,2.0147,2.0428,2.0668,2.0842,2.1015,2.1109,2.1109,2.1109,2.1109,2.1109,2.1109,2.1109,2.1109,2.1109,2.1109,2.1109,2.1109,2.1109,2.1109,2.1109,2.1109,2.1109,2.1109,2.1109,2.1109,2.1109,2.1109,2.1109,2.1109,2.1109,2.1109,2.1109,2.1109,2.1109,2.1109,2.1109,2.1109,2.1109,2.1109,2.1109,2.1109,2.1029,2.0922,2.0922,2.0842,2.0797,2.1293,2.2076,2.266,2.2554,2.2692,2.281,2.2704,2.3251,2.391,2.4461,2.5672,2.6591,2.6591,2.6591,2.6536,2.6353,2.5839,2.5525,2.5525,2.5157,2.4992,2.5231,2.5414,2.5525,2.5525,2.5051,2.4629,2.428,2.4042,2.3822,2.3657,2.3657,2.3657,2.3657,2.3657,2.373,2.3895,2.3895,2.3987,2.4202,2.4202,2.4018,1.1022,1.145,1.2064,1.3173,1.3961,1.4576,1.5084,1.5431,1.5778,1.6286,1.6901,1.7301,1.7233,1.7502,1.7849,1.7969,1.8488,1.8918,1.8918,1.9613,1.9893,1.9319,1.9172,1.9212,1.9412,1.9853,2.0241,2.0535,2.0895,2.1109,2.1109,2.1109,2.1109,2.1109,2.1109,2.1109,2.1109,2.1109,2.1109,2.1109,2.1109,2.1109,2.1109,2.1109,2.1109,2.1109,2.1109,2.1162,2.1229,2.1229,2.1283,2.1349,2.1349,2.1349,2.1349,2.1349,2.1243,2.1109,2.1109,2.1109,2.1109,2.1109,2.1109,2.1109,2.1109,2.1109,2.1109,2.1109,2.1109,2.1172,2.1488,2.1998,2.2385,2.2262,2.2198,2.2253,2.2481,2.3209,2.3953,2.4523,2.581,2.6719,2.6609,2.6591,2.6591,2.6591,2.6334,2.6149,2.6021,2.5672,2.558,2.5966,2.6021,2.6021,2.6021,2.5378,2.4904,2.4794,2.444,2.4202,2.4202,2.4202,2.4202,2.4202,2.4202,2.4202,2.4202,2.4202,2.4202,2.4202,2.4202,2.4202,1.1102,1.2064,1.2985,1.3841,1.471,1.5431,1.5691,1.6032,1.6326,1.6633,1.6714,1.682,1.7152,1.7219,1.7368,1.7902,1.8488,1.8918,1.8918,1.9439,1.9599,1.9011,1.8691,1.8517,1.8531,1.9305,1.9933,2.0167,2.0775,2.1109,2.1109,2.1109,2.1109,2.1109,2.1109,2.1109,2.1109,2.1109,2.1109,2.1109,2.1109,2.1109,2.1109,2.1109,2.1109,2.1109,2.1109,2.1269,2.1601,2.1601,2.1775,2.1964,2.1964,2.1964,2.1964,2.1964,2.1603,2.1109,2.1109,2.1109,2.1109,2.1109,2.1109,2.1109,2.1109,2.1109,2.1109,2.1109,2.1109,2.1172,2.1488,2.1853,2.2215,2.2529,2.2591,2.274,2.3414,2.4215,2.4946,2.5195,2.6302,2.7031,2.6646,2.6591,2.6591,2.6591,2.6573,2.6426,2.6058,2.5672,2.558,2.5966,2.6021,2.6021,2.6021,2.5635,2.5249,2.4812,2.444,2.4202,2.4202,2.4202,2.4202,2.4202,2.4202,2.4202,2.4202,2.4202,2.4202,2.4202,2.4202,2.4202,1.202,1.2998,1.3854,1.4736,1.5618,1.6339,1.6633,1.6927,1.7166,1.7072,1.6847,1.6794,1.7152,1.7206,1.746,1.821,1.8998,1.9506,1.9506,2.0013,2.0094,1.9305,1.8958,1.8624,1.8237,1.8637,1.9132,1.9626,2.0201,2.0615,2.0815,2.1002,2.1109,2.1109,2.1109,2.1109,2.1109,2.1109,2.1109,2.1109,2.1109,2.1109,2.1109,2.1109,2.1109,2.1109,2.1109,2.1283,2.1614,2.1614,2.1789,2.1991,2.1991,2.1991,2.1991,2.1991,2.1857,2.1697,2.1697,2.1697,2.1657,2.147,2.1403,2.1363,2.1162,2.1109,2.1109,2.1109,2.1109,2.1109,2.1235,2.1362,2.1551,2.1866,2.248,2.3124,2.3809,2.4992,2.5999,2.6323,2.6789,2.7141,2.6995,2.6756,2.6591,2.6591,2.6591,2.6536,2.6389,2.6261,2.6224,2.6371,2.6371,2.6371,2.6371,2.6058,2.5764,2.5617,2.5231,2.501,2.501,2.501,2.501,2.501,2.501,2.501,2.501,2.501,2.501,2.501,2.501,2.501,1.2918,1.3923,1.4736,1.5511,1.6286,1.6965,1.7152,1.734,1.7367,1.6965,1.6433,1.6179,1.6522,1.6576,1.6898,1.7849,1.8838,1.9492,1.9492,2.0,2.008,1.9305,1.9038,1.8731,1.825,1.829,1.8571,1.9158,1.9746,2.0254,2.0655,2.0949,2.1109,2.1109,2.1109,2.1109,2.1109,2.1109,2.1109,2.1109,2.1109,2.1109,2.1109,2.1109,2.1109,2.1109,2.1109,2.1336,2.171,2.171,2.1937,2.2298,2.2298,2.2298,2.2298,2.2298,2.2298,2.2271,2.2058,2.1991,2.1951,2.1764,2.1695,2.1574,2.1323,2.1189,2.1109,2.1109,2.1109,2.1109,2.1235,2.1299,2.1425,2.2167,2.2904,2.376,2.4764,2.5913,2.6908,2.7217,2.7431,2.7563,2.7416,2.7068,2.6793,2.6793,2.6683,2.6591,2.6591,2.6591,2.6591,2.6591,2.6591,2.6591,2.6591,2.626,2.6021,2.6021,2.5635,2.5414,2.5414,2.5414,2.5414,2.5414,2.5414,2.5414,2.5414,2.5414,2.5414,2.5414,2.5414,2.5414,1.3761,1.4803,1.5618,1.6179,1.6804,1.7219,1.7206,1.7206,1.7032,1.6353,1.5558,1.5035,1.5297,1.5337,1.5725,1.6978,1.8143,1.8931,1.8945,1.9452,1.9613,1.9038,1.8971,1.8851,1.8544,1.8237,1.8262,1.8905,0.0,2.004,2.0615,2.0949,2.1109,2.1109,2.1109,2.1109,2.1109,2.1109,2.1109,2.1109,2.1109,2.1109,2.1109,2.1109,2.1109,2.1109,2.1109,2.1443,2.1991,2.1991,2.2338,2.2928,2.2928,2.2928,2.2928,2.2928,2.2928,2.2847,2.2218,2.2031,2.2031,2.2017,2.1817,2.1655,2.1641,2.1376,2.1149,2.1149,2.1149,2.1212,2.1515,2.1628,2.2006,2.3293,2.3961,2.4702,2.6311,2.7177,2.7656,2.7876,2.8213,2.826,2.7895,2.7453,2.7196,2.7178,2.6866,2.6609,2.6591,2.6591,2.6591,2.6591,2.6591,2.6591,2.6591,2.6278,2.6039,2.6039,2.569,2.5488,2.5488,2.5488,2.5488,2.5488,2.5488,2.5488,2.5488,2.5488,2.5488,2.5488,2.5488,2.5488,1.4776,1.5906,1.679,1.6938,1.7259,1.7474,1.7246,1.7206,1.6911,1.5832,1.475,1.4135,1.4643,1.4563,1.495,1.6553,1.8009,1.8998,1.9225,1.976,1.9987,1.9626,1.9573,1.9372,1.8865,1.8544,1.8624,1.9212,1.9399,1.9733,2.0321,2.0828,2.1109,2.1109,2.1109,2.1109,2.1109,2.1109,2.1109,2.1109,2.1109,2.1109,2.1109,2.1109,2.1109,2.1109,2.1109,2.1443,2.1991,2.1991,2.2338,2.2928,2.2928,2.2928,2.2928,2.2928,2.2928,2.2914,2.2686,2.2645,2.2605,2.2378,2.2258,2.2164,2.1937,2.1817,2.1764,2.1764,2.1764,2.1775,2.1947,2.2504,2.3194,2.382,2.5117,2.6476,2.7099,2.7942,2.8641,2.8728,2.8531,2.826,2.7895,2.773,2.7564,2.727,2.7086,2.6921,2.6628,2.6591,2.6591,2.6591,2.6591,2.6591,2.6591,2.6481,2.6426,2.6426,2.6334,2.6279,2.6279,2.6279,2.6279,2.6279,2.6279,2.6279,2.6279,2.6279,2.6279,2.6279,2.6279,2.6279,1.5538,1.6496,1.7233,1.7367,1.742,1.7367,1.7072,1.671,1.6134,1.5044,1.3774,1.3039,1.3627,1.3721,1.4202,1.5698,1.7288,1.8397,1.8557,1.9092,1.9452,1.9426,1.9412,1.9332,1.9132,1.8851,1.8918,1.9519,1.9497,1.9679,2.0388,2.0855,2.1109,2.1109,2.1109,2.1109,2.1109,2.1109,2.1109,2.1109,2.1109,2.1109,2.1109,2.1109,2.1109,2.1109,2.1109,2.1443,2.1991,2.1991,2.2338,2.2928,2.2928,2.2928,2.2928,2.2928,2.2928,2.2928,2.2928,2.2928,2.2832,2.2672,2.2525,2.2392,2.2218,2.2084,2.1991,2.1991,2.1991,2.2082,2.2428,2.31,2.3959,2.4782,2.6105,2.7323,2.784,2.8498,2.8975,2.8975,2.881,2.8572,2.8352,2.815,2.7967,2.7746,2.7563,2.7361,2.7141,2.6811,2.6591,2.6591,2.6591,2.6591,2.6591,2.6591,2.6591,2.6591,2.6591,2.6591,2.6591,2.6591,2.6591,2.6591,2.6591,2.6591,2.6591,2.6591,2.6591,2.6591,2.6591,2.6591,1.6214,1.6844,1.7313,1.7527,1.7393,1.7099,1.662,1.5885,1.5003,1.4041,1.2705,1.1926,1.2556,1.2879,1.3494,1.4807,1.6455,1.7542,1.7569,1.8076,1.8544,1.8838,1.8865,1.8985,1.9279,1.9118,1.9225,1.9813,1.9626,1.9826,2.0628,2.0949,2.1109,2.1109,2.1109,2.1109,2.1109,2.1109,2.1109,2.1109,2.1109,2.1109,2.1109,2.1109,2.1109,2.1109,2.1109,2.1443,2.1991,2.1991,2.2338,2.2928,2.2928,2.2928,2.2928,2.2928,2.2928,2.2928,2.2928,2.2928,2.2928,2.2928,2.2686,2.2472,2.2472,2.2298,2.2098,2.2098,2.2098,2.2296,2.2901,2.3731,2.4632,2.5878,2.6979,2.7953,2.8457,2.8815,2.8975,2.8975,2.8975,2.8975,2.8975,2.87,2.8462,2.8407,2.8077,2.7877,2.7822,2.716,2.6738,2.6738,2.6738,2.6738,2.6738,2.6738,2.6719,2.6664,2.6664,2.6646,2.6591,2.6591,2.6591,2.6591,2.6591,2.6591,2.6591,2.6591,2.6591,2.6591,2.6591,2.6591,1.6871,1.73,1.7514,1.7326,1.7233,1.6938,1.5858,1.5124,1.4282,1.2893,1.1672,1.1069,1.1899,1.2301,1.3013,1.474,1.6281,1.7367,1.7555,1.7889,1.8237,1.8531,1.8571,1.8677,1.8971,1.9172,1.9533,2.0107,2.0107,2.0254,2.0655,2.0949,2.1109,2.1109,2.1109,2.1109,2.1109,2.1109,2.1109,2.1109,2.1109,2.1109,2.1109,2.1109,2.1109,2.1109,2.1109,0.0,2.1991,2.1991,2.2338,2.2928,2.2928,2.2928,2.2928,2.2928,2.2928,2.2928,2.2928,2.2928,2.2928,2.2928,2.2832,2.2779,2.2779,2.2752,2.2712,2.2712,2.2712,2.2862,2.3276,2.4737,2.6166,2.6368,2.7843,2.9198,2.8929,2.8975,2.8975,2.8975,2.8975,2.8975,2.8975,2.892,2.8773,2.8443,2.8333,2.8168,2.7877,2.7711,2.762,2.762,2.762,2.762,2.762,2.762,2.7416,2.7105,2.7068,2.694,2.6609,2.6591,2.6591,2.6591,2.6591,2.6591,2.6591,2.6591,2.6591,2.6591,2.6591,2.6591,1.7085,1.742,1.7515,1.7273,1.6965,1.6442,1.5204,1.4242,1.3227,1.1891,1.0841,1.0358,1.1082,1.1557,1.2331,1.3814,1.5284,1.6339,1.6633,1.7061,1.7515,1.7969,1.8156,1.8424,1.8878,1.9199,1.9613,2.0187,2.0167,2.0428,2.0882,2.1029,2.1109,2.1109,2.1109,2.1109,2.1109,2.1109,2.1109,2.1109,2.1109,2.1109,2.1109,2.1109,2.1109,2.1109,2.1109,2.1443,2.1991,2.1991,2.2338,2.2928,2.2928,2.2928,2.2928,2.2928,2.2928,2.2928,2.2928,2.2928,2.2928,2.2928,2.2928,2.2928,2.2928,2.2928,2.2928,2.3133,2.3133,2.3379,2.4377,2.5718,2.6923,2.7494,2.8623,2.947,2.9067,2.8975,2.8975,2.8975,2.8975,2.8975,2.8975,2.8975,2.892,2.8737,2.87,2.8627,2.8425,2.8407,2.8242,2.7877,2.7822,2.7822,2.7822,2.7822,2.7656,2.7196,2.7178,2.6995,2.6609,2.6591,2.6591,2.6591,2.6591,2.6591,2.6591,2.6591,2.6591,2.6591,2.6591,2.6591,1.7192,1.746,1.7475,1.7112,1.6576,1.5738,1.4442,1.3227,1.2087,1.0975,1.006,0.9702,1.0291,1.0795,1.1522,1.2812,1.4202,1.5257,1.5671,1.6246,1.6834,1.7422,1.7742,1.8156,1.8771,1.9158,1.9586,2.0094,2.0254,2.0561,2.1082,2.1109,2.1109,2.1109,2.1109,2.1109,2.1109,2.1109,2.1109,2.1109,2.1109,2.1109,2.1109,2.1109,2.1109,2.1109,2.1172,2.1531,2.2028,2.2161,2.2498,2.2916,2.2969,2.2928,2.2928,2.2928,2.2928,2.2928,2.2928,2.2928,2.2928,2.2928,2.2928,2.2928,2.2928,2.2928,2.2996,2.3338,2.3543,2.4074,2.536,2.6616,2.7832,2.8862,2.9404,2.9489,2.9177,2.9048,2.8975,2.8975,2.8975,2.8975,2.8975,2.8975,2.8975,2.8975,2.8975,2.8975,2.8975,2.8975,2.8737,2.8095,2.8079,2.8079,2.8079,2.8079,2.7914,2.7471,2.7435,2.727,2.6848,2.6848,2.6848,2.6848,2.6848,2.6848,2.6848,2.6848,2.6848,2.6848,2.6848,2.6848,1.7395,1.7555,1.7382,1.6616,1.5912,1.503,1.332,1.2011,1.0902,1.0023,0.9312,0.9072,0.9688,1.002,1.0683,1.2158,1.3414,1.4496,1.5324,1.5939,1.6576,1.7166,1.7448,1.7862,1.8477,1.9038,1.9492,1.9813,2.0334,2.0775,2.1096,2.1109,2.1109,2.1109,2.1109,2.1109,2.1109,2.1109,2.1109,2.1109,2.1109,2.1109,2.1109,2.1109,2.1109,2.1109,2.1425,2.1742,0.0,2.2655,2.2894,2.2956,2.3229,2.3201,2.2928,2.2928,2.2928,2.2928,2.2928,2.2928,2.2928,2.2928,2.2928,2.2928,2.2928,2.2928,2.2996,2.3338,2.4074,2.5008,2.5831,2.7602,2.9323,3.0356,3.0105,2.9562,2.9525,2.9232,2.8975,2.8975,2.8975,2.8975,2.8975,2.8975,2.8975,2.8975,2.8975,2.8975,2.8975,2.8975,2.8957,2.8883,2.8865,2.8865,2.8865,2.8865,2.87,2.8315,2.8278,2.8095,2.773,2.7711,2.7711,2.7711,2.7711,2.7711,2.7711,2.7711,2.7711,2.7711,2.7711,2.7711,1.7166,1.7501,1.7368,1.6536,1.5698,1.4669,1.2893,1.1618,1.0519,0.9606,0.9085,0.8925,0.9311,0.9659,1.0221,1.1329,1.2358,1.332,1.4173,1.5003,1.5745,1.6286,1.6927,1.7541,1.7903,1.8651,1.9292,1.976,2.0347,2.0722,2.0842,2.1015,2.1109,2.1109,2.1109,2.1109,2.1109,2.1109,2.1109,2.1109,2.1109,2.1109,2.1109,2.1109,2.1109,2.1109,2.1425,2.2082,0.0,2.3014,2.3369,2.3757,2.3482,2.3174,2.2928,2.2928,2.2928,2.2928,2.2928,2.2928,2.2928,2.2928,2.2928,2.2928,2.2928,2.2928,2.2996,2.3611,2.4481,2.5547,2.6769,2.8691,3.0366,3.0692,3.0534,3.0167,2.9672,2.9452,2.9269,2.903,2.8975,2.8975,2.8975,2.8975,2.8975,2.8975,2.8975,2.8975,2.8975,2.8975,2.8975,2.8975,2.8975,2.8975,2.8975,2.8975,2.881,2.8425,2.8388,2.8205,2.784,2.7822,2.7822,2.7822,2.7822,2.7822,2.7822,2.7822,2.7822,2.7822,2.7822,2.7822,1.6513,1.7034,1.7088,1.6126,1.5209,1.4001,1.2305,1.1009,0.9967,0.9231,0.8924,0.8871,0.9044,0.9285,0.9713,1.0595,1.1396,1.2251,1.324,1.4148,1.4923,1.5511,1.6273,1.6991,1.746,1.8343,1.9132,1.9639,2.0214,2.0548,2.0548,2.0909,2.1109,2.1109,2.1109,2.1109,2.1109,2.1109,2.1109,2.1109,2.1109,2.1109,2.1109,2.1172,2.1235,2.1299,2.1915,2.2783,0.0,2.3799,2.4045,2.4407,2.4003,2.3549,2.3079,2.3174,2.3133,2.3065,2.3065,2.2996,2.2928,2.2928,2.2928,2.2928,2.2928,2.2928,2.3065,2.383,2.509,2.6686,2.8362,2.9935,3.1065,3.0965,3.0882,3.0626,3.0057,2.9837,2.9672,2.9397,2.925,2.9159,2.9159,2.9067,2.8975,2.8975,2.8975,2.8975,2.8975,2.8975,2.8975,2.8975,2.8975,2.8975,2.8975,2.8975,2.8865,2.859,2.8572,2.8443,2.8189,2.8132,2.8132,2.8132,2.8132,2.8132,2.8132,2.8132,2.8132,2.8132,2.8132,2.8132,1.5558,1.6273,1.6433,1.5316,1.4095,1.2839,1.1343,1.007,0.9138,0.8871,0.8804,0.8804,0.8804,0.8818,0.9112,0.998,1.0621,1.141,1.2623,1.3574,1.4309,1.4941,1.5484,1.6192,1.7125,1.8223,1.9052,1.9403,1.9907,0.0,2.0241,2.0788,2.1109,2.1109,2.1109,2.1109,2.1109,2.1109,2.1109,2.1109,2.1109,2.1109,2.1109,2.1425,2.1614,2.1677,2.2981,2.379,0.0,2.5156,2.5124,2.4553,2.483,2.4355,2.3532,2.384,2.3747,2.3406,2.3406,2.3201,2.2928,2.2928,2.2928,2.2928,2.2928,2.2928,2.3065,2.383,2.6017,2.8674,3.0779,3.1377,3.1377,3.1377,3.1066,3.0791,3.0772,3.0461,3.0185,3.0185,2.9855,2.9562,2.9562,2.9232,2.8975,2.8975,2.8975,2.8975,2.8975,2.8975,2.8975,2.8975,2.8975,2.8975,2.8975,2.8975,2.8975,2.8975,2.8975,2.8975,2.8975,2.8975,2.8975,2.8975,2.8975,2.8975,2.8975,2.8975,2.8975,2.8975,2.8975,2.8975,1.4402,1.507,1.5284,1.4309,1.332,1.2265,1.1015,0.994,0.9124,0.8871,0.8804,0.8804,0.8804,0.8804,0.9031,0.9713,1.014,1.0875,1.2251,1.3213,1.4082,1.4914,1.5832,1.686,1.7956,0.0,1.8918,1.9613,2.0013,2.0321,2.0521,2.0895,2.1109,2.1109,2.1109,2.1109,2.1109,2.1109,2.1109,2.1109,2.1109,2.1109,2.1109,2.1425,2.1978,2.2654,2.3589,2.4748,2.6111,2.626,2.6381,2.6487,2.6166,2.5829,2.5515,2.5173,2.4832,2.4413,2.3952,2.3406,2.2928,2.2928,2.2928,2.2928,2.2928,2.2928,2.3324,2.5532,2.7137,2.8674,3.0843,3.1377,3.1377,3.1377,3.1286,3.1121,3.0846,3.0699,3.0516,3.0259,3.0094,2.991,2.9678,2.947,2.9287,2.903,2.8975,2.8975,2.8975,2.8975,2.8975,2.8975,2.8975,2.8975,2.8975,2.8975,2.8975,2.8975,2.8975,2.8975,2.8975,2.8975,2.8975,2.8975,2.8975,2.8975,2.8975,2.8975,2.8975,2.8975,2.8975,2.8975,1.2746,1.3507,1.3774,1.296,1.2225,1.1396,1.0479,0.9633,0.9004,0.8844,0.8804,0.8804,0.8804,0.8804,0.8965,0.9446,0.9766,1.0421,1.1784,1.2801,1.3975,1.5343,1.6393,1.7368,0.0,1.8517,1.8971,1.9746,2.0067,2.0361,2.0655,2.0949,2.1109,2.1109,2.1109,2.1109,2.1109,2.1109,2.1109,2.1109,2.1109,2.1109,2.1109,2.1614,2.2341,2.3325,2.4255,2.5623,0.0,2.7177,2.7314,2.7459,2.7041,2.6816,2.6632,2.6124,2.5595,2.5075,2.4428,2.3611,2.2928,2.2928,2.2928,2.2928,2.2928,2.3065,2.387,2.6388,2.7668,2.8674,3.0843,3.1377,3.1377,3.1377,3.1377,3.1304,3.1066,3.1011,3.0937,3.0699,3.0534,3.0351,3.0075,2.991,2.9727,2.9489,2.9305,2.9214,2.9214,2.9067,2.8975,2.8975,2.8975,2.8975,2.8975,2.8975,2.8975,2.8975,2.8975,2.8975,2.8975,2.8975,2.8975,2.8975,2.8975,2.8975,2.8975,2.8975,2.8975,2.8975,2.8975,2.8975,0.0,1.1663,1.2011,1.1442,1.0915,1.0385,0.9809,0.9218,0.0,0.8804,0.8804,0.8804,0.8804,0.8804,0.8911,0.9191,0.9526,1.014,1.1322,1.2625,1.4162,1.6174,1.7101,1.7742,1.805,1.8597,1.9172,1.976,2.0054,2.0334,2.0628,2.0895,2.1056,2.1082,2.1082,2.1082,2.1109,2.1109,2.1109,2.1109,2.1109,2.1109,2.1109,2.179,2.2654,0.0,2.5071,2.6371,2.7642,2.796,2.79,2.7616,2.7599,2.7481,2.73,2.6874,2.6242,2.548,2.4766,2.3816,2.2928,2.2928,2.2928,2.2928,2.2928,2.3406,2.4428,2.6455,2.7602,2.8674,3.0779,3.1313,3.1377,3.1377,3.1377,3.1377,3.1377,3.1377,3.1377,3.1377,3.1084,3.0827,3.0791,3.0479,3.0241,3.0204,2.9874,2.9599,2.958,2.925,2.903,2.903,2.8993,2.8993,2.9012,2.8993,2.8975,2.8975,2.8975,2.8975,2.8975,2.8975,2.8975,2.8975,2.8975,2.8975,2.8975,2.8975,2.8975,2.8975,2.8975,2.8975,0.8925,0.0,1.0563,1.043,1.0154,0.9793,0.0,0.9031,0.8804,0.8804,0.8804,0.8804,0.8804,0.8804,0.8978,0.9499,0.982,1.0581,1.2248,1.4271,1.5979,1.7141,1.7662,1.8089,1.8664,1.8838,1.9172,1.976,1.9867,2.0027,2.0321,2.0401,2.0548,2.0775,2.0775,2.0882,2.1109,2.1109,2.1109,2.1109,2.1109,2.1109,2.1109,2.179,2.3029,2.4748,2.5623,2.6978,2.8677,2.8737,2.8737,2.8636,2.8667,2.8997,2.9315,2.8145,2.7344,2.6522,2.5292,2.402,2.2928,2.2928,2.2928,2.2928,2.2928,2.3406,2.436,2.5898,2.7035,2.823,3.0083,3.0797,3.1055,3.1313,3.1377,3.1377,3.1377,3.1377,3.1377,3.1377,3.1304,3.1139,3.0846,3.0717,3.0552,3.0241,3.0112,2.9947,2.9617,2.9489,2.9434,2.9434,2.9159,2.9104,2.9397,2.9159,2.8975,2.8975,2.8975,2.8975,2.8975,2.8975,2.8975,2.8975,2.8975,2.8975,2.8975,2.8975,2.8975,2.8975,2.8975,2.8975,0.8056,0.8738,0.9352,0.9486,0.9392,0.9232,0.9058,0.8898,0.8804,0.8804,0.8804,0.8804,0.8804,0.8884,0.9124,0.9606,1.0154,1.1276,1.3494,1.5491,1.7058,1.7889,1.8384,1.8771,0.0,1.9132,1.9319,1.9773,1.98,1.992,2.0214,2.0167,2.0374,2.0668,2.0681,2.0815,2.1109,2.1109,2.1109,2.1109,2.1235,2.1362,2.1362,2.2355,2.3713,2.5317,2.6172,2.7461,2.8975,2.8975,2.8975,2.8975,2.8975,2.936,2.9744,2.8557,2.7551,2.665,2.545,2.4088,2.2928,2.2928,2.2928,2.2928,2.2928,2.327,2.402,2.5225,2.6234,2.7435,2.9347,3.0148,3.0538,3.1249,3.1377,3.1377,3.1377,3.1377,3.1377,3.1377,3.1377,3.1304,3.1102,3.1066,3.0992,3.0772,3.0589,3.0387,3.0167,2.9965,2.9855,2.9855,2.9672,2.9544,2.9562,2.9379,2.9177,2.8993,2.8975,2.8975,2.8975,2.8975,2.8975,2.8975,2.8975,2.8975,2.8975,2.8975,2.8975,2.8975,2.8975,2.8975,0.7739,0.815,0.8482,0.8791,0.8911,0.8938,0.8938,0.8938,0.8938,0.8938,0.8911,0.8898,0.8991,0.9178,0.9484,0.9953,1.0902,1.2412,1.4807,1.6402,1.7635,1.8397,1.9011,0.0,1.943,1.943,1.9466,1.972,1.9733,1.984,2.0094,2.0094,2.0241,2.0535,2.0548,2.0681,2.0975,2.1069,2.1109,2.1109,2.1425,2.1664,2.1853,2.3106,2.4456,2.5867,2.6719,0.0,2.8975,2.8975,2.8975,2.8975,2.8975,2.9232,2.9495,2.84,2.7369,2.6333,2.5107,2.3884,2.2928,2.2928,2.2928,2.2928,2.2928,2.3133,2.3543,2.4399,2.536,2.6501,2.8477,2.9282,2.9935,3.0991,3.1249,3.1313,3.1377,3.1377,3.1377,3.1377,3.1377,3.1377,3.1377,3.1377,3.1377,3.1377,3.1102,3.0864,3.0791,3.0497,3.0296,3.0296,3.0241,3.0057,2.969,2.9678,2.9434,2.9085,2.9012,2.8975,2.8975,2.8975,2.8975,2.8975,2.8975,2.8975,2.8975,2.8975,2.8975,2.8975,2.8975,2.8975,0.7739,0.815,0.8536,0.9004,0.9365,0.9552,0.9552,0.9552,0.9552,0.9552,0.9352,0.9297,0.979,0.9923,1.0327,1.1404,1.3159,1.4713,1.5565,0.0,1.8036,1.8437,0.0,1.943,1.943,1.943,1.9444,1.9484,1.9439,1.9452,1.9492,1.9506,1.9639,1.992,1.9933,2.0067,2.0361,2.0855,2.1109,2.1109,2.1425,2.2041,2.2889,2.3636,2.5056,2.684,0.0,2.8002,2.8975,2.8975,2.8975,2.8975,2.8975,2.9232,2.9459,2.8166,2.7154,2.6202,2.3961,2.3065,2.2928,2.2928,2.2928,2.2928,2.2928,2.2928,2.2996,2.3201,2.4413,2.5965,2.7235,2.823,2.9233,3.0213,3.075,3.1073,3.1313,3.1377,3.1377,3.1377,3.1377,3.1377,3.1377,3.1377,3.1377,3.1377,3.1322,3.1176,3.0827,3.0736,3.0699,3.0699,3.0406,3.0167,3.0112,2.9782,2.9544,2.9489,2.9177,2.8975,2.8975,2.8975,2.8975,2.8975,2.8975,2.8975,2.8975,2.8975,2.8975,2.8975,2.8975,2.8975,0.7739,0.815,0.8576,0.9299,0.9699,0.9913,0.9913,1.0167,1.0341,1.0224,1.0047,1.0087,1.0514,1.0683,1.1335,1.3026,1.4496,1.5631,1.6219,1.7301,1.8143,0.0,0.0,1.943,1.943,1.943,1.943,1.943,1.943,1.943,1.943,1.943,1.9506,1.9786,1.98,1.9947,2.0227,2.0494,2.0722,2.0882,2.143,2.2247,2.3387,2.444,2.5745,2.7323,0.0,2.8379,2.8975,2.8975,2.8975,2.8975,2.8975,2.9085,2.9064,2.7554,2.6584,2.5708,2.3826,2.3201,2.3133,2.2928,2.2928,2.2928,2.2928,2.2928,2.2928,2.2928,2.3611,2.4684,2.5749,2.6686,2.7766,2.9347,3.0018,3.0538,3.1249,3.1377,3.1377,3.1377,3.1377,3.1377,3.1377,3.1377,3.1377,3.1377,3.1377,3.1304,3.1139,3.1102,3.1102,3.1102,3.0937,3.0754,3.0534,3.0351,2.9947,2.9287,2.9287,2.9214,2.8993,2.8975,2.8975,2.8975,2.8975,2.8975,2.8975,2.8975,2.8975,2.8993,2.9195,2.9305,0.7672,0.8096,0.8576,0.9299,0.9806,1.0154,1.0287,1.0782,1.1142,1.0948,1.0948,1.1095,1.139,1.181,1.2681,1.4442,1.5458,1.6219,1.674,1.7582,1.8237,1.8464,1.9011,1.943,1.943,1.943,1.943,1.943,1.943,1.943,1.943,1.943,1.9466,1.9693,1.9693,1.98,2.0027,2.0027,2.0214,2.0575,2.132,2.2447,2.3901,2.5162,2.6493,2.7882,2.8379,2.8755,2.8975,2.8975,2.8975,2.8975,2.8975,2.8916,2.8589,2.7378,2.6359,2.5419,2.4217,2.3679,2.3475,2.3065,2.2928,2.2928,2.2928,2.2928,2.2928,2.2928,2.3133,2.3611,2.4617,2.5629,2.6835,2.874,2.9543,3.0213,3.1184,3.1377,3.1377,3.1377,3.1377,3.1377,3.1377,3.1377,3.1377,3.1377,3.1377,3.1377,3.1377,3.1377,3.1377,3.1377,3.1377,3.1212,3.0827,3.0791,3.0351,2.9342,2.9544,2.958,2.9287,2.9269,2.9214,2.9122,2.9122,2.9067,2.8975,2.8975,2.903,2.9122,2.9434,2.9617,0.7504,0.7946,0.8482,0.8791,0.9499,1.0261,1.0808,1.1383,1.1832,1.1819,1.1984,1.2265,1.261,1.3534,1.4522,1.5217,1.6072,1.6754,1.7125,0.0,1.8464,1.849,1.9011,1.943,1.943,1.943,1.943,1.943,1.943,1.943,1.943,1.943,1.943,1.9457,1.9457,1.947,1.9484,1.9484,1.9706,2.0267,2.121,2.2698,2.4535,2.5598,2.7099,2.8856,2.8916,2.8975,2.8975,2.8975,2.8975,2.8975,2.8975,2.8618,2.8048,2.7985,2.714,2.5861,2.5123,2.4481,2.3816,2.3133,2.2928,2.2928,2.2928,2.2928,2.2928,2.2928,2.3133,2.3611,2.436,2.5846,2.74,2.8576,2.9626,3.0555,3.1249,3.1377,3.1377,3.1377,3.1377,3.1377,3.1377,3.1377,3.1377,3.1377,3.1377,3.1377,3.1377,3.1377,3.1377,3.1377,3.1377,3.1212,3.0827,3.0791,3.0589,3.0149,3.013,3.0149,3.0112,3.0112,2.9929,2.9544,2.9586,2.9342,2.8975,2.8975,2.9177,2.9586,2.9562,2.9782,0.7513,0.7799,0.8232,0.8884,0.9564,1.0283,1.1056,1.2011,1.2799,1.3173,1.348,1.3601,1.3347,1.4269,1.5204,1.5605,1.6406,1.7088,1.7434,1.7876,1.821,1.821,1.8571,1.8824,1.8824,1.8985,1.9092,1.9092,1.9265,1.943,1.943,1.943,1.943,1.943,1.943,1.943,1.943,1.943,1.9479,1.9693,2.0704,2.2348,2.4607,2.5414,2.6936,2.8975,2.8975,2.8975,2.8975,2.8975,2.8975,2.8975,2.8975,2.8737,2.8271,2.8114,2.7445,2.652,2.5363,2.466,2.4156,2.3201,2.2928,2.2928,2.2928,2.2928,2.2928,2.2928,2.3338,2.3952,2.4617,2.5629,2.6969,2.8691,2.9543,3.0278,3.1184,3.1377,3.1377,3.1377,3.1377,3.1377,3.1377,3.1377,3.1377,3.1377,3.1377,3.1377,3.1377,3.1377,3.1377,3.1377,3.1377,3.1322,3.1176,3.1157,3.1102,3.0937,3.0699,3.0461,3.0204,3.0204,3.013,2.9965,2.9709,2.9549,2.9342,2.9342,2.9434,2.958,3.0094,3.0406,0.7665,0.7842,0.8218,0.8911,0.959,1.0363,1.1429,1.2625,1.3627,1.4122,1.4522,1.4643,1.4106,1.479,1.5484,0.0,1.6486,1.7192,1.7528,1.7849,1.7995,1.7995,1.8303,1.849,1.849,1.8758,1.8918,1.8918,1.9199,1.943,1.943,1.943,1.943,1.943,1.943,1.943,1.943,1.943,1.943,1.943,2.0261,2.1906,2.4332,2.5169,2.6789,2.881,2.892,2.8975,2.8975,2.8975,2.8975,2.8975,2.8975,2.8874,2.8612,2.8506,2.7961,2.7057,2.5835,2.5019,2.4299,2.3243,2.2928,2.2928,2.2928,2.2928,2.2928,2.2928,2.3406,2.4292,2.5345,2.6151,2.7102,2.9003,2.9805,3.0408,3.1249,3.1377,3.1377,3.1377,3.1377,3.1377,3.1377,3.1377,3.1377,3.1377,3.1377,3.1377,3.1377,3.1377,3.1377,3.1377,3.1377,3.1377,3.1377,3.1377,3.1377,3.1377,3.1121,3.0846,3.0589,3.0571,3.0516,3.0387,3.0112,2.9892,2.9764,2.9764,2.9837,2.9965,3.0534,3.0846,0.7979,0.815,0.8469,0.8738,0.9472,1.0514,1.1971,1.324,1.4175,1.4482,1.5003,1.5324,1.5062,1.5204,1.5498,1.5778,1.6326,1.6914,1.7502,1.7849,1.7995,1.7995,1.8303,1.8477,1.8477,1.8744,1.8918,1.8918,1.9185,1.9417,1.9417,1.9417,1.9417,1.9417,1.943,1.943,1.943,1.943,1.943,1.943,1.9996,2.145,2.363,2.4999,2.6592,2.8407,2.881,2.8975,2.8975,2.8975,2.8975,2.8975,2.8975,2.8975,2.903,2.9415,2.8771,2.752,2.6745,2.5631,2.4347,2.3243,2.2928,2.2928,2.2928,2.2928,2.2928,2.2928,2.3406,2.4481,2.6588,2.7419,2.8097,2.9478,3.0343,3.1009,3.1313,3.1377,3.1377,3.1377,3.1377,3.1377,3.1377,3.1377,3.1377,3.1377,3.1377,3.1377,3.1377,3.1377,3.1377,3.1377,3.1377,3.1377,3.1377,3.1377,3.1377,3.1377,3.1377,3.1377,3.1377,3.1377,3.1194,3.0791,3.0791,3.0589,3.0204,3.0204,3.0406,3.0791,3.0791,3.1011,0.7682,0.8123,0.8804,0.9299,1.0234,1.1335,1.2652,1.3694,1.4776,1.6099,1.6339,1.6099,1.5404,1.5671,1.5965,1.5845,1.65,1.7206,1.7528,1.7662,1.7716,1.7716,1.7796,1.7849,1.7849,1.813,1.8249,1.8249,1.8584,1.8744,1.8744,1.8945,1.9052,1.9052,1.9252,1.943,1.943,1.943,1.943,1.943,1.9996,2.145,2.3614,2.4433,2.6013,2.7967,2.8388,2.8572,2.859,2.8865,2.8975,2.8975,2.8975,2.8975,2.8993,2.9122,2.8678,2.7761,2.6591,2.5716,2.4966,2.3736,2.3513,2.3611,2.3338,2.3475,2.3611,2.3338,2.4156,2.5495,2.707,2.8147,2.9168,3.0602,3.112,3.1249,3.1377,3.1377,3.1377,3.1377,3.1377,3.1377,3.1377,3.1377,3.1377,3.1377,3.1377,3.1377,3.1377,3.1377,3.1377,3.1377,3.1377,3.1377,3.1377,3.1377,3.1377,3.1377,3.1377,3.1377,3.1377,3.1377,3.1322,3.1212,3.0919,3.0736,3.0607,3.0607,3.0681,3.0791,3.1066,3.1267,0.8016,0.8564,0.9325,1.0033,1.1089,1.2385,1.4055,1.483,1.5618,1.7085,1.7088,1.6687,1.6032,1.6206,0.0,1.6206,1.6727,1.73,1.7542,1.7582,1.7582,1.7582,1.7582,1.7582,1.7582,1.7862,1.7995,1.7995,1.833,1.849,1.849,1.8771,1.8918,1.8918,1.9327,1.9533,1.9533,1.9707,1.9707,1.9591,2.0155,2.1506,2.3406,2.4138,2.5594,2.762,2.815,2.8388,2.8425,2.8828,2.8975,2.8975,2.8975,2.8975,2.8975,2.8975,2.8601,2.7905,2.6918,2.6325,2.5763,2.4979,2.4671,2.4526,2.4167,2.4088,2.4156,2.4074,2.4887,2.6167,2.7866,2.8888,2.9822,3.112,3.1377,3.1377,3.1377,3.1377,3.1377,3.1377,3.1377,3.1377,3.1377,3.1377,3.1377,3.1377,3.1377,3.1377,3.1377,3.1377,3.1377,3.1377,3.1377,3.1377,3.1377,3.1377,3.1377,3.1377,3.1377,3.1377,3.1377,3.1377,3.1377,3.1377,3.1139,3.1029,3.1029,3.1029,3.1029,3.1029,3.1267,3.1377,0.8684,0.9232,0.994,1.0808,1.202,1.3534,1.5772,1.6308,1.6576,1.7395,1.742,1.7152,1.6807,1.6767,1.678,1.6754,1.7045,1.7326,1.7542,1.7582,1.7582,1.7582,1.7582,1.7582,1.7582,1.7836,1.7955,1.7955,1.825,1.841,1.841,1.8691,1.8838,1.8838,1.9432,1.9768,1.9883,2.0199,2.0213,1.9924,2.0486,2.1574,2.3046,2.4007,2.5439,2.7215,2.7967,2.8333,2.8425,2.8773,2.8957,2.8975,2.8975,2.8975,2.8975,2.8975,2.8618,2.8013,2.7616,2.712,2.6586,2.6504,2.6109,2.5576,2.5145,2.494,2.4766,2.5022,2.5697,2.6835,2.8806,2.9609,3.0148,3.1184,3.1377,3.1377,3.1377,3.1377,3.1377,3.1377,3.1377,3.1377,3.1377,3.1377,3.1377,3.1377,3.1377,3.1377,3.1377,3.1377,3.1377,3.1377,3.1377,3.1377,3.1377,3.1377,3.1377,3.1377,3.1377,3.1377,3.1377,3.1377,3.1377,3.1377,3.1377,3.1377,3.1377,3.1377,3.1377,3.1377,3.1377,3.1377,0.839,0.9232,1.0234,1.1116,1.2746,1.4456,1.5658,1.6112,1.6576,1.7395,1.7528,1.7447,1.7152,1.7235,1.7315,1.7139,1.7353,1.7515,1.7569,1.7582,1.7582,1.7582,1.7582,1.7582,1.7582,1.7649,1.7689,1.7689,1.7742,1.7782,1.7782,1.8063,1.8182,1.8182,1.9025,1.9793,2.0513,2.0601,2.0716,2.0888,2.1017,2.1759,2.303,2.3729,2.5181,2.7196,2.7361,2.7801,2.8407,2.848,2.87,2.8975,2.8975,2.8975,2.8975,2.8975,2.8755,2.8295,2.7747,2.7408,2.7188,2.6651,2.6648,2.6595,2.5672,2.5968,2.6517,2.6032,2.7035,2.8427,2.9413,3.0213,3.0797,3.1313,3.1377,3.1377,3.1377,3.1377,3.1377,3.1377,3.1377,3.1377,3.1377,3.1377,3.1377,3.1377,3.1377,3.1377,3.1377,3.1377,3.1377,3.1377,3.1377,3.1377,3.1377,3.1377,3.1377,3.1377,3.1377,3.1377,3.1377,3.1377,3.1377,3.1377,3.1377,3.1377,3.1377,3.1377,3.1377,3.1377,3.1377,3.1377,0.8457,0.9432,1.0715,1.2305,1.3721,1.4963,1.5845,1.6166,1.6496,1.7034,1.7168,1.7154,1.7206,1.7326,1.742,1.7407,1.7488,1.7582,1.7582,1.7582,1.7582,1.7582,1.7582,1.7582,1.7582,1.7582,1.7582,1.7582,1.7582,1.7582,1.7582,1.7822,1.7995,1.7995,1.9056,2.0033,2.0914,2.124,2.146,2.1631,2.193,2.2667,2.3871,2.4778,2.5785,2.6903,2.7105,2.7416,2.7838,2.8242,2.8517,2.8718,2.8902,2.8975,2.8975,2.8975,2.8874,2.8696,2.8319,2.8204,2.8217,2.8027,2.7878,2.7701,2.7182,2.7295,2.7703,2.7652,2.8427,2.9478,3.0325,3.0861,3.1184,3.1377,3.1377,3.1377,3.1377,3.1377,3.1377,3.1377,3.1377,3.1377,3.1377,3.1377,3.1377,3.1377,3.1377,3.1377,3.1377,3.1377,3.1377,3.1377,3.1377,3.1377,3.1377,3.1377,3.1377,3.1377,3.1377,3.1377,3.1377,3.1377,3.1377,3.1377,3.1377,3.1377,3.1377,3.1377,3.1377,3.1377,3.1377,3.1506,0.8631,0.9806,1.1404,1.348,1.4496,1.5209,1.5986,1.6166,1.6259,1.65,1.6633,1.6794,1.7152,1.7206,1.73,1.7542,1.7582,1.7635,1.7635,1.7687,1.7687,1.7687,1.7687,1.7635,1.7582,1.7582,1.7582,1.7582,1.7582,1.7582,1.7582,1.7822,1.7916,1.7916,1.903,2.0142,2.1233,2.1867,2.2292,2.2501,2.303,2.3848,2.4889,2.6081,2.6591,2.6609,2.694,2.7123,2.7233,2.7985,2.8333,2.8425,2.8828,2.8975,2.8975,2.8975,2.8975,2.8975,2.8975,2.8975,2.903,2.936,2.91,2.8606,2.868,2.8618,2.8626,2.9244,2.9674,3.0213,3.1184,3.1377,3.1377,3.1377,3.1377,3.1377,3.1377,3.1377,3.1377,3.1377,3.1377,3.1377,3.1377,3.1377,3.1377,3.1377,3.1377,3.1377,3.1377,3.1377,3.1377,3.1377,3.1377,3.1377,3.1377,3.1377,3.1377,3.1377,3.1377,3.1377,3.1377,3.1377,3.1377,3.1377,3.1377,3.1377,3.1377,3.1377,3.1377,3.1377,3.1377,3.1589,0.8577,1.0408,1.2331,1.3387,1.4335,1.5102,1.5431,1.5712,1.5899,1.5891,1.6353,1.6794,1.7152,1.7206,1.73,1.7542,1.7582,1.7687,1.7911,1.7964,1.7964,1.7964,1.7964,1.7859,1.7635,1.7582,1.7582,1.7582,1.7582,1.7582,1.7582,1.7622,1.7649,1.7649,1.856,1.9803,2.1423,2.2103,2.2931,2.3938,2.4348,2.4778,2.5165,2.6136,2.6591,2.6591,2.6646,2.6866,2.7215,2.7655,2.8058,2.8425,2.8828,2.8975,2.8975,2.8975,2.8975,2.8975,2.8975,2.8975,2.8993,2.9048,2.9064,2.9,2.8664,2.9031,2.959,2.97,3.0213,3.0861,3.1313,3.1377,3.1377,3.1377,3.1377,3.1377,3.1377,3.1377,3.1377,3.1377,3.1377,3.1377,3.1377,3.1377,3.1377,3.1377,3.1377,3.1377,3.1377,3.1377,3.1377,3.1377,3.1377,3.1377,3.1377,3.1377,3.1377,3.1377,3.1377,3.1377,3.1377,3.1377,3.1377,3.1377,3.1377,3.1377,3.1377,3.1377,3.1377,3.1377,3.1377,3.1589,0.9165,1.0889,1.2518,1.3373,1.4146,1.483,1.5297,1.5498,1.5631,1.5744,1.6032,1.6299,1.6656,1.671,1.6857,1.7313,1.7393,1.7499,1.7937,1.8016,1.8016,1.8016,1.8016,1.7911,1.7635,1.7582,1.7582,1.7582,1.7582,1.7582,1.7582,1.7582,1.7582,1.7582,1.8464,1.9565,2.1034,2.1818,2.2982,2.4501,2.4882,2.5276,2.5734,2.6354,2.6591,2.6591,2.6591,2.6683,2.6885,2.7508,2.7875,2.8113,2.8737,2.8975,2.8975,2.8975,2.8975,2.8975,2.8975,2.8975,2.8975,2.8975,2.9044,2.9119,2.9429,2.9735,3.0149,3.0552,3.0926,3.1184,3.1377,3.1377,3.1377,3.1377,3.1377,3.1377,3.1377,3.1377,3.1377,3.1377,3.1377,3.1377,3.1377,3.1377,3.1377,3.1377,3.1377,3.1377,3.1377,3.1377,3.1377,3.1377,3.1377,3.1377,3.1377,3.1377,3.1377,3.1377,3.1377,3.1377,3.1377,3.1377,3.1377,3.1377,3.1377,3.1377,3.1377,3.1377,3.1377,3.1377,3.1377,3.1589,0.9499,1.0915,1.2171,1.2986,1.3653,1.4322,1.483,1.5124,1.5364,0.0,1.5731,1.5899,1.6112,1.6219,1.6522,1.7112,1.7206,1.7416,1.8028,1.8122,1.8122,1.8227,1.8227,1.8042,1.7646,1.758,1.7553,1.7368,1.7435,1.7475,1.7475,1.7542,1.7582,1.7582,1.8275,1.9184,2.0332,2.1624,2.3111,2.4734,2.5177,2.5682,2.6245,2.6482,2.6591,2.6591,2.6591,2.6591,2.6646,2.7325,2.773,2.7895,2.8553,2.8902,2.8975,2.8975,2.8975,2.8975,2.8975,2.8975,2.8975,2.8975,2.8975,2.914,2.9947,3.0204,3.0369,3.1157,3.1377,3.1377,3.1377,3.1377,3.1377,3.1377,3.1377,3.1377,3.1377,3.1377,3.1377,3.1377,3.1377,3.1377,3.1377,3.1377,3.1377,3.1377,3.1377,3.1377,3.1377,3.1377,3.1377,3.1377,3.1377,3.1377,3.1377,3.1377,3.1377,3.1377,3.1377,3.1377,3.1377,3.1377,3.1377,3.1377,3.1377,3.1377,3.1377,3.1377,3.1377,3.1377,3.1377,3.1653,0.9084,1.0154,1.1209,1.1846,1.2625,1.336,1.3626,1.4389,1.5115,1.5364,1.5631,1.5832,1.5798,1.6086,1.6522,1.7112,1.7206,1.7455,1.8276,1.837,1.8489,1.8817,1.8869,1.8547,1.7671,1.7592,1.7367,1.678,1.7058,1.7219,1.7219,1.7435,1.7582,1.7582,1.7872,1.845,1.9257,2.1762,2.3582,2.4699,2.554,2.6152,2.6591,2.6591,2.6591,2.6591,2.6591,2.6591,2.6628,2.7031,2.7491,2.7858,2.826,2.8645,2.8975,2.8975,2.8975,2.8975,2.8975,2.8975,2.8975,2.8975,2.8975,2.914,2.9947,3.0204,3.0369,3.1157,3.1377,3.1377,3.1377,3.1377,3.1377,3.1377,3.1377,3.1377,3.1377,3.1377,3.1377,3.1377,3.1377,3.1377,3.1377,3.1377,3.1377,3.1377,3.1377,3.1377,3.1377,3.1377,3.1377,3.1377,3.1377,3.1377,3.1377,3.1377,3.1377,3.1377,3.1377,3.1377,3.1377,3.1377,3.1377,3.1377,3.1377,3.1377,3.1377,3.1377,3.1377,3.1377,3.1377,3.1763,0.8577,0.9406,1.0301,1.0921,1.1557,1.2254,1.312,1.3761,1.4405,1.5459,1.5716,1.5899,1.6264,1.6103,1.6126,1.6576,1.6792,1.7168,1.8007,1.8297,1.8537,1.884,1.8697,1.832,1.7644,1.7401,1.7136,1.6714,1.7032,1.7206,1.7206,1.7474,1.7582,1.7582,1.7859,1.8489,1.9517,2.1554,2.296,2.3704,2.527,2.6094,2.6188,2.6463,2.6591,2.6591,2.6591,2.6591,2.6628,2.7013,2.727,2.7453,2.8132,2.848,2.8645,2.8883,2.8975,2.8975,2.8975,2.8975,2.8975,2.8975,2.8975,2.914,2.9947,3.0204,3.0369,3.1157,3.1377,3.1377,3.1377,3.1377,3.1377,3.1377,3.1377,3.1377,3.1377,3.1377,3.1377,3.1377,3.1377,3.1377,3.1377,3.1377,3.1377,3.1377,3.1377,3.1377,3.1377,3.1377,3.1377,3.1377,3.1377,3.1377,3.1377,3.1377,3.1377,3.1377,3.1377,3.1377,3.1377,3.1377,3.1377,3.1377,3.1377,3.1377,3.1377,3.1377,3.1377,3.1377,3.1653,3.1846,0.8136,0.875,0.9394,0.9876,1.0408,1.1102,1.2091,1.2772,1.3548,1.4895,1.538,1.5686,1.6304,1.6154,1.6042,1.6448,1.6662,1.7127,1.7992,1.8295,1.8519,1.8838,1.8679,1.826,1.7594,1.7335,1.7021,1.6567,1.6931,1.7109,1.7058,1.7368,1.7582,1.7582,1.7753,1.8318,1.9257,2.096,2.2173,2.2824,2.4717,2.5764,2.6021,2.6296,2.6444,2.6591,2.6591,2.6591,2.6609,2.6866,2.7068,2.7251,2.7911,2.826,2.8443,2.8847,2.8975,2.8975,2.8975,2.8975,2.8975,2.8975,2.8975,2.914,2.9947,3.0204,3.0369,3.1157,3.1377,3.1377,3.1377,3.1377,3.1377,3.1377,3.1377,3.1377,3.1377,3.1377,3.1377,3.1377,3.1377,3.1377,3.1377,3.1377,3.1377,3.1377,3.1377,3.1377,3.1377,3.1377,3.1377,3.1377,3.1377,3.1377,3.1377,3.1377,3.1377,3.1377,3.1377,3.1377,3.1377,3.1377,3.1377,3.1377,3.1506,3.157,3.157,3.1442,3.1442,3.157,3.1782,3.2038,0.0,0.0,0.0,0.8711,0.9205,0.9822,1.0425,0.0,1.258,1.3748,1.4474,1.5122,1.5955,1.6113,1.6309,1.691,1.7022,1.7344,1.8231,1.8368,1.847,1.8774,1.876,1.8411,1.7509,1.7389,1.7069,1.6238,1.6785,1.6964,1.67,1.7261,1.7582,1.7582,1.7582,1.7845,1.837,2.0071,2.1361,2.2289,2.3992,2.5179,2.5949,2.5949,2.6188,2.6591,2.6591,2.6591,2.6591,2.6591,2.6811,2.7196,2.7656,2.8022,2.8425,2.8828,2.8975,2.8975,2.8975,2.8975,2.8975,2.8975,2.8975,2.914,2.9947,3.0204,3.0369,3.1157,3.1377,3.1377,3.1377,3.1377,3.1377,3.1377,3.1377,3.1377,3.1377,3.1377,3.1377,3.1377,3.1377,3.1377,3.1377,3.1377,3.1377,3.1377,3.1377,3.1377,3.1377,3.1377,3.1377,3.1377,3.1377,3.1377,3.1377,3.1377,3.1377,3.1377,3.1377,3.1377,3.1377,3.1377,3.1377,3.1377,3.1717,3.191,3.1929,3.157,3.1589,3.191,3.1929,3.2294,0.7508,0.0,0.0,0.0,0.0,0.0,0.0,0.0,1.1614,1.3543,1.4224,1.4839,1.608,1.6516,1.6733,1.6907,1.6951,1.7156,1.7603,1.7842,1.8076,1.8408,1.8233,1.7916,1.7466,1.7237,1.6876,0.0,1.6785,1.6964,1.67,1.7261,1.7582,1.7582,1.7582,1.7845,1.837,2.0071,2.1146,2.1618,2.3339,2.4414,2.495,2.529,2.5703,2.6245,2.6464,2.6591,2.6591,2.6591,2.6646,2.6811,2.7546,2.7895,2.8022,2.8718,2.8975,2.8975,2.8975,2.8975,2.8975,2.8975,2.8975,2.914,2.9947,3.0204,3.0369,3.1157,3.1377,3.1377,3.1377,3.1377,3.1377,3.1377,3.1377,3.1377,3.1377,3.1377,3.1377,3.1377,3.1377,3.1377,3.1377,3.1377,3.1377,3.1377,3.1377,3.1377,3.1377,3.1377,3.1377,3.1377,3.1377,3.1377,3.1377,3.1377,3.1377,3.1377,3.1377,3.1377,3.1377,3.1377,3.1377,3.1377,3.1506,3.1653,3.1929,3.2038,3.2166,3.2294,3.2485,3.2867,0.7615,0.7535,0.7433,0.7682,0.0,0.0,0.8791,0.9556,1.0594,0.0,1.3093,1.3838,1.5148,1.5685,1.5949,1.6038,1.6314,1.6774,1.7481,1.7727,1.7882,1.8072,1.7925,1.7669,1.7395,1.7221,1.6965,1.6555,1.6953,1.7181,1.7025,1.7273,1.7462,1.7582,1.7582,1.7845,1.837,2.0071,2.0995,2.1181,2.2605,2.3565,2.3982,2.4421,2.4985,2.5789,2.6354,2.6591,2.6591,2.6591,2.6591,2.6664,2.7509,2.7822,2.7932,2.8682,2.8975,2.8975,2.8975,2.8975,2.8975,2.8975,2.8975,2.914,2.9947,3.0204,3.0369,3.1157,3.1377,3.1377,3.1377,3.1377,3.1377,3.1377,3.1377,3.1377,3.1377,3.1377,3.1377,3.1377,3.1377,3.1377,3.1377,3.1377,3.1377,3.1377,3.1377,3.1377,3.1377,3.1377,3.1377,3.1377,3.1377,3.1377,3.1377,3.1377,3.1377,3.1377,3.1377,3.1377,3.1377,3.1377,3.1377,3.1377,3.1525,3.1846,3.2294,3.223,3.2358,3.2613,3.2912,3.3228,0.7952,0.7939,0.7846,0.7651,0.7722,0.0,0.7923,0.86,0.9604,0.0,1.1571,1.2418,1.3601,1.413,1.4399,1.4637,1.5265,1.6199,1.7472,1.7691,1.7721,1.7765,1.7765,1.7647,1.7308,1.7279,1.72,1.7026,1.7218,1.7366,1.7473,1.7309,1.734,1.7569,1.7582,1.7845,1.837,2.0071,2.0893,2.0873,2.1928,2.2672,2.3118,2.3472,2.4149,2.5221,2.619,2.6591,2.6591,2.6591,2.6591,2.6664,2.7509,2.7822,2.7932,2.8682,2.8975,2.8975,2.8975,2.8975,2.8975,2.8975,2.8975,2.914,2.9947,3.0204,3.0369,3.1157,3.1377,3.1377,3.1377,3.1377,3.1377,3.1377,3.1377,3.1377,3.1377,3.1377,3.1377,3.1377,3.1377,3.1377,3.1377,3.1377,3.1377,3.1377,3.1377,3.1377,3.1377,3.1377,3.1377,3.1377,3.1377,3.1377,3.1377,3.1377,3.1377,3.1377,3.1377,3.1377,3.1377,3.1377,3.1377,3.1377,3.1717,3.223,3.2848,3.2294,3.2358,3.2975,3.3228,3.3418,0.8216,0.811,0.7952,0.8174,0.7893,0.0,0.7987,0.8225,0.8777,0.0,1.0808,1.1427,1.2594,1.3067,1.3316,1.3375,1.415,1.523,1.6477,1.6917,1.7135,1.7352,1.7428,1.7352,1.7293,1.7279,1.72,1.7026,1.6896,1.7035,1.7487,1.7309,1.734,1.7569,1.7582,1.7845,1.837,2.0071,2.079,2.0565,2.1454,2.2088,2.2601,2.2888,2.3719,2.4944,2.6081,2.6591,2.6591,2.6591,2.6591,2.6664,2.7509,2.7822,2.7932,2.8682,2.8975,2.8975,2.8975,2.8975,2.8975,2.8975,2.8975,2.914,2.9947,3.0204,3.0369,3.1157,3.1377,3.1377,3.1377,3.1377,3.1377,3.1377,3.1377,3.1377,3.1377,3.1377,3.1377,3.1377,3.1377,3.1377,3.1377,3.1377,3.1377,3.1377,3.1377,3.1377,3.1377,3.1377,3.1377,3.1377,3.1377,3.1377,3.1377,3.1377,3.1377,3.1377,3.1377,3.1377,3.1377,3.1377,3.1377,3.1377,3.1717,3.2102,3.2485,3.2613,3.2912,3.3292,3.3355,3.3418,0.9018,0.8804,0.8565,0.8591,0.8136,0.0,0.0,0.7939,0.8329,0.9463,0.9962,1.048,1.1383,1.1823,1.2043,1.2043,1.2862,1.3828,1.4834,1.5949,1.6784,1.7267,1.7279,1.7279,1.7279,1.7279,1.72,1.7026,1.679,1.6829,1.7236,1.7064,1.7117,1.7563,1.7472,1.7696,1.837,2.0071,2.0688,2.0308,2.0995,2.1466,2.1796,2.2264,2.3194,2.4445,2.5971,2.6591,2.6591,2.6591,2.6591,2.6664,2.7509,2.7822,2.7932,2.8682,2.8975,2.8975,2.8975,2.8975,2.8975,2.8975,2.9122,2.9397,3.002,3.0479,3.0864,3.1267,3.1377,3.1377,3.1377,3.1377,3.1377,3.1377,3.1377,3.1377,3.1377,3.1377,3.1377,3.1377,3.1377,3.1377,3.1377,3.1377,3.1377,3.1377,3.1377,3.1377,3.1377,3.1377,3.1377,3.1377,3.1377,3.1377,3.1377,3.1377,3.1377,3.1377,3.1377,3.1377,3.1377,3.1377,3.1377,3.1377,3.157,3.191,3.2422,3.2549,3.2912,3.3418,3.3544,3.367,0.9715,0.9459,0.9151,0.8924,0.8418,0.7949,0.0,0.0,0.0,0.0,0.0,0.0,0.0,0.0,0.0,1.0828,0.0,0.0,0.0,1.4614,0.0,1.6812,1.6972,1.7016,1.7016,1.7014,1.6993,1.6926,1.6692,1.6658,1.6974,1.6808,1.6949,1.75,1.7309,1.7599,1.837,1.9968,2.0483,2.0034,2.0534,2.0841,2.1039,2.1618,2.2596,2.3871,2.5679,2.6482,2.6537,2.6591,2.6591,2.6664,2.7509,2.7822,2.7932,2.8682,2.8975,2.8975,2.8975,2.8975,2.8993,2.9067,2.9415,2.9874,3.0204,3.0809,3.1377,3.1377,3.1377,3.1377,3.1377,3.1377,3.1377,3.1377,3.1377,3.1377,3.1377,3.1377,3.1377,3.1377,3.1377,3.1377,3.1377,3.1377,3.1377,3.1377,3.1377,3.1377,3.1377,3.1377,3.1377,3.1377,3.1377,3.1377,3.1377,3.1377,3.1377,3.1377,3.1377,3.1377,3.1377,3.1451,3.1506,3.1506,3.1506,3.1829,3.2535,3.2459,3.2721,3.3418,3.3733,3.3985,0.9715,0.9459,0.9204,0.9178,0.8751,0.836,0.8394,0.0,0.8248,0.8788,0.0,0.0,0.0,0.0,0.0,0.0,0.0,0.0,1.1723,1.2467,1.3623,1.5382,1.5906,1.6082,1.6082,1.611,1.6249,1.6535,1.6366,1.6481,1.696,1.6808,1.6949,1.75,1.7309,1.7599,1.837,1.9606,2.0034,1.9724,2.0034,2.0332,2.0659,2.1078,2.2104,2.3536,2.511,2.5971,2.619,2.6482,2.6591,2.6664,2.7509,2.7822,2.7932,2.8682,2.8975,2.8975,2.8975,2.8975,2.9048,2.9397,3.002,3.0662,3.0717,3.1029,3.1377,3.1377,3.1377,3.1377,3.1377,3.1377,3.1377,3.1377,3.1377,3.1377,3.1377,3.1377,3.1377,3.1377,3.1377,3.1377,3.1377,3.1377,3.1377,3.1377,3.1377,3.1377,3.1377,3.1377,3.1377,3.1377,3.1377,3.1377,3.1377,3.1377,3.1377,3.1377,3.1377,3.1377,3.1377,3.1726,3.1928,3.1928,3.1928,3.2255,3.2952,3.2592,3.2721,3.3418,3.3733,3.4403,1.0488,1.01,0.9684,0.9539,0.8938,0.8427,0.8489,0.8307,0.8242,0.0,0.0,0.0,0.0,0.0,0.0,0.0,1.0009,0.0,0.0,0.0,1.2336,0.0,0.0,0.0,1.5599,1.5404,1.5432,1.5699,1.555,1.568,1.6256,1.6497,1.6919,1.7479,1.7255,1.7524,1.837,1.919,1.945,1.919,1.945,1.979,2.0168,2.0481,2.1389,2.2749,2.4445,2.5348,2.5624,2.63,2.6591,2.6664,2.7509,2.7822,2.7932,2.8682,2.8975,2.8975,2.8975,2.8975,2.9085,2.9727,3.0314,3.0827,3.1066,3.1249,3.1377,3.1377,3.1377,3.1377,3.1377,3.1377,3.1377,3.1377,3.1377,3.1377,3.1377,3.1377,3.1377,3.1377,3.1377,3.1377,3.1377,3.1377,3.1377,3.1377,3.1377,3.1377,3.1377,3.1377,3.1377,3.1377,3.1377,3.1377,3.1377,3.1377,3.1377,3.1377,3.1377,3.1377,3.1377,3.1781,3.2001,3.2001,3.2239,3.2681,3.3387,3.3217,3.3532,3.4141,3.416,3.4715,1.1076,1.0621,1.0154,0.978,0.9138,0.8616,0.8573,0.8434,0.0,0.0,0.0,0.0,0.0,0.0,0.0,0.0,0.0,1.0053,0.0,1.055,0.0,0.0,0.0,0.0,0.0,1.4686,1.4653,1.4923,1.4852,1.5085,1.57,1.6202,1.6784,1.7385,1.7213,1.7452,1.8265,1.8722,1.8878,1.867,1.8878,1.9208,1.973,1.995,2.0726,2.207,2.3815,2.4778,2.5165,2.619,2.6591,2.6664,2.7509,2.7822,2.7932,2.8682,2.8975,2.8975,2.8975,2.9122,2.9415,3.0002,3.0552,3.1011,3.1286,3.1377,3.1377,3.1377,3.1377,3.1377,3.1377,3.1377,3.1377,3.1377,3.1377,3.1377,3.1377,3.1377,3.1377,3.1377,3.1377,3.1377,3.1377,3.1377,3.1377,3.1377,3.1377,3.1377,3.1377,3.1377,3.1414,3.1543,3.1543,3.1598,3.1708,3.1708,3.1671,3.1561,3.1653,3.1671,3.1561,3.2056,3.2349,3.2349,3.2625,3.3107,3.3842,3.3709,3.4049,3.4687,3.4648,3.5272,1.1076,1.0801,1.0439,0.9863,0.9446,0.9111,0.8858,0.0,0.8884,0.0,0.0,0.0,0.0,0.0,0.0,0.0,0.0,0.0,0.0,0.0,0.0,0.0,0.0,0.0,0.0,1.3866,1.4035,0.0,1.446,1.4824,1.5578,1.5973,1.648,1.7086,1.7127,1.7415,1.8016,1.8265,1.8422,1.8422,1.8422,1.8744,1.9401,1.9401,2.024,2.1672,2.3255,2.4278,2.4889,2.6136,2.6591,2.6664,2.7509,2.7822,2.7932,2.8682,2.8975,2.8975,2.8975,2.9507,3.0167,3.0185,3.0717,3.1359,3.1377,3.1377,3.1377,3.1377,3.1377,3.1377,3.1377,3.1377,3.1377,3.1377,3.1377,3.1377,3.1377,3.1377,3.1377,3.1377,3.1377,3.1377,3.1377,3.1377,3.1377,3.1377,3.1377,3.1377,3.1377,3.1377,3.1543,3.1946,3.1983,3.2148,3.2533,3.2551,3.2386,3.2019,3.2349,3.2386,3.2001,3.2753,3.3193,3.3193,3.3193,3.3533,3.4296,3.3861,3.4049,3.4687,3.4967,3.6039,1.1944,1.165,1.1323,1.0701,1.018,0.0,0.0,0.0,0.0,0.0,0.0,0.0,0.0,0.0,0.0,0.0,0.0,0.0,0.0,0.0,0.0,0.0,0.0,0.0,0.0,0.0,1.2923,1.3464,1.3462,1.3858,1.4754,1.5325,1.5961,1.6799,1.7018,1.7415,1.8016,1.7898,1.7845,1.7845,1.7845,1.8224,1.8809,1.8809,1.9528,2.0831,2.258,2.3648,2.4334,2.5971,2.6591,2.6664,2.7509,2.7822,2.7932,2.8682,2.8975,2.8975,2.8975,2.9525,3.0204,3.0204,3.0736,3.1377,3.1377,3.1377,3.1377,3.1377,3.1377,3.1377,3.1377,3.1377,3.1377,3.1377,3.1377,3.1377,3.1377,3.1377,3.1377,3.1377,3.1377,3.1377,3.1377,3.1377,3.1377,3.1377,3.1377,3.1377,3.1377,3.1377,3.1543,3.1964,3.2001,3.2166,3.257,3.2588,3.2423,3.2038,3.2368,3.2423,3.2019,3.279,3.323,3.323,3.3486,3.3959,3.4713,3.4562,3.4825,3.5547,3.5545,3.6349,1.2545,1.2355,1.2074,1.1484,1.0942,0.0,1.0117,0.0,1.0053,0.0,0.0,0.0,0.0,0.0,0.0,0.0,0.0,0.0,0.0,0.9536,0.0,0.0,0.0,0.0,0.0,1.2103,1.2523,1.2913,1.2976,1.3389,1.4266,1.4754,1.5499,1.6538,1.6914,1.735,1.7845,1.7687,1.7635,1.7742,1.7742,1.8063,1.8651,1.8651,1.9244,2.0385,2.1972,2.3087,2.3888,2.571,2.6573,2.6701,2.7673,2.7985,2.8077,2.8737,2.8975,2.8975,2.8975,2.9525,3.0204,3.0204,3.0736,3.1377,3.1377,3.1377,3.1377,3.1377,3.1377,3.1377,3.1377,3.1377,3.1377,3.1377,3.1377,3.1377,3.1377,3.1377,3.1377,3.1377,3.1377,3.1377,3.1377,3.1377,3.1377,3.1377,3.1377,3.1377,3.1377,3.1377,3.1598,3.2166,3.2221,3.2441,3.2973,3.3028,3.2863,3.2459,3.2808,3.2845,3.2459,3.3083,3.3431,3.3431,3.3688,3.4163,3.4921,3.477,3.5035,3.5781,3.5605,3.6222]}]]